<?xml version="1.0" encoding="UTF-8" standalone="no" ?>
<gpx xmlns="http://www.topografix.com/GPX/1/1" xmlns:xsi="http://www.w3.org/2001/XMLSchema-instance" xsi:schemaLocation="http://www.topografix.com/GPX/1/1 http://www.topografix.com/GPX/1/1/gpx.xsd" version="1.1" creator="VisuGPX - https://www.visugpx.com">
  <metadata>
    <name>Le Pla de l'Arcouade ... ou presque depuis Payolle (65)</name>
    <desc><![CDATA[Très belle montée dans la forêt et retour par le Pla de Castet et la Vallée de la Gaoube.]]></desc>
  </metadata>
  <trk>
    <name><![CDATA[SityTrail - La Pla de l'Arcouade ... ou presque depuis Payolle (65)]]></name>
    <desc><![CDATA[Très belle montée dans la forêt et retour par le Pla de Castet et la Vallée de la Gaoube.]]></desc>
    <trkseg>
      <trkpt lat="42.94264" lon="0.27935">
        <ele>1091</ele>
        <time>2021-12-12T08:55:34.644Z</time>
      </trkpt>
      <trkpt lat="42.94266" lon="0.27937">
        <ele>1091</ele>
        <time>2021-12-12T08:57:54.091Z</time>
      </trkpt>
      <trkpt lat="42.9427" lon="0.27932">
        <ele>1091</ele>
        <time>2021-12-12T08:57:59.083Z</time>
      </trkpt>
      <trkpt lat="42.94273" lon="0.27924">
        <ele>1090</ele>
        <time>2021-12-12T08:58:04.113Z</time>
      </trkpt>
      <trkpt lat="42.94276" lon="0.27919">
        <ele>1090</ele>
        <time>2021-12-12T08:58:09.088Z</time>
      </trkpt>
      <trkpt lat="42.94279" lon="0.27915">
        <ele>1090</ele>
        <time>2021-12-12T08:58:14.081Z</time>
      </trkpt>
      <trkpt lat="42.94281" lon="0.27909">
        <ele>1090</ele>
        <time>2021-12-12T08:58:19.136Z</time>
      </trkpt>
      <trkpt lat="42.94285" lon="0.27904">
        <ele>1090</ele>
        <time>2021-12-12T08:58:24.084Z</time>
      </trkpt>
      <trkpt lat="42.94287" lon="0.27899">
        <ele>1089</ele>
        <time>2021-12-12T08:58:29.082Z</time>
      </trkpt>
      <trkpt lat="42.94288" lon="0.2789">
        <ele>1089</ele>
        <time>2021-12-12T08:58:34.084Z</time>
      </trkpt>
      <trkpt lat="42.94289" lon="0.27883">
        <ele>1089</ele>
        <time>2021-12-12T08:58:39.084Z</time>
      </trkpt>
      <trkpt lat="42.94295" lon="0.27883">
        <ele>1086</ele>
        <time>2021-12-12T08:58:44.082Z</time>
      </trkpt>
      <trkpt lat="42.94295" lon="0.27887">
        <ele>1086</ele>
        <time>2021-12-12T08:58:49.086Z</time>
      </trkpt>
      <trkpt lat="42.94297" lon="0.27878">
        <ele>1086</ele>
        <time>2021-12-12T08:58:54.082Z</time>
      </trkpt>
      <trkpt lat="42.94296" lon="0.27874">
        <ele>1086</ele>
        <time>2021-12-12T08:58:59.083Z</time>
      </trkpt>
      <trkpt lat="42.94298" lon="0.27867">
        <ele>1086</ele>
        <time>2021-12-12T08:59:04.080Z</time>
      </trkpt>
      <trkpt lat="42.943" lon="0.27864">
        <ele>1086</ele>
        <time>2021-12-12T08:59:09.080Z</time>
      </trkpt>
      <trkpt lat="42.943" lon="0.27864">
        <ele>1086</ele>
        <time>2021-12-12T08:59:14.082Z</time>
      </trkpt>
      <trkpt lat="42.94302" lon="0.27863">
        <ele>1086</ele>
        <time>2021-12-12T08:59:19.114Z</time>
      </trkpt>
      <trkpt lat="42.94306" lon="0.27859">
        <ele>1086</ele>
        <time>2021-12-12T08:59:24.087Z</time>
      </trkpt>
      <trkpt lat="42.94307" lon="0.27854">
        <ele>1086</ele>
        <time>2021-12-12T08:59:29.085Z</time>
      </trkpt>
      <trkpt lat="42.94306" lon="0.27849">
        <ele>1086</ele>
        <time>2021-12-12T08:59:34.079Z</time>
      </trkpt>
      <trkpt lat="42.94307" lon="0.27846">
        <ele>1089</ele>
        <time>2021-12-12T08:59:39.082Z</time>
      </trkpt>
      <trkpt lat="42.94311" lon="0.27845">
        <ele>1089</ele>
        <time>2021-12-12T08:59:44.081Z</time>
      </trkpt>
      <trkpt lat="42.94313" lon="0.27842">
        <ele>1089</ele>
        <time>2021-12-12T08:59:48.081Z</time>
      </trkpt>
      <trkpt lat="42.9432" lon="0.27836">
        <ele>1086</ele>
        <time>2021-12-12T09:00:08.116Z</time>
      </trkpt>
      <trkpt lat="42.94321" lon="0.27833">
        <ele>1086</ele>
        <time>2021-12-12T09:00:13.089Z</time>
      </trkpt>
      <trkpt lat="42.94323" lon="0.27829">
        <ele>1086</ele>
        <time>2021-12-12T09:00:17.084Z</time>
      </trkpt>
      <trkpt lat="42.94325" lon="0.27824">
        <ele>1086</ele>
        <time>2021-12-12T09:00:22.119Z</time>
      </trkpt>
      <trkpt lat="42.94328" lon="0.2782">
        <ele>1086</ele>
        <time>2021-12-12T09:00:27.123Z</time>
      </trkpt>
      <trkpt lat="42.94331" lon="0.27817">
        <ele>1086</ele>
        <time>2021-12-12T09:00:32.087Z</time>
      </trkpt>
      <trkpt lat="42.94335" lon="0.27813">
        <ele>1086</ele>
        <time>2021-12-12T09:00:37.088Z</time>
      </trkpt>
      <trkpt lat="42.94336" lon="0.27808">
        <ele>1086</ele>
        <time>2021-12-12T09:00:42.086Z</time>
      </trkpt>
      <trkpt lat="42.94335" lon="0.27803">
        <ele>1086</ele>
        <time>2021-12-12T09:00:47.087Z</time>
      </trkpt>
      <trkpt lat="42.94334" lon="0.27798">
        <ele>1086</ele>
        <time>2021-12-12T09:00:52.085Z</time>
      </trkpt>
      <trkpt lat="42.94332" lon="0.27793">
        <ele>1086</ele>
        <time>2021-12-12T09:00:57.085Z</time>
      </trkpt>
      <trkpt lat="42.94333" lon="0.2779">
        <ele>1085</ele>
        <time>2021-12-12T09:01:01.114Z</time>
      </trkpt>
      <trkpt lat="42.9433" lon="0.27786">
        <ele>1085</ele>
        <time>2021-12-12T09:01:06.084Z</time>
      </trkpt>
      <trkpt lat="42.94328" lon="0.2778">
        <ele>1085</ele>
        <time>2021-12-12T09:03:55.088Z</time>
      </trkpt>
      <trkpt lat="42.94327" lon="0.27776">
        <ele>1085</ele>
        <time>2021-12-12T09:04:00.082Z</time>
      </trkpt>
      <trkpt lat="42.94324" lon="0.27769">
        <ele>1085</ele>
        <time>2021-12-12T09:04:05.084Z</time>
      </trkpt>
      <trkpt lat="42.94321" lon="0.27765">
        <ele>1085</ele>
        <time>2021-12-12T09:04:10.086Z</time>
      </trkpt>
      <trkpt lat="42.94319" lon="0.27761">
        <ele>1087</ele>
        <time>2021-12-12T09:04:15.085Z</time>
      </trkpt>
      <trkpt lat="42.94315" lon="0.27759">
        <ele>1087</ele>
        <time>2021-12-12T09:04:20.112Z</time>
      </trkpt>
      <trkpt lat="42.94312" lon="0.27755">
        <ele>1087</ele>
        <time>2021-12-12T09:04:25.090Z</time>
      </trkpt>
      <trkpt lat="42.94309" lon="0.27753">
        <ele>1087</ele>
        <time>2021-12-12T09:04:29.085Z</time>
      </trkpt>
      <trkpt lat="42.94307" lon="0.27749">
        <ele>1087</ele>
        <time>2021-12-12T09:04:34.088Z</time>
      </trkpt>
      <trkpt lat="42.94305" lon="0.27745">
        <ele>1087</ele>
        <time>2021-12-12T09:04:39.074Z</time>
      </trkpt>
      <trkpt lat="42.94304" lon="0.27742">
        <ele>1087</ele>
        <time>2021-12-12T09:04:43.113Z</time>
      </trkpt>
      <trkpt lat="42.94302" lon="0.27738">
        <ele>1087</ele>
        <time>2021-12-12T09:04:48.084Z</time>
      </trkpt>
      <trkpt lat="42.94302" lon="0.27734">
        <ele>1089</ele>
        <time>2021-12-12T09:04:53.086Z</time>
      </trkpt>
      <trkpt lat="42.94302" lon="0.2773">
        <ele>1089</ele>
        <time>2021-12-12T09:04:58.085Z</time>
      </trkpt>
      <trkpt lat="42.94302" lon="0.27726">
        <ele>1089</ele>
        <time>2021-12-12T09:05:03.094Z</time>
      </trkpt>
      <trkpt lat="42.94302" lon="0.27722">
        <ele>1089</ele>
        <time>2021-12-12T09:05:08.115Z</time>
      </trkpt>
      <trkpt lat="42.94302" lon="0.27717">
        <ele>1089</ele>
        <time>2021-12-12T09:05:13.121Z</time>
      </trkpt>
      <trkpt lat="42.94301" lon="0.2771">
        <ele>1089</ele>
        <time>2021-12-12T09:05:18.119Z</time>
      </trkpt>
      <trkpt lat="42.94297" lon="0.27705">
        <ele>1093</ele>
        <time>2021-12-12T09:05:23.145Z</time>
      </trkpt>
      <trkpt lat="42.94293" lon="0.27699">
        <ele>1093</ele>
        <time>2021-12-12T09:05:28.089Z</time>
      </trkpt>
      <trkpt lat="42.94289" lon="0.27696">
        <ele>1094</ele>
        <time>2021-12-12T09:05:33.089Z</time>
      </trkpt>
      <trkpt lat="42.94286" lon="0.27694">
        <ele>1094</ele>
        <time>2021-12-12T09:05:38.091Z</time>
      </trkpt>
      <trkpt lat="42.94284" lon="0.27692">
        <ele>1094</ele>
        <time>2021-12-12T09:05:42.093Z</time>
      </trkpt>
      <trkpt lat="42.94281" lon="0.27691">
        <ele>1094</ele>
        <time>2021-12-12T09:05:47.092Z</time>
      </trkpt>
      <trkpt lat="42.94278" lon="0.27688">
        <ele>1094</ele>
        <time>2021-12-12T09:05:52.086Z</time>
      </trkpt>
      <trkpt lat="42.94275" lon="0.27686">
        <ele>1094</ele>
        <time>2021-12-12T09:05:57.085Z</time>
      </trkpt>
      <trkpt lat="42.94274" lon="0.27685">
        <ele>1094</ele>
        <time>2021-12-12T09:06:01.084Z</time>
      </trkpt>
      <trkpt lat="42.94271" lon="0.27684">
        <ele>1094</ele>
        <time>2021-12-12T09:06:06.091Z</time>
      </trkpt>
      <trkpt lat="42.94269" lon="0.27682">
        <ele>1094</ele>
        <time>2021-12-12T09:06:10.080Z</time>
      </trkpt>
      <trkpt lat="42.94266" lon="0.27679">
        <ele>1098</ele>
        <time>2021-12-12T09:06:15.087Z</time>
      </trkpt>
      <trkpt lat="42.94264" lon="0.27678">
        <ele>1099</ele>
        <time>2021-12-12T09:06:19.085Z</time>
      </trkpt>
      <trkpt lat="42.94261" lon="0.27675">
        <ele>1099</ele>
        <time>2021-12-12T09:06:24.087Z</time>
      </trkpt>
      <trkpt lat="42.9426" lon="0.27671">
        <ele>1099</ele>
        <time>2021-12-12T09:06:29.085Z</time>
      </trkpt>
      <trkpt lat="42.94259" lon="0.27667">
        <ele>1099</ele>
        <time>2021-12-12T09:06:33.093Z</time>
      </trkpt>
      <trkpt lat="42.94257" lon="0.27663">
        <ele>1099</ele>
        <time>2021-12-12T09:06:38.091Z</time>
      </trkpt>
      <trkpt lat="42.94256" lon="0.27658">
        <ele>1099</ele>
        <time>2021-12-12T09:06:43.117Z</time>
      </trkpt>
      <trkpt lat="42.94254" lon="0.27654">
        <ele>1099</ele>
        <time>2021-12-12T09:06:48.114Z</time>
      </trkpt>
      <trkpt lat="42.94251" lon="0.2765">
        <ele>1101</ele>
        <time>2021-12-12T09:06:53.087Z</time>
      </trkpt>
      <trkpt lat="42.9425" lon="0.27646">
        <ele>1101</ele>
        <time>2021-12-12T09:06:58.096Z</time>
      </trkpt>
      <trkpt lat="42.94248" lon="0.27643">
        <ele>1101</ele>
        <time>2021-12-12T09:07:03.088Z</time>
      </trkpt>
      <trkpt lat="42.94246" lon="0.2764">
        <ele>1101</ele>
        <time>2021-12-12T09:07:08.088Z</time>
      </trkpt>
      <trkpt lat="42.94245" lon="0.27636">
        <ele>1101</ele>
        <time>2021-12-12T09:07:13.086Z</time>
      </trkpt>
      <trkpt lat="42.94245" lon="0.27633">
        <ele>1101</ele>
        <time>2021-12-12T09:07:18.090Z</time>
      </trkpt>
      <trkpt lat="42.94243" lon="0.27629">
        <ele>1101</ele>
        <time>2021-12-12T09:07:23.094Z</time>
      </trkpt>
      <trkpt lat="42.94242" lon="0.27625">
        <ele>1102</ele>
        <time>2021-12-12T09:07:28.094Z</time>
      </trkpt>
      <trkpt lat="42.94239" lon="0.27619">
        <ele>1102</ele>
        <time>2021-12-12T09:07:33.088Z</time>
      </trkpt>
      <trkpt lat="42.94238" lon="0.27614">
        <ele>1102</ele>
        <time>2021-12-12T09:07:38.071Z</time>
      </trkpt>
      <trkpt lat="42.94236" lon="0.2761">
        <ele>1100</ele>
        <time>2021-12-12T09:07:42.088Z</time>
      </trkpt>
      <trkpt lat="42.94233" lon="0.27606">
        <ele>1100</ele>
        <time>2021-12-12T09:07:47.121Z</time>
      </trkpt>
      <trkpt lat="42.94231" lon="0.27603">
        <ele>1100</ele>
        <time>2021-12-12T09:07:52.089Z</time>
      </trkpt>
      <trkpt lat="42.94229" lon="0.276">
        <ele>1100</ele>
        <time>2021-12-12T09:07:56.096Z</time>
      </trkpt>
      <trkpt lat="42.94226" lon="0.27595">
        <ele>1101</ele>
        <time>2021-12-12T09:08:01.092Z</time>
      </trkpt>
      <trkpt lat="42.94224" lon="0.27591">
        <ele>1101</ele>
        <time>2021-12-12T09:08:05.095Z</time>
      </trkpt>
      <trkpt lat="42.94221" lon="0.27586">
        <ele>1101</ele>
        <time>2021-12-12T09:08:10.092Z</time>
      </trkpt>
      <trkpt lat="42.94217" lon="0.27582">
        <ele>1101</ele>
        <time>2021-12-12T09:08:15.091Z</time>
      </trkpt>
      <trkpt lat="42.94214" lon="0.27577">
        <ele>1101</ele>
        <time>2021-12-12T09:08:20.092Z</time>
      </trkpt>
      <trkpt lat="42.94212" lon="0.27572">
        <ele>1101</ele>
        <time>2021-12-12T09:08:24.093Z</time>
      </trkpt>
      <trkpt lat="42.94208" lon="0.27566">
        <ele>1104</ele>
        <time>2021-12-12T09:08:29.092Z</time>
      </trkpt>
      <trkpt lat="42.94205" lon="0.27561">
        <ele>1104</ele>
        <time>2021-12-12T09:08:34.091Z</time>
      </trkpt>
      <trkpt lat="42.94203" lon="0.27556">
        <ele>1104</ele>
        <time>2021-12-12T09:08:39.090Z</time>
      </trkpt>
      <trkpt lat="42.942" lon="0.27551">
        <ele>1104</ele>
        <time>2021-12-12T09:08:44.090Z</time>
      </trkpt>
      <trkpt lat="42.94197" lon="0.27549">
        <ele>1104</ele>
        <time>2021-12-12T09:08:49.088Z</time>
      </trkpt>
      <trkpt lat="42.94194" lon="0.27544">
        <ele>1104</ele>
        <time>2021-12-12T09:08:54.094Z</time>
      </trkpt>
      <trkpt lat="42.94191" lon="0.2753">
        <ele>1106</ele>
        <time>2021-12-12T09:09:33.081Z</time>
      </trkpt>
      <trkpt lat="42.94192" lon="0.2753">
        <ele>1106</ele>
        <time>2021-12-12T09:09:37.086Z</time>
      </trkpt>
      <trkpt lat="42.94188" lon="0.27525">
        <ele>1106</ele>
        <time>2021-12-12T09:09:41.090Z</time>
      </trkpt>
      <trkpt lat="42.94186" lon="0.27522">
        <ele>1106</ele>
        <time>2021-12-12T09:09:46.082Z</time>
      </trkpt>
      <trkpt lat="42.94184" lon="0.27519">
        <ele>1106</ele>
        <time>2021-12-12T09:09:51.083Z</time>
      </trkpt>
      <trkpt lat="42.94181" lon="0.27515">
        <ele>1106</ele>
        <time>2021-12-12T09:09:56.083Z</time>
      </trkpt>
      <trkpt lat="42.94179" lon="0.27511">
        <ele>1107</ele>
        <time>2021-12-12T09:10:01.084Z</time>
      </trkpt>
      <trkpt lat="42.94175" lon="0.27508">
        <ele>1107</ele>
        <time>2021-12-12T09:10:06.083Z</time>
      </trkpt>
      <trkpt lat="42.94173" lon="0.27504">
        <ele>1107</ele>
        <time>2021-12-12T09:10:11.087Z</time>
      </trkpt>
      <trkpt lat="42.94171" lon="0.27501">
        <ele>1107</ele>
        <time>2021-12-12T09:10:15.085Z</time>
      </trkpt>
      <trkpt lat="42.94169" lon="0.27498">
        <ele>1107</ele>
        <time>2021-12-12T09:10:20.089Z</time>
      </trkpt>
      <trkpt lat="42.94166" lon="0.27493">
        <ele>1107</ele>
        <time>2021-12-12T09:10:25.083Z</time>
      </trkpt>
      <trkpt lat="42.94164" lon="0.27489">
        <ele>1107</ele>
        <time>2021-12-12T09:10:29.085Z</time>
      </trkpt>
      <trkpt lat="42.9416" lon="0.27484">
        <ele>1109</ele>
        <time>2021-12-12T09:10:34.081Z</time>
      </trkpt>
      <trkpt lat="42.94157" lon="0.27478">
        <ele>1109</ele>
        <time>2021-12-12T09:10:39.083Z</time>
      </trkpt>
      <trkpt lat="42.94156" lon="0.27474">
        <ele>1109</ele>
        <time>2021-12-12T09:10:43.085Z</time>
      </trkpt>
      <trkpt lat="42.94153" lon="0.27471">
        <ele>1109</ele>
        <time>2021-12-12T09:10:48.083Z</time>
      </trkpt>
      <trkpt lat="42.94151" lon="0.27467">
        <ele>1111</ele>
        <time>2021-12-12T09:10:53.081Z</time>
      </trkpt>
      <trkpt lat="42.94149" lon="0.27463">
        <ele>1111</ele>
        <time>2021-12-12T09:10:58.089Z</time>
      </trkpt>
      <trkpt lat="42.94147" lon="0.2746">
        <ele>1111</ele>
        <time>2021-12-12T09:11:02.082Z</time>
      </trkpt>
      <trkpt lat="42.94145" lon="0.27455">
        <ele>1116</ele>
        <time>2021-12-12T09:11:07.084Z</time>
      </trkpt>
      <trkpt lat="42.94142" lon="0.2745">
        <ele>1116</ele>
        <time>2021-12-12T09:11:12.085Z</time>
      </trkpt>
      <trkpt lat="42.94138" lon="0.27447">
        <ele>1116</ele>
        <time>2021-12-12T09:11:17.085Z</time>
      </trkpt>
      <trkpt lat="42.94136" lon="0.27442">
        <ele>1116</ele>
        <time>2021-12-12T09:11:22.084Z</time>
      </trkpt>
      <trkpt lat="42.94134" lon="0.27437">
        <ele>1116</ele>
        <time>2021-12-12T09:11:27.079Z</time>
      </trkpt>
      <trkpt lat="42.94132" lon="0.27434">
        <ele>1116</ele>
        <time>2021-12-12T09:11:32.081Z</time>
      </trkpt>
      <trkpt lat="42.9413" lon="0.2743">
        <ele>1118</ele>
        <time>2021-12-12T09:11:37.084Z</time>
      </trkpt>
      <trkpt lat="42.94127" lon="0.27425">
        <ele>1118</ele>
        <time>2021-12-12T09:11:42.091Z</time>
      </trkpt>
      <trkpt lat="42.94124" lon="0.27421">
        <ele>1120</ele>
        <time>2021-12-12T09:11:46.085Z</time>
      </trkpt>
      <trkpt lat="42.94122" lon="0.27416">
        <ele>1120</ele>
        <time>2021-12-12T09:11:51.082Z</time>
      </trkpt>
      <trkpt lat="42.9412" lon="0.27413">
        <ele>1120</ele>
        <time>2021-12-12T09:11:55.082Z</time>
      </trkpt>
      <trkpt lat="42.94117" lon="0.27409">
        <ele>1120</ele>
        <time>2021-12-12T09:12:00.080Z</time>
      </trkpt>
      <trkpt lat="42.94117" lon="0.27405">
        <ele>1120</ele>
        <time>2021-12-12T09:12:05.081Z</time>
      </trkpt>
      <trkpt lat="42.94113" lon="0.27401">
        <ele>1120</ele>
        <time>2021-12-12T09:12:10.084Z</time>
      </trkpt>
      <trkpt lat="42.94112" lon="0.27397">
        <ele>1120</ele>
        <time>2021-12-12T09:12:14.083Z</time>
      </trkpt>
      <trkpt lat="42.9411" lon="0.27394">
        <ele>1120</ele>
        <time>2021-12-12T09:12:18.081Z</time>
      </trkpt>
      <trkpt lat="42.94108" lon="0.27392">
        <ele>1120</ele>
        <time>2021-12-12T09:12:23.087Z</time>
      </trkpt>
      <trkpt lat="42.94104" lon="0.2739">
        <ele>1120</ele>
        <time>2021-12-12T09:12:28.084Z</time>
      </trkpt>
      <trkpt lat="42.94101" lon="0.27388">
        <ele>1120</ele>
        <time>2021-12-12T09:12:32.093Z</time>
      </trkpt>
      <trkpt lat="42.94097" lon="0.27384">
        <ele>1121</ele>
        <time>2021-12-12T09:12:37.085Z</time>
      </trkpt>
      <trkpt lat="42.94092" lon="0.27383">
        <ele>1121</ele>
        <time>2021-12-12T09:12:42.083Z</time>
      </trkpt>
      <trkpt lat="42.9409" lon="0.27379">
        <ele>1121</ele>
        <time>2021-12-12T09:12:47.082Z</time>
      </trkpt>
      <trkpt lat="42.94089" lon="0.27376">
        <ele>1121</ele>
        <time>2021-12-12T09:12:51.083Z</time>
      </trkpt>
      <trkpt lat="42.94086" lon="0.27375">
        <ele>1121</ele>
        <time>2021-12-12T09:12:56.080Z</time>
      </trkpt>
      <trkpt lat="42.94082" lon="0.27373">
        <ele>1121</ele>
        <time>2021-12-12T09:13:01.084Z</time>
      </trkpt>
      <trkpt lat="42.94081" lon="0.27368">
        <ele>1121</ele>
        <time>2021-12-12T09:13:06.082Z</time>
      </trkpt>
      <trkpt lat="42.9408" lon="0.27363">
        <ele>1121</ele>
        <time>2021-12-12T09:13:11.086Z</time>
      </trkpt>
      <trkpt lat="42.94078" lon="0.27357">
        <ele>1121</ele>
        <time>2021-12-12T09:13:16.082Z</time>
      </trkpt>
      <trkpt lat="42.94077" lon="0.27352">
        <ele>1121</ele>
        <time>2021-12-12T09:13:20.087Z</time>
      </trkpt>
      <trkpt lat="42.94075" lon="0.27346">
        <ele>1125</ele>
        <time>2021-12-12T09:13:25.085Z</time>
      </trkpt>
      <trkpt lat="42.94078" lon="0.27349">
        <ele>1121</ele>
        <time>2021-12-12T09:13:34.123Z</time>
      </trkpt>
      <trkpt lat="42.94077" lon="0.2735">
        <ele>1121</ele>
        <time>2021-12-12T09:13:39.151Z</time>
      </trkpt>
      <trkpt lat="42.94075" lon="0.27345">
        <ele>1125</ele>
        <time>2021-12-12T09:13:44.084Z</time>
      </trkpt>
      <trkpt lat="42.94072" lon="0.2734">
        <ele>1125</ele>
        <time>2021-12-12T09:13:49.092Z</time>
      </trkpt>
      <trkpt lat="42.94071" lon="0.27337">
        <ele>1125</ele>
        <time>2021-12-12T09:13:53.123Z</time>
      </trkpt>
      <trkpt lat="42.94068" lon="0.27332">
        <ele>1126</ele>
        <time>2021-12-12T09:13:57.150Z</time>
      </trkpt>
      <trkpt lat="42.94066" lon="0.27329">
        <ele>1126</ele>
        <time>2021-12-12T09:14:02.121Z</time>
      </trkpt>
      <trkpt lat="42.94063" lon="0.27326">
        <ele>1126</ele>
        <time>2021-12-12T09:14:07.082Z</time>
      </trkpt>
      <trkpt lat="42.9406" lon="0.27321">
        <ele>1126</ele>
        <time>2021-12-12T09:14:12.079Z</time>
      </trkpt>
      <trkpt lat="42.94059" lon="0.27321">
        <ele>1126</ele>
        <time>2021-12-12T09:14:17.082Z</time>
      </trkpt>
      <trkpt lat="42.94056" lon="0.2732">
        <ele>1126</ele>
        <time>2021-12-12T09:14:21.122Z</time>
      </trkpt>
      <trkpt lat="42.94053" lon="0.27318">
        <ele>1130</ele>
        <time>2021-12-12T09:14:26.084Z</time>
      </trkpt>
      <trkpt lat="42.9405" lon="0.27315">
        <ele>1130</ele>
        <time>2021-12-12T09:14:30.086Z</time>
      </trkpt>
      <trkpt lat="42.94047" lon="0.27313">
        <ele>1130</ele>
        <time>2021-12-12T09:14:35.082Z</time>
      </trkpt>
      <trkpt lat="42.94043" lon="0.27309">
        <ele>1130</ele>
        <time>2021-12-12T09:14:40.116Z</time>
      </trkpt>
      <trkpt lat="42.9404" lon="0.27309">
        <ele>1135</ele>
        <time>2021-12-12T09:14:45.114Z</time>
      </trkpt>
      <trkpt lat="42.94037" lon="0.27306">
        <ele>1135</ele>
        <time>2021-12-12T09:14:50.084Z</time>
      </trkpt>
      <trkpt lat="42.94034" lon="0.27303">
        <ele>1135</ele>
        <time>2021-12-12T09:14:55.082Z</time>
      </trkpt>
      <trkpt lat="42.94032" lon="0.27301">
        <ele>1135</ele>
        <time>2021-12-12T09:15:00.121Z</time>
      </trkpt>
      <trkpt lat="42.94028" lon="0.27299">
        <ele>1135</ele>
        <time>2021-12-12T09:15:05.083Z</time>
      </trkpt>
      <trkpt lat="42.94024" lon="0.27296">
        <ele>1135</ele>
        <time>2021-12-12T09:15:10.082Z</time>
      </trkpt>
      <trkpt lat="42.94021" lon="0.27293">
        <ele>1135</ele>
        <time>2021-12-12T09:15:15.085Z</time>
      </trkpt>
      <trkpt lat="42.94019" lon="0.27289">
        <ele>1135</ele>
        <time>2021-12-12T09:15:20.084Z</time>
      </trkpt>
      <trkpt lat="42.94016" lon="0.27287">
        <ele>1135</ele>
        <time>2021-12-12T09:15:24.083Z</time>
      </trkpt>
      <trkpt lat="42.94013" lon="0.27284">
        <ele>1140</ele>
        <time>2021-12-12T09:15:29.079Z</time>
      </trkpt>
      <trkpt lat="42.9401" lon="0.27282">
        <ele>1140</ele>
        <time>2021-12-12T09:15:34.082Z</time>
      </trkpt>
      <trkpt lat="42.94006" lon="0.27281">
        <ele>1140</ele>
        <time>2021-12-12T09:15:39.123Z</time>
      </trkpt>
      <trkpt lat="42.94003" lon="0.27278">
        <ele>1140</ele>
        <time>2021-12-12T09:15:44.083Z</time>
      </trkpt>
      <trkpt lat="42.94001" lon="0.27277">
        <ele>1140</ele>
        <time>2021-12-12T09:15:48.114Z</time>
      </trkpt>
      <trkpt lat="42.93999" lon="0.27276">
        <ele>1140</ele>
        <time>2021-12-12T09:15:53.080Z</time>
      </trkpt>
      <trkpt lat="42.93995" lon="0.27273">
        <ele>1140</ele>
        <time>2021-12-12T09:15:58.084Z</time>
      </trkpt>
      <trkpt lat="42.93991" lon="0.27273">
        <ele>1140</ele>
        <time>2021-12-12T09:16:03.089Z</time>
      </trkpt>
      <trkpt lat="42.93987" lon="0.27271">
        <ele>1140</ele>
        <time>2021-12-12T09:16:08.115Z</time>
      </trkpt>
      <trkpt lat="42.93984" lon="0.27271">
        <ele>1148</ele>
        <time>2021-12-12T09:16:13.084Z</time>
      </trkpt>
      <trkpt lat="42.9398" lon="0.2727">
        <ele>1148</ele>
        <time>2021-12-12T09:16:18.087Z</time>
      </trkpt>
      <trkpt lat="42.93976" lon="0.27269">
        <ele>1148</ele>
        <time>2021-12-12T09:16:23.087Z</time>
      </trkpt>
      <trkpt lat="42.93973" lon="0.27267">
        <ele>1148</ele>
        <time>2021-12-12T09:16:28.082Z</time>
      </trkpt>
      <trkpt lat="42.9397" lon="0.27266">
        <ele>1148</ele>
        <time>2021-12-12T09:16:33.082Z</time>
      </trkpt>
      <trkpt lat="42.93968" lon="0.27266">
        <ele>1148</ele>
        <time>2021-12-12T09:16:38.086Z</time>
      </trkpt>
      <trkpt lat="42.93964" lon="0.27265">
        <ele>1148</ele>
        <time>2021-12-12T09:16:42.082Z</time>
      </trkpt>
      <trkpt lat="42.93959" lon="0.27266">
        <ele>1148</ele>
        <time>2021-12-12T09:16:47.080Z</time>
      </trkpt>
      <trkpt lat="42.93955" lon="0.27268">
        <ele>1154</ele>
        <time>2021-12-12T09:16:52.107Z</time>
      </trkpt>
      <trkpt lat="42.93952" lon="0.27267">
        <ele>1154</ele>
        <time>2021-12-12T09:16:57.086Z</time>
      </trkpt>
      <trkpt lat="42.93948" lon="0.27266">
        <ele>1154</ele>
        <time>2021-12-12T09:17:02.082Z</time>
      </trkpt>
      <trkpt lat="42.93945" lon="0.27265">
        <ele>1154</ele>
        <time>2021-12-12T09:17:07.085Z</time>
      </trkpt>
      <trkpt lat="42.93942" lon="0.27263">
        <ele>1153</ele>
        <time>2021-12-12T09:17:12.076Z</time>
      </trkpt>
      <trkpt lat="42.93939" lon="0.27263">
        <ele>1153</ele>
        <time>2021-12-12T09:17:16.080Z</time>
      </trkpt>
      <trkpt lat="42.93936" lon="0.27262">
        <ele>1153</ele>
        <time>2021-12-12T09:17:21.082Z</time>
      </trkpt>
      <trkpt lat="42.93932" lon="0.2726">
        <ele>1153</ele>
        <time>2021-12-12T09:17:26.080Z</time>
      </trkpt>
      <trkpt lat="42.93928" lon="0.27258">
        <ele>1156</ele>
        <time>2021-12-12T09:17:30.086Z</time>
      </trkpt>
      <trkpt lat="42.93924" lon="0.27256">
        <ele>1156</ele>
        <time>2021-12-12T09:17:35.084Z</time>
      </trkpt>
      <trkpt lat="42.9392" lon="0.27256">
        <ele>1156</ele>
        <time>2021-12-12T09:17:40.113Z</time>
      </trkpt>
      <trkpt lat="42.93916" lon="0.27256">
        <ele>1156</ele>
        <time>2021-12-12T09:17:45.088Z</time>
      </trkpt>
      <trkpt lat="42.93913" lon="0.27255">
        <ele>1156</ele>
        <time>2021-12-12T09:17:50.083Z</time>
      </trkpt>
      <trkpt lat="42.93913" lon="0.27257">
        <ele>1156</ele>
        <time>2021-12-12T09:17:55.115Z</time>
      </trkpt>
      <trkpt lat="42.93908" lon="0.27255">
        <ele>1156</ele>
        <time>2021-12-12T09:18:00.082Z</time>
      </trkpt>
      <trkpt lat="42.93904" lon="0.27252">
        <ele>1156</ele>
        <time>2021-12-12T09:18:04.108Z</time>
      </trkpt>
      <trkpt lat="42.939" lon="0.27252">
        <ele>1158</ele>
        <time>2021-12-12T09:18:09.085Z</time>
      </trkpt>
      <trkpt lat="42.93897" lon="0.27251">
        <ele>1158</ele>
        <time>2021-12-12T09:18:14.081Z</time>
      </trkpt>
      <trkpt lat="42.93893" lon="0.2725">
        <ele>1158</ele>
        <time>2021-12-12T09:18:19.081Z</time>
      </trkpt>
      <trkpt lat="42.93889" lon="0.27248">
        <ele>1158</ele>
        <time>2021-12-12T09:18:24.086Z</time>
      </trkpt>
      <trkpt lat="42.93886" lon="0.27247">
        <ele>1158</ele>
        <time>2021-12-12T09:18:29.085Z</time>
      </trkpt>
      <trkpt lat="42.93884" lon="0.27246">
        <ele>1158</ele>
        <time>2021-12-12T09:18:33.092Z</time>
      </trkpt>
      <trkpt lat="42.9388" lon="0.27245">
        <ele>1158</ele>
        <time>2021-12-12T09:18:38.085Z</time>
      </trkpt>
      <trkpt lat="42.93877" lon="0.27244">
        <ele>1158</ele>
        <time>2021-12-12T09:18:43.082Z</time>
      </trkpt>
      <trkpt lat="42.93875" lon="0.27242">
        <ele>1164</ele>
        <time>2021-12-12T09:18:47.082Z</time>
      </trkpt>
      <trkpt lat="42.93871" lon="0.27242">
        <ele>1164</ele>
        <time>2021-12-12T09:18:52.083Z</time>
      </trkpt>
      <trkpt lat="42.93866" lon="0.2724">
        <ele>1164</ele>
        <time>2021-12-12T09:18:57.110Z</time>
      </trkpt>
      <trkpt lat="42.93862" lon="0.27241">
        <ele>1164</ele>
        <time>2021-12-12T09:19:02.086Z</time>
      </trkpt>
      <trkpt lat="42.93857" lon="0.27236">
        <ele>1160</ele>
        <time>2021-12-12T09:19:12.076Z</time>
      </trkpt>
      <trkpt lat="42.93854" lon="0.27234">
        <ele>1160</ele>
        <time>2021-12-12T09:19:16.082Z</time>
      </trkpt>
      <trkpt lat="42.93853" lon="0.27233">
        <ele>1160</ele>
        <time>2021-12-12T09:19:20.082Z</time>
      </trkpt>
      <trkpt lat="42.93852" lon="0.27232">
        <ele>1160</ele>
        <time>2021-12-12T09:19:25.084Z</time>
      </trkpt>
      <trkpt lat="42.9385" lon="0.27231">
        <ele>1160</ele>
        <time>2021-12-12T09:19:30.083Z</time>
      </trkpt>
      <trkpt lat="42.93847" lon="0.2723">
        <ele>1163</ele>
        <time>2021-12-12T09:19:34.082Z</time>
      </trkpt>
      <trkpt lat="42.93844" lon="0.27229">
        <ele>1163</ele>
        <time>2021-12-12T09:19:39.144Z</time>
      </trkpt>
      <trkpt lat="42.93841" lon="0.27226">
        <ele>1163</ele>
        <time>2021-12-12T09:19:44.081Z</time>
      </trkpt>
      <trkpt lat="42.93836" lon="0.27224">
        <ele>1163</ele>
        <time>2021-12-12T09:19:49.084Z</time>
      </trkpt>
      <trkpt lat="42.93833" lon="0.27223">
        <ele>1163</ele>
        <time>2021-12-12T09:19:53.087Z</time>
      </trkpt>
      <trkpt lat="42.93829" lon="0.2722">
        <ele>1163</ele>
        <time>2021-12-12T09:19:58.085Z</time>
      </trkpt>
      <trkpt lat="42.93826" lon="0.27216">
        <ele>1163</ele>
        <time>2021-12-12T09:20:03.082Z</time>
      </trkpt>
      <trkpt lat="42.93822" lon="0.27213">
        <ele>1163</ele>
        <time>2021-12-12T09:20:08.112Z</time>
      </trkpt>
      <trkpt lat="42.93818" lon="0.27212">
        <ele>1167</ele>
        <time>2021-12-12T09:20:13.084Z</time>
      </trkpt>
      <trkpt lat="42.93815" lon="0.27212">
        <ele>1167</ele>
        <time>2021-12-12T09:20:17.090Z</time>
      </trkpt>
      <trkpt lat="42.93812" lon="0.27208">
        <ele>1167</ele>
        <time>2021-12-12T09:20:22.080Z</time>
      </trkpt>
      <trkpt lat="42.93808" lon="0.27208">
        <ele>1164</ele>
        <time>2021-12-12T09:20:27.085Z</time>
      </trkpt>
      <trkpt lat="42.93806" lon="0.27207">
        <ele>1164</ele>
        <time>2021-12-12T09:20:32.083Z</time>
      </trkpt>
      <trkpt lat="42.93803" lon="0.27205">
        <ele>1164</ele>
        <time>2021-12-12T09:20:37.080Z</time>
      </trkpt>
      <trkpt lat="42.938" lon="0.27202">
        <ele>1164</ele>
        <time>2021-12-12T09:20:42.077Z</time>
      </trkpt>
      <trkpt lat="42.93797" lon="0.272">
        <ele>1164</ele>
        <time>2021-12-12T09:20:47.081Z</time>
      </trkpt>
      <trkpt lat="42.93794" lon="0.27197">
        <ele>1164</ele>
        <time>2021-12-12T09:20:51.084Z</time>
      </trkpt>
      <trkpt lat="42.93791" lon="0.27195">
        <ele>1168</ele>
        <time>2021-12-12T09:20:56.082Z</time>
      </trkpt>
      <trkpt lat="42.93789" lon="0.27192">
        <ele>1168</ele>
        <time>2021-12-12T09:21:00.083Z</time>
      </trkpt>
      <trkpt lat="42.93787" lon="0.27189">
        <ele>1168</ele>
        <time>2021-12-12T09:21:05.119Z</time>
      </trkpt>
      <trkpt lat="42.93785" lon="0.27186">
        <ele>1168</ele>
        <time>2021-12-12T09:21:10.083Z</time>
      </trkpt>
      <trkpt lat="42.93782" lon="0.27183">
        <ele>1168</ele>
        <time>2021-12-12T09:21:15.084Z</time>
      </trkpt>
      <trkpt lat="42.93779" lon="0.2718">
        <ele>1164</ele>
        <time>2021-12-12T09:21:20.083Z</time>
      </trkpt>
      <trkpt lat="42.93777" lon="0.27177">
        <ele>1164</ele>
        <time>2021-12-12T09:21:25.080Z</time>
      </trkpt>
      <trkpt lat="42.93774" lon="0.27175">
        <ele>1164</ele>
        <time>2021-12-12T09:21:29.082Z</time>
      </trkpt>
      <trkpt lat="42.93771" lon="0.2717">
        <ele>1164</ele>
        <time>2021-12-12T09:21:34.081Z</time>
      </trkpt>
      <trkpt lat="42.93767" lon="0.27166">
        <ele>1164</ele>
        <time>2021-12-12T09:21:39.081Z</time>
      </trkpt>
      <trkpt lat="42.93765" lon="0.27162">
        <ele>1164</ele>
        <time>2021-12-12T09:21:43.083Z</time>
      </trkpt>
      <trkpt lat="42.93761" lon="0.27157">
        <ele>1168</ele>
        <time>2021-12-12T09:21:48.081Z</time>
      </trkpt>
      <trkpt lat="42.93759" lon="0.27152">
        <ele>1165</ele>
        <time>2021-12-12T09:21:52.079Z</time>
      </trkpt>
      <trkpt lat="42.93754" lon="0.27146">
        <ele>1165</ele>
        <time>2021-12-12T09:21:57.104Z</time>
      </trkpt>
      <trkpt lat="42.9375" lon="0.27141">
        <ele>1165</ele>
        <time>2021-12-12T09:22:02.082Z</time>
      </trkpt>
      <trkpt lat="42.93747" lon="0.27136">
        <ele>1165</ele>
        <time>2021-12-12T09:22:07.082Z</time>
      </trkpt>
      <trkpt lat="42.93745" lon="0.27132">
        <ele>1165</ele>
        <time>2021-12-12T09:22:12.082Z</time>
      </trkpt>
      <trkpt lat="42.93743" lon="0.27128">
        <ele>1165</ele>
        <time>2021-12-12T09:22:17.084Z</time>
      </trkpt>
      <trkpt lat="42.93742" lon="0.27124">
        <ele>1168</ele>
        <time>2021-12-12T09:22:21.083Z</time>
      </trkpt>
      <trkpt lat="42.93739" lon="0.27119">
        <ele>1168</ele>
        <time>2021-12-12T09:22:26.083Z</time>
      </trkpt>
      <trkpt lat="42.93737" lon="0.27116">
        <ele>1168</ele>
        <time>2021-12-12T09:22:31.082Z</time>
      </trkpt>
      <trkpt lat="42.93736" lon="0.27112">
        <ele>1167</ele>
        <time>2021-12-12T09:22:36.081Z</time>
      </trkpt>
      <trkpt lat="42.93733" lon="0.27107">
        <ele>1167</ele>
        <time>2021-12-12T09:22:41.080Z</time>
      </trkpt>
      <trkpt lat="42.9373" lon="0.27102">
        <ele>1167</ele>
        <time>2021-12-12T09:22:46.084Z</time>
      </trkpt>
      <trkpt lat="42.93727" lon="0.27098">
        <ele>1167</ele>
        <time>2021-12-12T09:22:50.080Z</time>
      </trkpt>
      <trkpt lat="42.93724" lon="0.27092">
        <ele>1168</ele>
        <time>2021-12-12T09:22:55.084Z</time>
      </trkpt>
      <trkpt lat="42.93721" lon="0.27087">
        <ele>1168</ele>
        <time>2021-12-12T09:23:00.083Z</time>
      </trkpt>
      <trkpt lat="42.93718" lon="0.27083">
        <ele>1168</ele>
        <time>2021-12-12T09:23:05.088Z</time>
      </trkpt>
      <trkpt lat="42.93716" lon="0.27079">
        <ele>1168</ele>
        <time>2021-12-12T09:23:10.085Z</time>
      </trkpt>
      <trkpt lat="42.93714" lon="0.27076">
        <ele>1168</ele>
        <time>2021-12-12T09:23:14.114Z</time>
      </trkpt>
      <trkpt lat="42.93712" lon="0.27072">
        <ele>1168</ele>
        <time>2021-12-12T09:23:19.083Z</time>
      </trkpt>
      <trkpt lat="42.93709" lon="0.27068">
        <ele>1168</ele>
        <time>2021-12-12T09:23:24.082Z</time>
      </trkpt>
      <trkpt lat="42.93706" lon="0.27063">
        <ele>1164</ele>
        <time>2021-12-12T09:23:29.081Z</time>
      </trkpt>
      <trkpt lat="42.93704" lon="0.27059">
        <ele>1164</ele>
        <time>2021-12-12T09:23:34.085Z</time>
      </trkpt>
      <trkpt lat="42.93702" lon="0.27055">
        <ele>1164</ele>
        <time>2021-12-12T09:23:38.111Z</time>
      </trkpt>
      <trkpt lat="42.93699" lon="0.2705">
        <ele>1164</ele>
        <time>2021-12-12T09:23:43.090Z</time>
      </trkpt>
      <trkpt lat="42.93696" lon="0.27044">
        <ele>1164</ele>
        <time>2021-12-12T09:23:48.084Z</time>
      </trkpt>
      <trkpt lat="42.93695" lon="0.27038">
        <ele>1166</ele>
        <time>2021-12-12T09:23:53.092Z</time>
      </trkpt>
      <trkpt lat="42.93694" lon="0.27035">
        <ele>1166</ele>
        <time>2021-12-12T09:23:58.080Z</time>
      </trkpt>
      <trkpt lat="42.93694" lon="0.27034">
        <ele>1166</ele>
        <time>2021-12-12T09:24:03.083Z</time>
      </trkpt>
      <trkpt lat="42.93691" lon="0.27029">
        <ele>1166</ele>
        <time>2021-12-12T09:24:08.082Z</time>
      </trkpt>
      <trkpt lat="42.93691" lon="0.27025">
        <ele>1166</ele>
        <time>2021-12-12T09:24:12.083Z</time>
      </trkpt>
      <trkpt lat="42.9369" lon="0.2702">
        <ele>1166</ele>
        <time>2021-12-12T09:24:17.083Z</time>
      </trkpt>
      <trkpt lat="42.93688" lon="0.27014">
        <ele>1166</ele>
        <time>2021-12-12T09:24:22.081Z</time>
      </trkpt>
      <trkpt lat="42.93687" lon="0.2701">
        <ele>1168</ele>
        <time>2021-12-12T09:24:27.081Z</time>
      </trkpt>
      <trkpt lat="42.93685" lon="0.27006">
        <ele>1168</ele>
        <time>2021-12-12T09:24:32.085Z</time>
      </trkpt>
      <trkpt lat="42.93683" lon="0.27001">
        <ele>1168</ele>
        <time>2021-12-12T09:24:36.080Z</time>
      </trkpt>
      <trkpt lat="42.9368" lon="0.26995">
        <ele>1168</ele>
        <time>2021-12-12T09:24:41.081Z</time>
      </trkpt>
      <trkpt lat="42.93678" lon="0.26988">
        <ele>1168</ele>
        <time>2021-12-12T09:24:46.083Z</time>
      </trkpt>
      <trkpt lat="42.93678" lon="0.26983">
        <ele>1171</ele>
        <time>2021-12-12T09:24:51.083Z</time>
      </trkpt>
      <trkpt lat="42.93678" lon="0.26977">
        <ele>1171</ele>
        <time>2021-12-12T09:24:56.088Z</time>
      </trkpt>
      <trkpt lat="42.93677" lon="0.26968">
        <ele>1171</ele>
        <time>2021-12-12T09:26:35.087Z</time>
      </trkpt>
      <trkpt lat="42.93676" lon="0.26965">
        <ele>1171</ele>
        <time>2021-12-12T09:26:40.085Z</time>
      </trkpt>
      <trkpt lat="42.93671" lon="0.26961">
        <ele>1171</ele>
        <time>2021-12-12T09:26:45.088Z</time>
      </trkpt>
      <trkpt lat="42.93669" lon="0.26957">
        <ele>1171</ele>
        <time>2021-12-12T09:26:50.090Z</time>
      </trkpt>
      <trkpt lat="42.93666" lon="0.26953">
        <ele>1171</ele>
        <time>2021-12-12T09:26:55.089Z</time>
      </trkpt>
      <trkpt lat="42.93663" lon="0.26949">
        <ele>1171</ele>
        <time>2021-12-12T09:27:00.085Z</time>
      </trkpt>
      <trkpt lat="42.93661" lon="0.26946">
        <ele>1171</ele>
        <time>2021-12-12T09:27:04.084Z</time>
      </trkpt>
      <trkpt lat="42.93659" lon="0.26942">
        <ele>1171</ele>
        <time>2021-12-12T09:27:09.086Z</time>
      </trkpt>
      <trkpt lat="42.93657" lon="0.26938">
        <ele>1171</ele>
        <time>2021-12-12T09:27:14.086Z</time>
      </trkpt>
      <trkpt lat="42.93655" lon="0.26935">
        <ele>1171</ele>
        <time>2021-12-12T09:27:18.082Z</time>
      </trkpt>
      <trkpt lat="42.93652" lon="0.26931">
        <ele>1169</ele>
        <time>2021-12-12T09:27:23.088Z</time>
      </trkpt>
      <trkpt lat="42.9365" lon="0.26928">
        <ele>1168</ele>
        <time>2021-12-12T09:27:27.083Z</time>
      </trkpt>
      <trkpt lat="42.93646" lon="0.26923">
        <ele>1168</ele>
        <time>2021-12-12T09:27:32.089Z</time>
      </trkpt>
      <trkpt lat="42.93643" lon="0.26919">
        <ele>1168</ele>
        <time>2021-12-12T09:27:37.088Z</time>
      </trkpt>
      <trkpt lat="42.93638" lon="0.26915">
        <ele>1168</ele>
        <time>2021-12-12T09:27:42.083Z</time>
      </trkpt>
      <trkpt lat="42.93634" lon="0.2691">
        <ele>1168</ele>
        <time>2021-12-12T09:27:47.092Z</time>
      </trkpt>
      <trkpt lat="42.93631" lon="0.26907">
        <ele>1168</ele>
        <time>2021-12-12T09:27:52.084Z</time>
      </trkpt>
      <trkpt lat="42.93628" lon="0.26903">
        <ele>1168</ele>
        <time>2021-12-12T09:27:57.088Z</time>
      </trkpt>
      <trkpt lat="42.93625" lon="0.269">
        <ele>1167</ele>
        <time>2021-12-12T09:28:02.088Z</time>
      </trkpt>
      <trkpt lat="42.93623" lon="0.26897">
        <ele>1166</ele>
        <time>2021-12-12T09:28:07.083Z</time>
      </trkpt>
      <trkpt lat="42.9362" lon="0.26893">
        <ele>1166</ele>
        <time>2021-12-12T09:28:12.079Z</time>
      </trkpt>
      <trkpt lat="42.93618" lon="0.26889">
        <ele>1166</ele>
        <time>2021-12-12T09:28:16.089Z</time>
      </trkpt>
      <trkpt lat="42.93613" lon="0.26884">
        <ele>1166</ele>
        <time>2021-12-12T09:28:21.084Z</time>
      </trkpt>
      <trkpt lat="42.93609" lon="0.2688">
        <ele>1166</ele>
        <time>2021-12-12T09:28:26.087Z</time>
      </trkpt>
      <trkpt lat="42.93606" lon="0.26875">
        <ele>1166</ele>
        <time>2021-12-12T09:28:31.089Z</time>
      </trkpt>
      <trkpt lat="42.93603" lon="0.26871">
        <ele>1166</ele>
        <time>2021-12-12T09:28:36.085Z</time>
      </trkpt>
      <trkpt lat="42.936" lon="0.26867">
        <ele>1166</ele>
        <time>2021-12-12T09:28:41.084Z</time>
      </trkpt>
      <trkpt lat="42.93597" lon="0.26864">
        <ele>1166</ele>
        <time>2021-12-12T09:28:46.086Z</time>
      </trkpt>
      <trkpt lat="42.93595" lon="0.2686">
        <ele>1166</ele>
        <time>2021-12-12T09:28:51.086Z</time>
      </trkpt>
      <trkpt lat="42.93591" lon="0.26857">
        <ele>1166</ele>
        <time>2021-12-12T09:28:56.083Z</time>
      </trkpt>
      <trkpt lat="42.93587" lon="0.26852">
        <ele>1166</ele>
        <time>2021-12-12T09:29:01.085Z</time>
      </trkpt>
      <trkpt lat="42.93584" lon="0.26848">
        <ele>1166</ele>
        <time>2021-12-12T09:29:06.086Z</time>
      </trkpt>
      <trkpt lat="42.93582" lon="0.26844">
        <ele>1167</ele>
        <time>2021-12-12T09:29:11.088Z</time>
      </trkpt>
      <trkpt lat="42.93579" lon="0.26841">
        <ele>1167</ele>
        <time>2021-12-12T09:29:16.086Z</time>
      </trkpt>
      <trkpt lat="42.93577" lon="0.26838">
        <ele>1167</ele>
        <time>2021-12-12T09:29:20.096Z</time>
      </trkpt>
      <trkpt lat="42.93575" lon="0.26835">
        <ele>1167</ele>
        <time>2021-12-12T09:29:25.085Z</time>
      </trkpt>
      <trkpt lat="42.93572" lon="0.26832">
        <ele>1167</ele>
        <time>2021-12-12T09:29:30.088Z</time>
      </trkpt>
      <trkpt lat="42.93569" lon="0.26828">
        <ele>1166</ele>
        <time>2021-12-12T09:29:35.082Z</time>
      </trkpt>
      <trkpt lat="42.93564" lon="0.26823">
        <ele>1166</ele>
        <time>2021-12-12T09:29:40.086Z</time>
      </trkpt>
      <trkpt lat="42.9356" lon="0.2682">
        <ele>1166</ele>
        <time>2021-12-12T09:29:45.088Z</time>
      </trkpt>
      <trkpt lat="42.93556" lon="0.26815">
        <ele>1167</ele>
        <time>2021-12-12T09:29:50.087Z</time>
      </trkpt>
      <trkpt lat="42.93553" lon="0.2681">
        <ele>1167</ele>
        <time>2021-12-12T09:29:55.113Z</time>
      </trkpt>
      <trkpt lat="42.9355" lon="0.26806">
        <ele>1167</ele>
        <time>2021-12-12T09:30:00.085Z</time>
      </trkpt>
      <trkpt lat="42.93546" lon="0.26803">
        <ele>1167</ele>
        <time>2021-12-12T09:30:05.085Z</time>
      </trkpt>
      <trkpt lat="42.93542" lon="0.26799">
        <ele>1167</ele>
        <time>2021-12-12T09:30:10.086Z</time>
      </trkpt>
      <trkpt lat="42.93538" lon="0.26796">
        <ele>1167</ele>
        <time>2021-12-12T09:30:15.086Z</time>
      </trkpt>
      <trkpt lat="42.93534" lon="0.26792">
        <ele>1167</ele>
        <time>2021-12-12T09:30:20.090Z</time>
      </trkpt>
      <trkpt lat="42.93532" lon="0.26788">
        <ele>1168</ele>
        <time>2021-12-12T09:30:24.111Z</time>
      </trkpt>
      <trkpt lat="42.93529" lon="0.26784">
        <ele>1168</ele>
        <time>2021-12-12T09:30:29.086Z</time>
      </trkpt>
      <trkpt lat="42.93526" lon="0.2678">
        <ele>1168</ele>
        <time>2021-12-12T09:30:34.086Z</time>
      </trkpt>
      <trkpt lat="42.93522" lon="0.26777">
        <ele>1168</ele>
        <time>2021-12-12T09:30:39.087Z</time>
      </trkpt>
      <trkpt lat="42.93518" lon="0.26772">
        <ele>1168</ele>
        <time>2021-12-12T09:30:44.089Z</time>
      </trkpt>
      <trkpt lat="42.93515" lon="0.26769">
        <ele>1168</ele>
        <time>2021-12-12T09:30:48.086Z</time>
      </trkpt>
      <trkpt lat="42.93512" lon="0.26766">
        <ele>1170</ele>
        <time>2021-12-12T09:30:53.088Z</time>
      </trkpt>
      <trkpt lat="42.93509" lon="0.26761">
        <ele>1171</ele>
        <time>2021-12-12T09:30:58.091Z</time>
      </trkpt>
      <trkpt lat="42.93505" lon="0.26757">
        <ele>1171</ele>
        <time>2021-12-12T09:31:03.088Z</time>
      </trkpt>
      <trkpt lat="42.93503" lon="0.26754">
        <ele>1171</ele>
        <time>2021-12-12T09:31:08.084Z</time>
      </trkpt>
      <trkpt lat="42.935" lon="0.2675">
        <ele>1171</ele>
        <time>2021-12-12T09:31:13.088Z</time>
      </trkpt>
      <trkpt lat="42.93496" lon="0.26745">
        <ele>1171</ele>
        <time>2021-12-12T09:31:18.091Z</time>
      </trkpt>
      <trkpt lat="42.93492" lon="0.2674">
        <ele>1171</ele>
        <time>2021-12-12T09:31:23.086Z</time>
      </trkpt>
      <trkpt lat="42.93489" lon="0.26736">
        <ele>1171</ele>
        <time>2021-12-12T09:31:28.085Z</time>
      </trkpt>
      <trkpt lat="42.93485" lon="0.26733">
        <ele>1175</ele>
        <time>2021-12-12T09:31:32.088Z</time>
      </trkpt>
      <trkpt lat="42.93483" lon="0.26729">
        <ele>1175</ele>
        <time>2021-12-12T09:31:37.086Z</time>
      </trkpt>
      <trkpt lat="42.93484" lon="0.26727">
        <ele>1175</ele>
        <time>2021-12-12T09:31:42.082Z</time>
      </trkpt>
      <trkpt lat="42.93482" lon="0.26723">
        <ele>1175</ele>
        <time>2021-12-12T09:31:46.107Z</time>
      </trkpt>
      <trkpt lat="42.93477" lon="0.26718">
        <ele>1175</ele>
        <time>2021-12-12T09:31:51.084Z</time>
      </trkpt>
      <trkpt lat="42.93473" lon="0.26715">
        <ele>1175</ele>
        <time>2021-12-12T09:31:56.088Z</time>
      </trkpt>
      <trkpt lat="42.93469" lon="0.26712">
        <ele>1175</ele>
        <time>2021-12-12T09:32:01.087Z</time>
      </trkpt>
      <trkpt lat="42.93464" lon="0.26708">
        <ele>1174</ele>
        <time>2021-12-12T09:32:06.086Z</time>
      </trkpt>
      <trkpt lat="42.9346" lon="0.26705">
        <ele>1174</ele>
        <time>2021-12-12T09:32:10.084Z</time>
      </trkpt>
      <trkpt lat="42.93458" lon="0.26701">
        <ele>1177</ele>
        <time>2021-12-12T09:32:15.086Z</time>
      </trkpt>
      <trkpt lat="42.93455" lon="0.26697">
        <ele>1177</ele>
        <time>2021-12-12T09:32:20.085Z</time>
      </trkpt>
      <trkpt lat="42.93453" lon="0.26694">
        <ele>1177</ele>
        <time>2021-12-12T09:32:24.087Z</time>
      </trkpt>
      <trkpt lat="42.93449" lon="0.2669">
        <ele>1177</ele>
        <time>2021-12-12T09:32:29.085Z</time>
      </trkpt>
      <trkpt lat="42.93445" lon="0.26687">
        <ele>1177</ele>
        <time>2021-12-12T09:32:34.088Z</time>
      </trkpt>
      <trkpt lat="42.93442" lon="0.26683">
        <ele>1177</ele>
        <time>2021-12-12T09:32:39.085Z</time>
      </trkpt>
      <trkpt lat="42.93439" lon="0.26679">
        <ele>1176</ele>
        <time>2021-12-12T09:32:43.088Z</time>
      </trkpt>
      <trkpt lat="42.93435" lon="0.26675">
        <ele>1176</ele>
        <time>2021-12-12T09:32:48.083Z</time>
      </trkpt>
      <trkpt lat="42.93425" lon="0.26668">
        <ele>1177</ele>
        <time>2021-12-12T09:33:07.086Z</time>
      </trkpt>
      <trkpt lat="42.9342" lon="0.26663">
        <ele>1177</ele>
        <time>2021-12-12T09:33:12.084Z</time>
      </trkpt>
      <trkpt lat="42.93416" lon="0.26659">
        <ele>1177</ele>
        <time>2021-12-12T09:33:16.085Z</time>
      </trkpt>
      <trkpt lat="42.93414" lon="0.26655">
        <ele>1177</ele>
        <time>2021-12-12T09:33:20.085Z</time>
      </trkpt>
      <trkpt lat="42.9341" lon="0.26653">
        <ele>1178</ele>
        <time>2021-12-12T09:33:25.083Z</time>
      </trkpt>
      <trkpt lat="42.93406" lon="0.26649">
        <ele>1178</ele>
        <time>2021-12-12T09:33:30.087Z</time>
      </trkpt>
      <trkpt lat="42.93402" lon="0.26645">
        <ele>1176</ele>
        <time>2021-12-12T09:33:35.090Z</time>
      </trkpt>
      <trkpt lat="42.93398" lon="0.26641">
        <ele>1176</ele>
        <time>2021-12-12T09:33:40.086Z</time>
      </trkpt>
      <trkpt lat="42.93396" lon="0.26637">
        <ele>1176</ele>
        <time>2021-12-12T09:33:45.085Z</time>
      </trkpt>
      <trkpt lat="42.93395" lon="0.26633">
        <ele>1176</ele>
        <time>2021-12-12T09:33:50.087Z</time>
      </trkpt>
      <trkpt lat="42.93392" lon="0.26631">
        <ele>1176</ele>
        <time>2021-12-12T09:33:54.080Z</time>
      </trkpt>
      <trkpt lat="42.93389" lon="0.26629">
        <ele>1176</ele>
        <time>2021-12-12T09:33:59.084Z</time>
      </trkpt>
      <trkpt lat="42.93385" lon="0.26625">
        <ele>1176</ele>
        <time>2021-12-12T09:34:04.098Z</time>
      </trkpt>
      <trkpt lat="42.9338" lon="0.26622">
        <ele>1178</ele>
        <time>2021-12-12T09:34:09.084Z</time>
      </trkpt>
      <trkpt lat="42.93377" lon="0.2662">
        <ele>1178</ele>
        <time>2021-12-12T09:34:14.088Z</time>
      </trkpt>
      <trkpt lat="42.93374" lon="0.26616">
        <ele>1180</ele>
        <time>2021-12-12T09:34:19.083Z</time>
      </trkpt>
      <trkpt lat="42.93371" lon="0.26612">
        <ele>1180</ele>
        <time>2021-12-12T09:34:24.108Z</time>
      </trkpt>
      <trkpt lat="42.9337" lon="0.26607">
        <ele>1180</ele>
        <time>2021-12-12T09:34:29.080Z</time>
      </trkpt>
      <trkpt lat="42.93367" lon="0.26604">
        <ele>1180</ele>
        <time>2021-12-12T09:34:33.089Z</time>
      </trkpt>
      <trkpt lat="42.93363" lon="0.26601">
        <ele>1180</ele>
        <time>2021-12-12T09:34:38.089Z</time>
      </trkpt>
      <trkpt lat="42.9336" lon="0.26597">
        <ele>1181</ele>
        <time>2021-12-12T09:34:43.085Z</time>
      </trkpt>
      <trkpt lat="42.93356" lon="0.26594">
        <ele>1181</ele>
        <time>2021-12-12T09:34:47.107Z</time>
      </trkpt>
      <trkpt lat="42.93352" lon="0.26591">
        <ele>1181</ele>
        <time>2021-12-12T09:34:52.085Z</time>
      </trkpt>
      <trkpt lat="42.93348" lon="0.26588">
        <ele>1181</ele>
        <time>2021-12-12T09:34:57.090Z</time>
      </trkpt>
      <trkpt lat="42.93345" lon="0.26584">
        <ele>1182</ele>
        <time>2021-12-12T09:35:02.083Z</time>
      </trkpt>
      <trkpt lat="42.93344" lon="0.26581">
        <ele>1182</ele>
        <time>2021-12-12T09:35:07.088Z</time>
      </trkpt>
      <trkpt lat="42.93341" lon="0.26577">
        <ele>1182</ele>
        <time>2021-12-12T09:35:12.082Z</time>
      </trkpt>
      <trkpt lat="42.93336" lon="0.26573">
        <ele>1182</ele>
        <time>2021-12-12T09:35:17.085Z</time>
      </trkpt>
      <trkpt lat="42.93331" lon="0.2657">
        <ele>1182</ele>
        <time>2021-12-12T09:35:22.119Z</time>
      </trkpt>
      <trkpt lat="42.93327" lon="0.26565">
        <ele>1182</ele>
        <time>2021-12-12T09:35:27.088Z</time>
      </trkpt>
      <trkpt lat="42.93323" lon="0.26563">
        <ele>1182</ele>
        <time>2021-12-12T09:35:32.088Z</time>
      </trkpt>
      <trkpt lat="42.9332" lon="0.2656">
        <ele>1182</ele>
        <time>2021-12-12T09:35:37.089Z</time>
      </trkpt>
      <trkpt lat="42.93317" lon="0.26557">
        <ele>1188</ele>
        <time>2021-12-12T09:35:42.079Z</time>
      </trkpt>
      <trkpt lat="42.93315" lon="0.26554">
        <ele>1188</ele>
        <time>2021-12-12T09:35:46.086Z</time>
      </trkpt>
      <trkpt lat="42.93313" lon="0.26549">
        <ele>1188</ele>
        <time>2021-12-12T09:35:51.085Z</time>
      </trkpt>
      <trkpt lat="42.9331" lon="0.26546">
        <ele>1188</ele>
        <time>2021-12-12T09:35:56.087Z</time>
      </trkpt>
      <trkpt lat="42.93306" lon="0.26543">
        <ele>1188</ele>
        <time>2021-12-12T09:36:01.087Z</time>
      </trkpt>
      <trkpt lat="42.93302" lon="0.26538">
        <ele>1190</ele>
        <time>2021-12-12T09:36:06.084Z</time>
      </trkpt>
      <trkpt lat="42.93298" lon="0.26536">
        <ele>1190</ele>
        <time>2021-12-12T09:36:11.086Z</time>
      </trkpt>
      <trkpt lat="42.93296" lon="0.26533">
        <ele>1190</ele>
        <time>2021-12-12T09:36:15.113Z</time>
      </trkpt>
      <trkpt lat="42.93293" lon="0.26528">
        <ele>1190</ele>
        <time>2021-12-12T09:36:20.089Z</time>
      </trkpt>
      <trkpt lat="42.93288" lon="0.26524">
        <ele>1192</ele>
        <time>2021-12-12T09:36:25.084Z</time>
      </trkpt>
      <trkpt lat="42.93284" lon="0.26521">
        <ele>1192</ele>
        <time>2021-12-12T09:36:30.086Z</time>
      </trkpt>
      <trkpt lat="42.93281" lon="0.26516">
        <ele>1192</ele>
        <time>2021-12-12T09:36:35.087Z</time>
      </trkpt>
      <trkpt lat="42.93278" lon="0.26512">
        <ele>1193</ele>
        <time>2021-12-12T09:36:40.088Z</time>
      </trkpt>
      <trkpt lat="42.93275" lon="0.26509">
        <ele>1193</ele>
        <time>2021-12-12T09:36:45.084Z</time>
      </trkpt>
      <trkpt lat="42.93273" lon="0.26505">
        <ele>1193</ele>
        <time>2021-12-12T09:36:50.083Z</time>
      </trkpt>
      <trkpt lat="42.93271" lon="0.26501">
        <ele>1193</ele>
        <time>2021-12-12T09:36:55.085Z</time>
      </trkpt>
      <trkpt lat="42.93267" lon="0.26495">
        <ele>1193</ele>
        <time>2021-12-12T09:37:00.089Z</time>
      </trkpt>
      <trkpt lat="42.93263" lon="0.26489">
        <ele>1192</ele>
        <time>2021-12-12T09:37:05.090Z</time>
      </trkpt>
      <trkpt lat="42.93261" lon="0.26484">
        <ele>1196</ele>
        <time>2021-12-12T09:37:10.086Z</time>
      </trkpt>
      <trkpt lat="42.93259" lon="0.2648">
        <ele>1196</ele>
        <time>2021-12-12T09:37:15.086Z</time>
      </trkpt>
      <trkpt lat="42.93259" lon="0.26476">
        <ele>1196</ele>
        <time>2021-12-12T09:37:20.112Z</time>
      </trkpt>
      <trkpt lat="42.93257" lon="0.26471">
        <ele>1196</ele>
        <time>2021-12-12T09:37:25.083Z</time>
      </trkpt>
      <trkpt lat="42.93254" lon="0.26469">
        <ele>1196</ele>
        <time>2021-12-12T09:37:30.087Z</time>
      </trkpt>
      <trkpt lat="42.93251" lon="0.26468">
        <ele>1196</ele>
        <time>2021-12-12T09:37:35.089Z</time>
      </trkpt>
      <trkpt lat="42.93251" lon="0.26462">
        <ele>1196</ele>
        <time>2021-12-12T09:37:40.086Z</time>
      </trkpt>
      <trkpt lat="42.9325" lon="0.26456">
        <ele>1206</ele>
        <time>2021-12-12T09:37:45.083Z</time>
      </trkpt>
      <trkpt lat="42.9325" lon="0.26449">
        <ele>1206</ele>
        <time>2021-12-12T09:37:50.085Z</time>
      </trkpt>
      <trkpt lat="42.9325" lon="0.26445">
        <ele>1206</ele>
        <time>2021-12-12T09:37:54.108Z</time>
      </trkpt>
      <trkpt lat="42.9325" lon="0.26443">
        <ele>1206</ele>
        <time>2021-12-12T09:37:59.084Z</time>
      </trkpt>
      <trkpt lat="42.93248" lon="0.2644">
        <ele>1206</ele>
        <time>2021-12-12T09:38:04.082Z</time>
      </trkpt>
      <trkpt lat="42.93248" lon="0.26435">
        <ele>1206</ele>
        <time>2021-12-12T09:38:09.082Z</time>
      </trkpt>
      <trkpt lat="42.93249" lon="0.26431">
        <ele>1206</ele>
        <time>2021-12-12T09:38:14.086Z</time>
      </trkpt>
      <trkpt lat="42.93246" lon="0.26428">
        <ele>1223</ele>
        <time>2021-12-12T09:38:19.090Z</time>
      </trkpt>
      <trkpt lat="42.93243" lon="0.26425">
        <ele>1223</ele>
        <time>2021-12-12T09:38:24.082Z</time>
      </trkpt>
      <trkpt lat="42.9324" lon="0.26424">
        <ele>1223</ele>
        <time>2021-12-12T09:38:29.081Z</time>
      </trkpt>
      <trkpt lat="42.93238" lon="0.26422">
        <ele>1223</ele>
        <time>2021-12-12T09:38:34.081Z</time>
      </trkpt>
      <trkpt lat="42.93236" lon="0.26417">
        <ele>1216</ele>
        <time>2021-12-12T09:38:39.084Z</time>
      </trkpt>
      <trkpt lat="42.93234" lon="0.26415">
        <ele>1216</ele>
        <time>2021-12-12T09:38:44.083Z</time>
      </trkpt>
      <trkpt lat="42.9323" lon="0.26414">
        <ele>1216</ele>
        <time>2021-12-12T09:38:49.084Z</time>
      </trkpt>
      <trkpt lat="42.93226" lon="0.26412">
        <ele>1216</ele>
        <time>2021-12-12T09:38:54.086Z</time>
      </trkpt>
      <trkpt lat="42.93222" lon="0.26411">
        <ele>1216</ele>
        <time>2021-12-12T09:38:59.084Z</time>
      </trkpt>
      <trkpt lat="42.9322" lon="0.26409">
        <ele>1216</ele>
        <time>2021-12-12T09:39:03.085Z</time>
      </trkpt>
      <trkpt lat="42.93217" lon="0.26405">
        <ele>1216</ele>
        <time>2021-12-12T09:39:08.083Z</time>
      </trkpt>
      <trkpt lat="42.93216" lon="0.26401">
        <ele>1227</ele>
        <time>2021-12-12T09:39:13.085Z</time>
      </trkpt>
      <trkpt lat="42.93214" lon="0.26397">
        <ele>1227</ele>
        <time>2021-12-12T09:39:18.088Z</time>
      </trkpt>
      <trkpt lat="42.93212" lon="0.26393">
        <ele>1227</ele>
        <time>2021-12-12T09:39:23.085Z</time>
      </trkpt>
      <trkpt lat="42.93211" lon="0.26389">
        <ele>1227</ele>
        <time>2021-12-12T09:39:27.085Z</time>
      </trkpt>
      <trkpt lat="42.93209" lon="0.26384">
        <ele>1227</ele>
        <time>2021-12-12T09:39:32.087Z</time>
      </trkpt>
      <trkpt lat="42.93204" lon="0.26382">
        <ele>1226</ele>
        <time>2021-12-12T09:39:37.087Z</time>
      </trkpt>
      <trkpt lat="42.93202" lon="0.26378">
        <ele>1226</ele>
        <time>2021-12-12T09:39:42.078Z</time>
      </trkpt>
      <trkpt lat="42.93199" lon="0.26376">
        <ele>1226</ele>
        <time>2021-12-12T09:39:47.085Z</time>
      </trkpt>
      <trkpt lat="42.93199" lon="0.26371">
        <ele>1233</ele>
        <time>2021-12-12T09:39:52.088Z</time>
      </trkpt>
      <trkpt lat="42.93198" lon="0.26367">
        <ele>1233</ele>
        <time>2021-12-12T09:39:57.083Z</time>
      </trkpt>
      <trkpt lat="42.93189" lon="0.2637">
        <ele>1233</ele>
        <time>2021-12-12T09:43:00.081Z</time>
      </trkpt>
      <trkpt lat="42.93189" lon="0.2637">
        <ele>1233</ele>
        <time>2021-12-12T09:43:05.081Z</time>
      </trkpt>
      <trkpt lat="42.93189" lon="0.2637">
        <ele>1233</ele>
        <time>2021-12-12T09:43:10.085Z</time>
      </trkpt>
      <trkpt lat="42.93189" lon="0.2637">
        <ele>1233</ele>
        <time>2021-12-12T09:43:15.085Z</time>
      </trkpt>
      <trkpt lat="42.93189" lon="0.2637">
        <ele>1233</ele>
        <time>2021-12-12T09:43:19.108Z</time>
      </trkpt>
      <trkpt lat="42.93188" lon="0.2637">
        <ele>1233</ele>
        <time>2021-12-12T09:44:32.080Z</time>
      </trkpt>
      <trkpt lat="42.93188" lon="0.2637">
        <ele>1233</ele>
        <time>2021-12-12T09:44:37.083Z</time>
      </trkpt>
      <trkpt lat="42.93186" lon="0.26371">
        <ele>1233</ele>
        <time>2021-12-12T09:44:41.105Z</time>
      </trkpt>
      <trkpt lat="42.93184" lon="0.26366">
        <ele>1233</ele>
        <time>2021-12-12T09:44:46.082Z</time>
      </trkpt>
      <trkpt lat="42.93182" lon="0.26361">
        <ele>1233</ele>
        <time>2021-12-12T09:44:51.089Z</time>
      </trkpt>
      <trkpt lat="42.93181" lon="0.26356">
        <ele>1233</ele>
        <time>2021-12-12T09:44:56.086Z</time>
      </trkpt>
      <trkpt lat="42.93178" lon="0.26352">
        <ele>1242</ele>
        <time>2021-12-12T09:45:01.088Z</time>
      </trkpt>
      <trkpt lat="42.93176" lon="0.2635">
        <ele>1242</ele>
        <time>2021-12-12T09:45:06.085Z</time>
      </trkpt>
      <trkpt lat="42.93171" lon="0.26348">
        <ele>1242</ele>
        <time>2021-12-12T09:45:11.084Z</time>
      </trkpt>
      <trkpt lat="42.93169" lon="0.26341">
        <ele>1245</ele>
        <time>2021-12-12T09:45:21.084Z</time>
      </trkpt>
      <trkpt lat="42.93166" lon="0.2634">
        <ele>1245</ele>
        <time>2021-12-12T09:45:26.085Z</time>
      </trkpt>
      <trkpt lat="42.93164" lon="0.26338">
        <ele>1245</ele>
        <time>2021-12-12T09:45:31.089Z</time>
      </trkpt>
      <trkpt lat="42.93162" lon="0.26336">
        <ele>1245</ele>
        <time>2021-12-12T09:45:35.087Z</time>
      </trkpt>
      <trkpt lat="42.93162" lon="0.26332">
        <ele>1245</ele>
        <time>2021-12-12T09:45:39.110Z</time>
      </trkpt>
      <trkpt lat="42.93162" lon="0.26327">
        <ele>1245</ele>
        <time>2021-12-12T09:45:44.084Z</time>
      </trkpt>
      <trkpt lat="42.93161" lon="0.26323">
        <ele>1245</ele>
        <time>2021-12-12T09:45:49.082Z</time>
      </trkpt>
      <trkpt lat="42.93161" lon="0.26318">
        <ele>1247</ele>
        <time>2021-12-12T09:45:54.088Z</time>
      </trkpt>
      <trkpt lat="42.93159" lon="0.26311">
        <ele>1247</ele>
        <time>2021-12-12T09:45:59.083Z</time>
      </trkpt>
      <trkpt lat="42.9316" lon="0.26305">
        <ele>1247</ele>
        <time>2021-12-12T09:46:04.081Z</time>
      </trkpt>
      <trkpt lat="42.93157" lon="0.263">
        <ele>1247</ele>
        <time>2021-12-12T09:46:08.112Z</time>
      </trkpt>
      <trkpt lat="42.93155" lon="0.26293">
        <ele>1247</ele>
        <time>2021-12-12T09:46:13.084Z</time>
      </trkpt>
      <trkpt lat="42.93152" lon="0.26286">
        <ele>1262</ele>
        <time>2021-12-12T09:46:18.084Z</time>
      </trkpt>
      <trkpt lat="42.93152" lon="0.26281">
        <ele>1262</ele>
        <time>2021-12-12T09:46:22.084Z</time>
      </trkpt>
      <trkpt lat="42.93153" lon="0.26276">
        <ele>1251</ele>
        <time>2021-12-12T09:46:27.087Z</time>
      </trkpt>
      <trkpt lat="42.93156" lon="0.26273">
        <ele>1251</ele>
        <time>2021-12-12T09:46:32.085Z</time>
      </trkpt>
      <trkpt lat="42.93158" lon="0.26271">
        <ele>1251</ele>
        <time>2021-12-12T09:46:37.084Z</time>
      </trkpt>
      <trkpt lat="42.93155" lon="0.26259">
        <ele>1256</ele>
        <time>2021-12-12T09:47:10.087Z</time>
      </trkpt>
      <trkpt lat="42.93157" lon="0.26258">
        <ele>1256</ele>
        <time>2021-12-12T09:47:15.085Z</time>
      </trkpt>
      <trkpt lat="42.9316" lon="0.26255">
        <ele>1256</ele>
        <time>2021-12-12T09:47:19.082Z</time>
      </trkpt>
      <trkpt lat="42.93159" lon="0.26252">
        <ele>1256</ele>
        <time>2021-12-12T09:47:24.085Z</time>
      </trkpt>
      <trkpt lat="42.93158" lon="0.26251">
        <ele>1256</ele>
        <time>2021-12-12T09:47:29.084Z</time>
      </trkpt>
      <trkpt lat="42.93151" lon="0.2625">
        <ele>1265</ele>
        <time>2021-12-12T09:47:49.085Z</time>
      </trkpt>
      <trkpt lat="42.9315" lon="0.2625">
        <ele>1265</ele>
        <time>2021-12-12T09:47:54.081Z</time>
      </trkpt>
      <trkpt lat="42.9315" lon="0.26249">
        <ele>1265</ele>
        <time>2021-12-12T09:47:59.082Z</time>
      </trkpt>
      <trkpt lat="42.9315" lon="0.26248">
        <ele>1265</ele>
        <time>2021-12-12T09:48:04.085Z</time>
      </trkpt>
      <trkpt lat="42.93148" lon="0.26247">
        <ele>1265</ele>
        <time>2021-12-12T09:48:09.088Z</time>
      </trkpt>
      <trkpt lat="42.93147" lon="0.26243">
        <ele>1265</ele>
        <time>2021-12-12T09:48:44.083Z</time>
      </trkpt>
      <trkpt lat="42.93147" lon="0.26243">
        <ele>1265</ele>
        <time>2021-12-12T09:48:49.084Z</time>
      </trkpt>
      <trkpt lat="42.9315" lon="0.26239">
        <ele>1265</ele>
        <time>2021-12-12T09:48:54.081Z</time>
      </trkpt>
      <trkpt lat="42.93151" lon="0.26235">
        <ele>1270</ele>
        <time>2021-12-12T09:48:58.111Z</time>
      </trkpt>
      <trkpt lat="42.93152" lon="0.2623">
        <ele>1270</ele>
        <time>2021-12-12T09:49:03.085Z</time>
      </trkpt>
      <trkpt lat="42.9316" lon="0.26218">
        <ele>1263</ele>
        <time>2021-12-12T09:49:27.083Z</time>
      </trkpt>
      <trkpt lat="42.93161" lon="0.26215">
        <ele>1263</ele>
        <time>2021-12-12T09:49:32.085Z</time>
      </trkpt>
      <trkpt lat="42.93161" lon="0.2621">
        <ele>1263</ele>
        <time>2021-12-12T09:49:37.084Z</time>
      </trkpt>
      <trkpt lat="42.93161" lon="0.26206">
        <ele>1269</ele>
        <time>2021-12-12T09:49:42.082Z</time>
      </trkpt>
      <trkpt lat="42.93162" lon="0.26202">
        <ele>1269</ele>
        <time>2021-12-12T09:49:46.084Z</time>
      </trkpt>
      <trkpt lat="42.93161" lon="0.26202">
        <ele>1269</ele>
        <time>2021-12-12T09:49:51.086Z</time>
      </trkpt>
      <trkpt lat="42.93163" lon="0.26201">
        <ele>1269</ele>
        <time>2021-12-12T09:49:56.082Z</time>
      </trkpt>
      <trkpt lat="42.93164" lon="0.26196">
        <ele>1269</ele>
        <time>2021-12-12T09:50:01.084Z</time>
      </trkpt>
      <trkpt lat="42.93161" lon="0.26188">
        <ele>1269</ele>
        <time>2021-12-12T09:50:06.088Z</time>
      </trkpt>
      <trkpt lat="42.93158" lon="0.26182">
        <ele>1269</ele>
        <time>2021-12-12T09:50:11.086Z</time>
      </trkpt>
      <trkpt lat="42.93157" lon="0.26178">
        <ele>1270</ele>
        <time>2021-12-12T09:50:16.082Z</time>
      </trkpt>
      <trkpt lat="42.93159" lon="0.26176">
        <ele>1270</ele>
        <time>2021-12-12T09:50:20.079Z</time>
      </trkpt>
      <trkpt lat="42.9316" lon="0.26172">
        <ele>1270</ele>
        <time>2021-12-12T09:50:25.085Z</time>
      </trkpt>
      <trkpt lat="42.9316" lon="0.26167">
        <ele>1270</ele>
        <time>2021-12-12T09:50:30.085Z</time>
      </trkpt>
      <trkpt lat="42.93161" lon="0.26157">
        <ele>1270</ele>
        <time>2021-12-12T09:53:04.082Z</time>
      </trkpt>
      <trkpt lat="42.93161" lon="0.26156">
        <ele>1270</ele>
        <time>2021-12-12T09:53:09.087Z</time>
      </trkpt>
      <trkpt lat="42.93162" lon="0.26154">
        <ele>1270</ele>
        <time>2021-12-12T09:53:14.084Z</time>
      </trkpt>
      <trkpt lat="42.93165" lon="0.26152">
        <ele>1275</ele>
        <time>2021-12-12T09:53:19.086Z</time>
      </trkpt>
      <trkpt lat="42.93166" lon="0.26152">
        <ele>1275</ele>
        <time>2021-12-12T09:53:24.083Z</time>
      </trkpt>
      <trkpt lat="42.93162" lon="0.2615">
        <ele>1275</ele>
        <time>2021-12-12T09:54:14.091Z</time>
      </trkpt>
      <trkpt lat="42.93162" lon="0.26144">
        <ele>1275</ele>
        <time>2021-12-12T09:54:19.087Z</time>
      </trkpt>
      <trkpt lat="42.93161" lon="0.26139">
        <ele>1275</ele>
        <time>2021-12-12T09:54:24.087Z</time>
      </trkpt>
      <trkpt lat="42.93161" lon="0.26135">
        <ele>1275</ele>
        <time>2021-12-12T09:54:29.087Z</time>
      </trkpt>
      <trkpt lat="42.93158" lon="0.26134">
        <ele>1275</ele>
        <time>2021-12-12T09:54:34.087Z</time>
      </trkpt>
      <trkpt lat="42.93159" lon="0.26127">
        <ele>1275</ele>
        <time>2021-12-12T09:55:28.085Z</time>
      </trkpt>
      <trkpt lat="42.93159" lon="0.26123">
        <ele>1279</ele>
        <time>2021-12-12T09:55:33.084Z</time>
      </trkpt>
      <trkpt lat="42.9316" lon="0.26123">
        <ele>1279</ele>
        <time>2021-12-12T09:55:38.088Z</time>
      </trkpt>
      <trkpt lat="42.9316" lon="0.26119">
        <ele>1279</ele>
        <time>2021-12-12T09:55:43.084Z</time>
      </trkpt>
      <trkpt lat="42.93163" lon="0.26116">
        <ele>1279</ele>
        <time>2021-12-12T09:55:48.087Z</time>
      </trkpt>
      <trkpt lat="42.93165" lon="0.26108">
        <ele>1279</ele>
        <time>2021-12-12T09:56:08.086Z</time>
      </trkpt>
      <trkpt lat="42.93165" lon="0.26108">
        <ele>1279</ele>
        <time>2021-12-12T09:56:12.086Z</time>
      </trkpt>
      <trkpt lat="42.93166" lon="0.26105">
        <ele>1279</ele>
        <time>2021-12-12T09:56:17.083Z</time>
      </trkpt>
      <trkpt lat="42.9317" lon="0.26103">
        <ele>1279</ele>
        <time>2021-12-12T09:56:22.083Z</time>
      </trkpt>
      <trkpt lat="42.93174" lon="0.26102">
        <ele>1279</ele>
        <time>2021-12-12T09:56:27.084Z</time>
      </trkpt>
      <trkpt lat="42.93172" lon="0.26098">
        <ele>1279</ele>
        <time>2021-12-12T09:56:32.084Z</time>
      </trkpt>
      <trkpt lat="42.9317" lon="0.26096">
        <ele>1286</ele>
        <time>2021-12-12T09:56:36.098Z</time>
      </trkpt>
      <trkpt lat="42.93168" lon="0.26094">
        <ele>1286</ele>
        <time>2021-12-12T09:56:40.082Z</time>
      </trkpt>
      <trkpt lat="42.93164" lon="0.26092">
        <ele>1286</ele>
        <time>2021-12-12T09:56:45.084Z</time>
      </trkpt>
      <trkpt lat="42.9316" lon="0.2609">
        <ele>1286</ele>
        <time>2021-12-12T09:56:55.085Z</time>
      </trkpt>
      <trkpt lat="42.93162" lon="0.26089">
        <ele>1286</ele>
        <time>2021-12-12T09:57:00.082Z</time>
      </trkpt>
      <trkpt lat="42.93161" lon="0.26085">
        <ele>1286</ele>
        <time>2021-12-12T09:57:04.081Z</time>
      </trkpt>
      <trkpt lat="42.9316" lon="0.2608">
        <ele>1286</ele>
        <time>2021-12-12T09:57:09.084Z</time>
      </trkpt>
      <trkpt lat="42.9316" lon="0.26076">
        <ele>1286</ele>
        <time>2021-12-12T09:57:14.091Z</time>
      </trkpt>
      <trkpt lat="42.93156" lon="0.26073">
        <ele>1286</ele>
        <time>2021-12-12T09:57:33.091Z</time>
      </trkpt>
      <trkpt lat="42.93157" lon="0.26069">
        <ele>1291</ele>
        <time>2021-12-12T09:57:38.087Z</time>
      </trkpt>
      <trkpt lat="42.93158" lon="0.26065">
        <ele>1291</ele>
        <time>2021-12-12T09:57:43.090Z</time>
      </trkpt>
      <trkpt lat="42.93157" lon="0.26061">
        <ele>1291</ele>
        <time>2021-12-12T09:57:48.088Z</time>
      </trkpt>
      <trkpt lat="42.93158" lon="0.2606">
        <ele>1291</ele>
        <time>2021-12-12T09:57:53.091Z</time>
      </trkpt>
      <trkpt lat="42.9316" lon="0.26056">
        <ele>1291</ele>
        <time>2021-12-12T09:58:08.085Z</time>
      </trkpt>
      <trkpt lat="42.93163" lon="0.26057">
        <ele>1291</ele>
        <time>2021-12-12T09:58:13.089Z</time>
      </trkpt>
      <trkpt lat="42.93165" lon="0.26058">
        <ele>1291</ele>
        <time>2021-12-12T09:58:18.083Z</time>
      </trkpt>
      <trkpt lat="42.93168" lon="0.26056">
        <ele>1291</ele>
        <time>2021-12-12T09:58:23.085Z</time>
      </trkpt>
      <trkpt lat="42.93171" lon="0.26055">
        <ele>1291</ele>
        <time>2021-12-12T09:58:28.083Z</time>
      </trkpt>
      <trkpt lat="42.93171" lon="0.26054">
        <ele>1291</ele>
        <time>2021-12-12T09:58:38.090Z</time>
      </trkpt>
      <trkpt lat="42.93171" lon="0.26052">
        <ele>1291</ele>
        <time>2021-12-12T09:58:43.090Z</time>
      </trkpt>
      <trkpt lat="42.93169" lon="0.2605">
        <ele>1291</ele>
        <time>2021-12-12T09:58:48.086Z</time>
      </trkpt>
      <trkpt lat="42.93168" lon="0.26046">
        <ele>1291</ele>
        <time>2021-12-12T09:58:53.085Z</time>
      </trkpt>
      <trkpt lat="42.93166" lon="0.26046">
        <ele>1291</ele>
        <time>2021-12-12T09:58:58.085Z</time>
      </trkpt>
      <trkpt lat="42.93164" lon="0.26043">
        <ele>1291</ele>
        <time>2021-12-12T09:59:07.087Z</time>
      </trkpt>
      <trkpt lat="42.93166" lon="0.26039">
        <ele>1297</ele>
        <time>2021-12-12T09:59:12.079Z</time>
      </trkpt>
      <trkpt lat="42.93171" lon="0.2604">
        <ele>1297</ele>
        <time>2021-12-12T09:59:16.086Z</time>
      </trkpt>
      <trkpt lat="42.93174" lon="0.26046">
        <ele>1291</ele>
        <time>2021-12-12T09:59:21.089Z</time>
      </trkpt>
      <trkpt lat="42.93175" lon="0.26051">
        <ele>1291</ele>
        <time>2021-12-12T09:59:26.079Z</time>
      </trkpt>
      <trkpt lat="42.9318" lon="0.26044">
        <ele>1291</ele>
        <time>2021-12-12T10:00:15.086Z</time>
      </trkpt>
      <trkpt lat="42.93177" lon="0.26039">
        <ele>1297</ele>
        <time>2021-12-12T10:00:20.084Z</time>
      </trkpt>
      <trkpt lat="42.93177" lon="0.26038">
        <ele>1297</ele>
        <time>2021-12-12T10:00:25.090Z</time>
      </trkpt>
      <trkpt lat="42.93177" lon="0.26032">
        <ele>1297</ele>
        <time>2021-12-12T10:00:30.082Z</time>
      </trkpt>
      <trkpt lat="42.93176" lon="0.2603">
        <ele>1297</ele>
        <time>2021-12-12T10:00:34.085Z</time>
      </trkpt>
      <trkpt lat="42.93178" lon="0.26023">
        <ele>1297</ele>
        <time>2021-12-12T10:01:02.111Z</time>
      </trkpt>
      <trkpt lat="42.93182" lon="0.26029">
        <ele>1304</ele>
        <time>2021-12-12T10:01:07.080Z</time>
      </trkpt>
      <trkpt lat="42.93184" lon="0.26032">
        <ele>1304</ele>
        <time>2021-12-12T10:01:12.078Z</time>
      </trkpt>
      <trkpt lat="42.93185" lon="0.26031">
        <ele>1304</ele>
        <time>2021-12-12T10:01:16.083Z</time>
      </trkpt>
      <trkpt lat="42.93189" lon="0.2603">
        <ele>1304</ele>
        <time>2021-12-12T10:01:21.085Z</time>
      </trkpt>
      <trkpt lat="42.93193" lon="0.26036">
        <ele>1304</ele>
        <time>2021-12-12T10:01:36.088Z</time>
      </trkpt>
      <trkpt lat="42.93195" lon="0.26033">
        <ele>1304</ele>
        <time>2021-12-12T10:01:41.085Z</time>
      </trkpt>
      <trkpt lat="42.93196" lon="0.2603">
        <ele>1304</ele>
        <time>2021-12-12T10:01:46.089Z</time>
      </trkpt>
      <trkpt lat="42.93193" lon="0.26023">
        <ele>1304</ele>
        <time>2021-12-12T10:01:51.087Z</time>
      </trkpt>
      <trkpt lat="42.93191" lon="0.26019">
        <ele>1304</ele>
        <time>2021-12-12T10:01:55.085Z</time>
      </trkpt>
      <trkpt lat="42.93192" lon="0.26014">
        <ele>1314</ele>
        <time>2021-12-12T10:02:28.087Z</time>
      </trkpt>
      <trkpt lat="42.93192" lon="0.26014">
        <ele>1314</ele>
        <time>2021-12-12T10:02:33.084Z</time>
      </trkpt>
      <trkpt lat="42.93193" lon="0.26013">
        <ele>1314</ele>
        <time>2021-12-12T10:02:38.085Z</time>
      </trkpt>
      <trkpt lat="42.93194" lon="0.2601">
        <ele>1314</ele>
        <time>2021-12-12T10:02:43.083Z</time>
      </trkpt>
      <trkpt lat="42.93191" lon="0.26003">
        <ele>1314</ele>
        <time>2021-12-12T10:02:48.091Z</time>
      </trkpt>
      <trkpt lat="42.93185" lon="0.26006">
        <ele>1314</ele>
        <time>2021-12-12T10:02:53.087Z</time>
      </trkpt>
      <trkpt lat="42.93185" lon="0.26004">
        <ele>1314</ele>
        <time>2021-12-12T10:02:58.087Z</time>
      </trkpt>
      <trkpt lat="42.93185" lon="0.25998">
        <ele>1314</ele>
        <time>2021-12-12T10:03:03.087Z</time>
      </trkpt>
      <trkpt lat="42.93184" lon="0.25993">
        <ele>1314</ele>
        <time>2021-12-12T10:03:08.086Z</time>
      </trkpt>
      <trkpt lat="42.93186" lon="0.25993">
        <ele>1314</ele>
        <time>2021-12-12T10:03:32.083Z</time>
      </trkpt>
      <trkpt lat="42.93186" lon="0.25992">
        <ele>1314</ele>
        <time>2021-12-12T10:03:37.083Z</time>
      </trkpt>
      <trkpt lat="42.93189" lon="0.25991">
        <ele>1314</ele>
        <time>2021-12-12T10:03:42.083Z</time>
      </trkpt>
      <trkpt lat="42.93192" lon="0.25987">
        <ele>1314</ele>
        <time>2021-12-12T10:03:47.084Z</time>
      </trkpt>
      <trkpt lat="42.93194" lon="0.25983">
        <ele>1324</ele>
        <time>2021-12-12T10:03:52.088Z</time>
      </trkpt>
      <trkpt lat="42.93195" lon="0.25975">
        <ele>1324</ele>
        <time>2021-12-12T10:04:01.089Z</time>
      </trkpt>
      <trkpt lat="42.93195" lon="0.25972">
        <ele>1324</ele>
        <time>2021-12-12T10:04:06.090Z</time>
      </trkpt>
      <trkpt lat="42.93197" lon="0.25971">
        <ele>1324</ele>
        <time>2021-12-12T10:04:10.090Z</time>
      </trkpt>
      <trkpt lat="42.932" lon="0.25971">
        <ele>1324</ele>
        <time>2021-12-12T10:04:15.089Z</time>
      </trkpt>
      <trkpt lat="42.93202" lon="0.25969">
        <ele>1324</ele>
        <time>2021-12-12T10:04:20.116Z</time>
      </trkpt>
      <trkpt lat="42.93197" lon="0.2596">
        <ele>1324</ele>
        <time>2021-12-12T10:05:43.085Z</time>
      </trkpt>
      <trkpt lat="42.93195" lon="0.25958">
        <ele>1331</ele>
        <time>2021-12-12T10:05:48.081Z</time>
      </trkpt>
      <trkpt lat="42.93192" lon="0.25956">
        <ele>1331</ele>
        <time>2021-12-12T10:05:52.081Z</time>
      </trkpt>
      <trkpt lat="42.93193" lon="0.25955">
        <ele>1331</ele>
        <time>2021-12-12T10:05:57.082Z</time>
      </trkpt>
      <trkpt lat="42.93193" lon="0.25955">
        <ele>1331</ele>
        <time>2021-12-12T10:06:02.078Z</time>
      </trkpt>
      <trkpt lat="42.93193" lon="0.25956">
        <ele>1331</ele>
        <time>2021-12-12T10:06:06.087Z</time>
      </trkpt>
      <trkpt lat="42.93195" lon="0.25957">
        <ele>1331</ele>
        <time>2021-12-12T10:06:11.085Z</time>
      </trkpt>
      <trkpt lat="42.93199" lon="0.25951">
        <ele>1331</ele>
        <time>2021-12-12T10:06:16.086Z</time>
      </trkpt>
      <trkpt lat="42.932" lon="0.25949">
        <ele>1331</ele>
        <time>2021-12-12T10:06:21.078Z</time>
      </trkpt>
      <trkpt lat="42.93203" lon="0.25947">
        <ele>1331</ele>
        <time>2021-12-12T10:06:25.090Z</time>
      </trkpt>
      <trkpt lat="42.93205" lon="0.25946">
        <ele>1331</ele>
        <time>2021-12-12T10:08:17.084Z</time>
      </trkpt>
      <trkpt lat="42.93201" lon="0.25943">
        <ele>1331</ele>
        <time>2021-12-12T10:08:22.087Z</time>
      </trkpt>
      <trkpt lat="42.93197" lon="0.25943">
        <ele>1331</ele>
        <time>2021-12-12T10:08:27.082Z</time>
      </trkpt>
      <trkpt lat="42.93193" lon="0.25944">
        <ele>1331</ele>
        <time>2021-12-12T10:08:32.088Z</time>
      </trkpt>
      <trkpt lat="42.93192" lon="0.25944">
        <ele>1331</ele>
        <time>2021-12-12T10:08:37.094Z</time>
      </trkpt>
      <trkpt lat="42.93192" lon="0.25944">
        <ele>1331</ele>
        <time>2021-12-12T10:09:01.090Z</time>
      </trkpt>
      <trkpt lat="42.93193" lon="0.25944">
        <ele>1331</ele>
        <time>2021-12-12T10:09:06.084Z</time>
      </trkpt>
      <trkpt lat="42.93193" lon="0.25943">
        <ele>1331</ele>
        <time>2021-12-12T10:09:10.088Z</time>
      </trkpt>
      <trkpt lat="42.93195" lon="0.25938">
        <ele>1331</ele>
        <time>2021-12-12T10:09:15.086Z</time>
      </trkpt>
      <trkpt lat="42.932" lon="0.25935">
        <ele>1331</ele>
        <time>2021-12-12T10:09:20.087Z</time>
      </trkpt>
      <trkpt lat="42.93204" lon="0.25931">
        <ele>1331</ele>
        <time>2021-12-12T10:09:49.087Z</time>
      </trkpt>
      <trkpt lat="42.932" lon="0.2593">
        <ele>1339</ele>
        <time>2021-12-12T10:09:54.086Z</time>
      </trkpt>
      <trkpt lat="42.93196" lon="0.25931">
        <ele>1331</ele>
        <time>2021-12-12T10:09:59.087Z</time>
      </trkpt>
      <trkpt lat="42.93194" lon="0.25933">
        <ele>1331</ele>
        <time>2021-12-12T10:10:04.092Z</time>
      </trkpt>
      <trkpt lat="42.93191" lon="0.25933">
        <ele>1331</ele>
        <time>2021-12-12T10:10:09.079Z</time>
      </trkpt>
      <trkpt lat="42.93187" lon="0.25933">
        <ele>1331</ele>
        <time>2021-12-12T10:10:36.083Z</time>
      </trkpt>
      <trkpt lat="42.93185" lon="0.25932">
        <ele>1331</ele>
        <time>2021-12-12T10:10:41.081Z</time>
      </trkpt>
      <trkpt lat="42.93184" lon="0.25931">
        <ele>1331</ele>
        <time>2021-12-12T10:10:45.086Z</time>
      </trkpt>
      <trkpt lat="42.93181" lon="0.25928">
        <ele>1339</ele>
        <time>2021-12-12T10:10:50.088Z</time>
      </trkpt>
      <trkpt lat="42.9318" lon="0.25927">
        <ele>1337</ele>
        <time>2021-12-12T10:10:55.090Z</time>
      </trkpt>
      <trkpt lat="42.93184" lon="0.25918">
        <ele>1339</ele>
        <time>2021-12-12T10:11:39.093Z</time>
      </trkpt>
      <trkpt lat="42.93184" lon="0.25918">
        <ele>1339</ele>
        <time>2021-12-12T10:11:44.088Z</time>
      </trkpt>
      <trkpt lat="42.93186" lon="0.25918">
        <ele>1339</ele>
        <time>2021-12-12T10:11:48.090Z</time>
      </trkpt>
      <trkpt lat="42.93188" lon="0.25917">
        <ele>1339</ele>
        <time>2021-12-12T10:11:53.093Z</time>
      </trkpt>
      <trkpt lat="42.93191" lon="0.25915">
        <ele>1339</ele>
        <time>2021-12-12T10:11:58.086Z</time>
      </trkpt>
      <trkpt lat="42.93191" lon="0.2591">
        <ele>1339</ele>
        <time>2021-12-12T10:12:07.086Z</time>
      </trkpt>
      <trkpt lat="42.93191" lon="0.2591">
        <ele>1339</ele>
        <time>2021-12-12T10:12:11.088Z</time>
      </trkpt>
      <trkpt lat="42.93189" lon="0.25908">
        <ele>1339</ele>
        <time>2021-12-12T10:12:16.087Z</time>
      </trkpt>
      <trkpt lat="42.93186" lon="0.25906">
        <ele>1339</ele>
        <time>2021-12-12T10:12:21.091Z</time>
      </trkpt>
      <trkpt lat="42.93182" lon="0.25905">
        <ele>1339</ele>
        <time>2021-12-12T10:12:26.082Z</time>
      </trkpt>
      <trkpt lat="42.93176" lon="0.25896">
        <ele>1343</ele>
        <time>2021-12-12T10:12:45.084Z</time>
      </trkpt>
      <trkpt lat="42.93176" lon="0.25896">
        <ele>1343</ele>
        <time>2021-12-12T10:12:50.082Z</time>
      </trkpt>
      <trkpt lat="42.93174" lon="0.25897">
        <ele>1343</ele>
        <time>2021-12-12T10:12:55.086Z</time>
      </trkpt>
      <trkpt lat="42.93178" lon="0.25893">
        <ele>1343</ele>
        <time>2021-12-12T10:13:00.085Z</time>
      </trkpt>
      <trkpt lat="42.9318" lon="0.25888">
        <ele>1343</ele>
        <time>2021-12-12T10:13:04.087Z</time>
      </trkpt>
      <trkpt lat="42.9318" lon="0.25878">
        <ele>1343</ele>
        <time>2021-12-12T10:14:02.084Z</time>
      </trkpt>
      <trkpt lat="42.93181" lon="0.25876">
        <ele>1346</ele>
        <time>2021-12-12T10:14:07.084Z</time>
      </trkpt>
      <trkpt lat="42.93185" lon="0.25878">
        <ele>1346</ele>
        <time>2021-12-12T10:14:12.079Z</time>
      </trkpt>
      <trkpt lat="42.93189" lon="0.2588">
        <ele>1346</ele>
        <time>2021-12-12T10:14:17.081Z</time>
      </trkpt>
      <trkpt lat="42.93192" lon="0.25881">
        <ele>1346</ele>
        <time>2021-12-12T10:14:22.090Z</time>
      </trkpt>
      <trkpt lat="42.93193" lon="0.25879">
        <ele>1346</ele>
        <time>2021-12-12T10:14:26.088Z</time>
      </trkpt>
      <trkpt lat="42.93191" lon="0.25876">
        <ele>1346</ele>
        <time>2021-12-12T10:14:31.088Z</time>
      </trkpt>
      <trkpt lat="42.93189" lon="0.25873">
        <ele>1351</ele>
        <time>2021-12-12T10:14:35.113Z</time>
      </trkpt>
      <trkpt lat="42.93186" lon="0.25871">
        <ele>1351</ele>
        <time>2021-12-12T10:14:40.084Z</time>
      </trkpt>
      <trkpt lat="42.93186" lon="0.25868">
        <ele>1351</ele>
        <time>2021-12-12T10:14:44.089Z</time>
      </trkpt>
      <trkpt lat="42.93188" lon="0.25864">
        <ele>1351</ele>
        <time>2021-12-12T10:14:49.091Z</time>
      </trkpt>
      <trkpt lat="42.93192" lon="0.25867">
        <ele>1351</ele>
        <time>2021-12-12T10:14:54.087Z</time>
      </trkpt>
      <trkpt lat="42.93196" lon="0.25868">
        <ele>1351</ele>
        <time>2021-12-12T10:14:59.085Z</time>
      </trkpt>
      <trkpt lat="42.93199" lon="0.25871">
        <ele>1351</ele>
        <time>2021-12-12T10:15:04.091Z</time>
      </trkpt>
      <trkpt lat="42.932" lon="0.25872">
        <ele>1351</ele>
        <time>2021-12-12T10:15:24.085Z</time>
      </trkpt>
      <trkpt lat="42.93198" lon="0.2587">
        <ele>1351</ele>
        <time>2021-12-12T10:15:29.089Z</time>
      </trkpt>
      <trkpt lat="42.93198" lon="0.25866">
        <ele>1351</ele>
        <time>2021-12-12T10:15:33.091Z</time>
      </trkpt>
      <trkpt lat="42.93198" lon="0.25862">
        <ele>1351</ele>
        <time>2021-12-12T10:15:38.084Z</time>
      </trkpt>
      <trkpt lat="42.93196" lon="0.25858">
        <ele>1351</ele>
        <time>2021-12-12T10:15:43.088Z</time>
      </trkpt>
      <trkpt lat="42.93193" lon="0.25854">
        <ele>1351</ele>
        <time>2021-12-12T10:16:11.087Z</time>
      </trkpt>
      <trkpt lat="42.93196" lon="0.25853">
        <ele>1351</ele>
        <time>2021-12-12T10:16:15.085Z</time>
      </trkpt>
      <trkpt lat="42.93199" lon="0.25852">
        <ele>1351</ele>
        <time>2021-12-12T10:16:20.088Z</time>
      </trkpt>
      <trkpt lat="42.93203" lon="0.25854">
        <ele>1351</ele>
        <time>2021-12-12T10:16:25.089Z</time>
      </trkpt>
      <trkpt lat="42.93208" lon="0.25854">
        <ele>1351</ele>
        <time>2021-12-12T10:16:30.086Z</time>
      </trkpt>
      <trkpt lat="42.93215" lon="0.25847">
        <ele>1359</ele>
        <time>2021-12-12T10:16:54.086Z</time>
      </trkpt>
      <trkpt lat="42.93215" lon="0.25847">
        <ele>1359</ele>
        <time>2021-12-12T10:16:59.087Z</time>
      </trkpt>
      <trkpt lat="42.93215" lon="0.25847">
        <ele>1359</ele>
        <time>2021-12-12T10:17:04.084Z</time>
      </trkpt>
      <trkpt lat="42.93217" lon="0.25845">
        <ele>1359</ele>
        <time>2021-12-12T10:17:09.088Z</time>
      </trkpt>
      <trkpt lat="42.93218" lon="0.25844">
        <ele>1359</ele>
        <time>2021-12-12T10:17:14.087Z</time>
      </trkpt>
      <trkpt lat="42.93218" lon="0.25844">
        <ele>1359</ele>
        <time>2021-12-12T10:17:23.115Z</time>
      </trkpt>
      <trkpt lat="42.93218" lon="0.25843">
        <ele>1359</ele>
        <time>2021-12-12T10:17:28.089Z</time>
      </trkpt>
      <trkpt lat="42.93215" lon="0.25843">
        <ele>1359</ele>
        <time>2021-12-12T10:17:33.095Z</time>
      </trkpt>
      <trkpt lat="42.9321" lon="0.25843">
        <ele>1359</ele>
        <time>2021-12-12T10:17:38.087Z</time>
      </trkpt>
      <trkpt lat="42.93207" lon="0.25844">
        <ele>1358</ele>
        <time>2021-12-12T10:17:43.090Z</time>
      </trkpt>
      <trkpt lat="42.93207" lon="0.25836">
        <ele>1358</ele>
        <time>2021-12-12T10:17:57.091Z</time>
      </trkpt>
      <trkpt lat="42.9321" lon="0.25835">
        <ele>1359</ele>
        <time>2021-12-12T10:18:02.087Z</time>
      </trkpt>
      <trkpt lat="42.93211" lon="0.25834">
        <ele>1359</ele>
        <time>2021-12-12T10:18:07.083Z</time>
      </trkpt>
      <trkpt lat="42.93211" lon="0.25834">
        <ele>1359</ele>
        <time>2021-12-12T10:18:12.086Z</time>
      </trkpt>
      <trkpt lat="42.93212" lon="0.25832">
        <ele>1359</ele>
        <time>2021-12-12T10:18:17.089Z</time>
      </trkpt>
      <trkpt lat="42.93212" lon="0.25832">
        <ele>1359</ele>
        <time>2021-12-12T10:18:27.089Z</time>
      </trkpt>
      <trkpt lat="42.93213" lon="0.25832">
        <ele>1359</ele>
        <time>2021-12-12T10:18:32.085Z</time>
      </trkpt>
      <trkpt lat="42.93217" lon="0.2583">
        <ele>1359</ele>
        <time>2021-12-12T10:18:37.087Z</time>
      </trkpt>
      <trkpt lat="42.93219" lon="0.25827">
        <ele>1359</ele>
        <time>2021-12-12T10:18:42.088Z</time>
      </trkpt>
      <trkpt lat="42.93221" lon="0.25825">
        <ele>1359</ele>
        <time>2021-12-12T10:18:47.090Z</time>
      </trkpt>
      <trkpt lat="42.93227" lon="0.25818">
        <ele>1367</ele>
        <time>2021-12-12T10:19:06.084Z</time>
      </trkpt>
      <trkpt lat="42.93228" lon="0.25819">
        <ele>1367</ele>
        <time>2021-12-12T10:19:11.088Z</time>
      </trkpt>
      <trkpt lat="42.93229" lon="0.25821">
        <ele>1359</ele>
        <time>2021-12-12T10:19:15.085Z</time>
      </trkpt>
      <trkpt lat="42.93231" lon="0.25823">
        <ele>1359</ele>
        <time>2021-12-12T10:19:20.085Z</time>
      </trkpt>
      <trkpt lat="42.93232" lon="0.25823">
        <ele>1359</ele>
        <time>2021-12-12T10:19:25.089Z</time>
      </trkpt>
      <trkpt lat="42.93232" lon="0.25822">
        <ele>1359</ele>
        <time>2021-12-12T10:19:45.116Z</time>
      </trkpt>
      <trkpt lat="42.93234" lon="0.25823">
        <ele>1359</ele>
        <time>2021-12-12T10:19:50.091Z</time>
      </trkpt>
      <trkpt lat="42.93237" lon="0.25825">
        <ele>1360</ele>
        <time>2021-12-12T10:19:55.087Z</time>
      </trkpt>
      <trkpt lat="42.93241" lon="0.25825">
        <ele>1360</ele>
        <time>2021-12-12T10:20:00.085Z</time>
      </trkpt>
      <trkpt lat="42.93244" lon="0.25825">
        <ele>1360</ele>
        <time>2021-12-12T10:20:04.087Z</time>
      </trkpt>
      <trkpt lat="42.93254" lon="0.25824">
        <ele>1360</ele>
        <time>2021-12-12T10:20:55.083Z</time>
      </trkpt>
      <trkpt lat="42.93255" lon="0.25822">
        <ele>1360</ele>
        <time>2021-12-12T10:21:00.086Z</time>
      </trkpt>
      <trkpt lat="42.93256" lon="0.25819">
        <ele>1365</ele>
        <time>2021-12-12T10:21:05.086Z</time>
      </trkpt>
      <trkpt lat="42.93258" lon="0.25816">
        <ele>1365</ele>
        <time>2021-12-12T10:21:10.091Z</time>
      </trkpt>
      <trkpt lat="42.93259" lon="0.25813">
        <ele>1365</ele>
        <time>2021-12-12T10:21:15.082Z</time>
      </trkpt>
      <trkpt lat="42.93261" lon="0.2581">
        <ele>1365</ele>
        <time>2021-12-12T10:21:19.114Z</time>
      </trkpt>
      <trkpt lat="42.93262" lon="0.25805">
        <ele>1365</ele>
        <time>2021-12-12T10:21:24.082Z</time>
      </trkpt>
      <trkpt lat="42.93265" lon="0.25801">
        <ele>1366</ele>
        <time>2021-12-12T10:21:29.088Z</time>
      </trkpt>
      <trkpt lat="42.93265" lon="0.25797">
        <ele>1366</ele>
        <time>2021-12-12T10:21:34.087Z</time>
      </trkpt>
      <trkpt lat="42.9326" lon="0.25792">
        <ele>1370</ele>
        <time>2021-12-12T10:22:01.086Z</time>
      </trkpt>
      <trkpt lat="42.93264" lon="0.25789">
        <ele>1366</ele>
        <time>2021-12-12T10:22:06.091Z</time>
      </trkpt>
      <trkpt lat="42.93264" lon="0.25787">
        <ele>1370</ele>
        <time>2021-12-12T10:22:11.088Z</time>
      </trkpt>
      <trkpt lat="42.93265" lon="0.25784">
        <ele>1366</ele>
        <time>2021-12-12T10:22:16.084Z</time>
      </trkpt>
      <trkpt lat="42.93266" lon="0.2578">
        <ele>1366</ele>
        <time>2021-12-12T10:22:21.098Z</time>
      </trkpt>
      <trkpt lat="42.9327" lon="0.25774">
        <ele>1366</ele>
        <time>2021-12-12T10:22:51.088Z</time>
      </trkpt>
      <trkpt lat="42.93272" lon="0.25772">
        <ele>1366</ele>
        <time>2021-12-12T10:22:56.086Z</time>
      </trkpt>
      <trkpt lat="42.93272" lon="0.25769">
        <ele>1366</ele>
        <time>2021-12-12T10:23:01.089Z</time>
      </trkpt>
      <trkpt lat="42.93273" lon="0.25764">
        <ele>1366</ele>
        <time>2021-12-12T10:23:05.113Z</time>
      </trkpt>
      <trkpt lat="42.93275" lon="0.2576">
        <ele>1363</ele>
        <time>2021-12-12T10:23:10.092Z</time>
      </trkpt>
      <trkpt lat="42.93273" lon="0.25761">
        <ele>1363</ele>
        <time>2021-12-12T10:29:02.118Z</time>
      </trkpt>
      <trkpt lat="42.93271" lon="0.25762">
        <ele>1363</ele>
        <time>2021-12-12T10:29:06.118Z</time>
      </trkpt>
      <trkpt lat="42.93269" lon="0.25763">
        <ele>1363</ele>
        <time>2021-12-12T10:29:11.119Z</time>
      </trkpt>
      <trkpt lat="42.93267" lon="0.25765">
        <ele>1366</ele>
        <time>2021-12-12T10:29:16.075Z</time>
      </trkpt>
      <trkpt lat="42.93266" lon="0.25766">
        <ele>1366</ele>
        <time>2021-12-12T10:29:20.144Z</time>
      </trkpt>
      <trkpt lat="42.93262" lon="0.25764">
        <ele>1370</ele>
        <time>2021-12-12T10:29:30.152Z</time>
      </trkpt>
      <trkpt lat="42.93261" lon="0.25763">
        <ele>1367</ele>
        <time>2021-12-12T10:29:35.086Z</time>
      </trkpt>
      <trkpt lat="42.93259" lon="0.25764">
        <ele>1367</ele>
        <time>2021-12-12T10:29:40.089Z</time>
      </trkpt>
      <trkpt lat="42.93257" lon="0.25765">
        <ele>1370</ele>
        <time>2021-12-12T10:29:45.092Z</time>
      </trkpt>
      <trkpt lat="42.93254" lon="0.25764">
        <ele>1367</ele>
        <time>2021-12-12T10:29:50.118Z</time>
      </trkpt>
      <trkpt lat="42.93252" lon="0.25762">
        <ele>1367</ele>
        <time>2021-12-12T10:29:55.121Z</time>
      </trkpt>
      <trkpt lat="42.93251" lon="0.25759">
        <ele>1367</ele>
        <time>2021-12-12T10:29:59.190Z</time>
      </trkpt>
      <trkpt lat="42.93249" lon="0.25757">
        <ele>1367</ele>
        <time>2021-12-12T10:30:04.117Z</time>
      </trkpt>
      <trkpt lat="42.93247" lon="0.25754">
        <ele>1367</ele>
        <time>2021-12-12T10:30:08.121Z</time>
      </trkpt>
      <trkpt lat="42.93246" lon="0.25752">
        <ele>1367</ele>
        <time>2021-12-12T10:30:12.188Z</time>
      </trkpt>
      <trkpt lat="42.93244" lon="0.25749">
        <ele>1367</ele>
        <time>2021-12-12T10:30:17.090Z</time>
      </trkpt>
      <trkpt lat="42.93241" lon="0.25744">
        <ele>1367</ele>
        <time>2021-12-12T10:30:22.090Z</time>
      </trkpt>
      <trkpt lat="42.93239" lon="0.2574">
        <ele>1367</ele>
        <time>2021-12-12T10:30:27.135Z</time>
      </trkpt>
      <trkpt lat="42.93237" lon="0.25735">
        <ele>1364</ele>
        <time>2021-12-12T10:30:32.085Z</time>
      </trkpt>
      <trkpt lat="42.93234" lon="0.25731">
        <ele>1371</ele>
        <time>2021-12-12T10:30:36.122Z</time>
      </trkpt>
      <trkpt lat="42.93229" lon="0.25726">
        <ele>1371</ele>
        <time>2021-12-12T10:30:41.125Z</time>
      </trkpt>
      <trkpt lat="42.93225" lon="0.25725">
        <ele>1371</ele>
        <time>2021-12-12T10:30:46.122Z</time>
      </trkpt>
      <trkpt lat="42.93223" lon="0.25725">
        <ele>1371</ele>
        <time>2021-12-12T10:30:51.121Z</time>
      </trkpt>
      <trkpt lat="42.9322" lon="0.25725">
        <ele>1371</ele>
        <time>2021-12-12T10:30:56.097Z</time>
      </trkpt>
      <trkpt lat="42.93217" lon="0.25724">
        <ele>1371</ele>
        <time>2021-12-12T10:31:01.088Z</time>
      </trkpt>
      <trkpt lat="42.93214" lon="0.25723">
        <ele>1371</ele>
        <time>2021-12-12T10:31:06.087Z</time>
      </trkpt>
      <trkpt lat="42.93211" lon="0.25722">
        <ele>1371</ele>
        <time>2021-12-12T10:31:10.088Z</time>
      </trkpt>
      <trkpt lat="42.93209" lon="0.2572">
        <ele>1371</ele>
        <time>2021-12-12T10:31:14.120Z</time>
      </trkpt>
      <trkpt lat="42.93205" lon="0.25718">
        <ele>1379</ele>
        <time>2021-12-12T10:31:19.088Z</time>
      </trkpt>
      <trkpt lat="42.932" lon="0.25718">
        <ele>1379</ele>
        <time>2021-12-12T10:31:24.086Z</time>
      </trkpt>
      <trkpt lat="42.93195" lon="0.25717">
        <ele>1379</ele>
        <time>2021-12-12T10:31:29.087Z</time>
      </trkpt>
      <trkpt lat="42.93191" lon="0.25717">
        <ele>1379</ele>
        <time>2021-12-12T10:31:34.086Z</time>
      </trkpt>
      <trkpt lat="42.93189" lon="0.25715">
        <ele>1379</ele>
        <time>2021-12-12T10:31:39.088Z</time>
      </trkpt>
      <trkpt lat="42.93185" lon="0.25715">
        <ele>1379</ele>
        <time>2021-12-12T10:31:44.092Z</time>
      </trkpt>
      <trkpt lat="42.9318" lon="0.25714">
        <ele>1384</ele>
        <time>2021-12-12T10:31:49.090Z</time>
      </trkpt>
      <trkpt lat="42.93176" lon="0.25713">
        <ele>1384</ele>
        <time>2021-12-12T10:31:54.088Z</time>
      </trkpt>
      <trkpt lat="42.93172" lon="0.25712">
        <ele>1384</ele>
        <time>2021-12-12T10:31:59.091Z</time>
      </trkpt>
      <trkpt lat="42.93167" lon="0.25709">
        <ele>1384</ele>
        <time>2021-12-12T10:32:04.089Z</time>
      </trkpt>
      <trkpt lat="42.93164" lon="0.25707">
        <ele>1383</ele>
        <time>2021-12-12T10:32:09.089Z</time>
      </trkpt>
      <trkpt lat="42.9316" lon="0.25704">
        <ele>1383</ele>
        <time>2021-12-12T10:32:14.088Z</time>
      </trkpt>
      <trkpt lat="42.93158" lon="0.25702">
        <ele>1383</ele>
        <time>2021-12-12T10:32:18.084Z</time>
      </trkpt>
      <trkpt lat="42.93154" lon="0.25699">
        <ele>1383</ele>
        <time>2021-12-12T10:32:23.089Z</time>
      </trkpt>
      <trkpt lat="42.9315" lon="0.25696">
        <ele>1388</ele>
        <time>2021-12-12T10:32:28.088Z</time>
      </trkpt>
      <trkpt lat="42.93145" lon="0.25693">
        <ele>1388</ele>
        <time>2021-12-12T10:32:33.088Z</time>
      </trkpt>
      <trkpt lat="42.93141" lon="0.25691">
        <ele>1388</ele>
        <time>2021-12-12T10:32:38.093Z</time>
      </trkpt>
      <trkpt lat="42.93137" lon="0.2569">
        <ele>1388</ele>
        <time>2021-12-12T10:32:42.092Z</time>
      </trkpt>
      <trkpt lat="42.93134" lon="0.25692">
        <ele>1388</ele>
        <time>2021-12-12T10:32:47.092Z</time>
      </trkpt>
      <trkpt lat="42.93126" lon="0.25695">
        <ele>1388</ele>
        <time>2021-12-12T10:33:01.095Z</time>
      </trkpt>
      <trkpt lat="42.93125" lon="0.25691">
        <ele>1397</ele>
        <time>2021-12-12T10:33:06.089Z</time>
      </trkpt>
      <trkpt lat="42.93125" lon="0.25686">
        <ele>1388</ele>
        <time>2021-12-12T10:33:11.089Z</time>
      </trkpt>
      <trkpt lat="42.93126" lon="0.25683">
        <ele>1388</ele>
        <time>2021-12-12T10:33:15.086Z</time>
      </trkpt>
      <trkpt lat="42.93126" lon="0.25681">
        <ele>1388</ele>
        <time>2021-12-12T10:33:19.087Z</time>
      </trkpt>
      <trkpt lat="42.93124" lon="0.25679">
        <ele>1394</ele>
        <time>2021-12-12T10:33:28.089Z</time>
      </trkpt>
      <trkpt lat="42.93123" lon="0.25677">
        <ele>1394</ele>
        <time>2021-12-12T10:33:33.115Z</time>
      </trkpt>
      <trkpt lat="42.93121" lon="0.25676">
        <ele>1394</ele>
        <time>2021-12-12T10:33:38.088Z</time>
      </trkpt>
      <trkpt lat="42.93119" lon="0.25675">
        <ele>1394</ele>
        <time>2021-12-12T10:33:42.099Z</time>
      </trkpt>
      <trkpt lat="42.93117" lon="0.25673">
        <ele>1394</ele>
        <time>2021-12-12T10:33:47.091Z</time>
      </trkpt>
      <trkpt lat="42.93108" lon="0.25668">
        <ele>1394</ele>
        <time>2021-12-12T10:34:12.093Z</time>
      </trkpt>
      <trkpt lat="42.93104" lon="0.25666">
        <ele>1394</ele>
        <time>2021-12-12T10:34:17.124Z</time>
      </trkpt>
      <trkpt lat="42.93104" lon="0.25664">
        <ele>1394</ele>
        <time>2021-12-12T10:34:22.118Z</time>
      </trkpt>
      <trkpt lat="42.93103" lon="0.25664">
        <ele>1394</ele>
        <time>2021-12-12T10:34:27.095Z</time>
      </trkpt>
      <trkpt lat="42.93102" lon="0.25664">
        <ele>1394</ele>
        <time>2021-12-12T10:34:32.089Z</time>
      </trkpt>
      <trkpt lat="42.93099" lon="0.25664">
        <ele>1394</ele>
        <time>2021-12-12T10:34:37.127Z</time>
      </trkpt>
      <trkpt lat="42.93097" lon="0.25662">
        <ele>1401</ele>
        <time>2021-12-12T10:34:42.126Z</time>
      </trkpt>
      <trkpt lat="42.93093" lon="0.25665">
        <ele>1401</ele>
        <time>2021-12-12T10:34:46.125Z</time>
      </trkpt>
      <trkpt lat="42.93091" lon="0.25671">
        <ele>1401</ele>
        <time>2021-12-12T10:34:51.120Z</time>
      </trkpt>
      <trkpt lat="42.9309" lon="0.25676">
        <ele>1401</ele>
        <time>2021-12-12T10:34:56.087Z</time>
      </trkpt>
      <trkpt lat="42.93088" lon="0.2568">
        <ele>1401</ele>
        <time>2021-12-12T10:35:01.087Z</time>
      </trkpt>
      <trkpt lat="42.93087" lon="0.25683">
        <ele>1403</ele>
        <time>2021-12-12T10:35:05.084Z</time>
      </trkpt>
      <trkpt lat="42.93085" lon="0.25685">
        <ele>1403</ele>
        <time>2021-12-12T10:35:10.087Z</time>
      </trkpt>
      <trkpt lat="42.93082" lon="0.25684">
        <ele>1403</ele>
        <time>2021-12-12T10:35:15.086Z</time>
      </trkpt>
      <trkpt lat="42.9308" lon="0.25681">
        <ele>1403</ele>
        <time>2021-12-12T10:35:20.089Z</time>
      </trkpt>
      <trkpt lat="42.93079" lon="0.25679">
        <ele>1401</ele>
        <time>2021-12-12T10:35:25.088Z</time>
      </trkpt>
      <trkpt lat="42.93076" lon="0.25677">
        <ele>1401</ele>
        <time>2021-12-12T10:35:30.087Z</time>
      </trkpt>
      <trkpt lat="42.93073" lon="0.25677">
        <ele>1401</ele>
        <time>2021-12-12T10:35:34.117Z</time>
      </trkpt>
      <trkpt lat="42.93071" lon="0.25676">
        <ele>1401</ele>
        <time>2021-12-12T10:35:39.091Z</time>
      </trkpt>
      <trkpt lat="42.9307" lon="0.25676">
        <ele>1401</ele>
        <time>2021-12-12T10:35:49.086Z</time>
      </trkpt>
      <trkpt lat="42.9307" lon="0.25675">
        <ele>1401</ele>
        <time>2021-12-12T10:35:53.090Z</time>
      </trkpt>
      <trkpt lat="42.93066" lon="0.25675">
        <ele>1405</ele>
        <time>2021-12-12T10:35:58.102Z</time>
      </trkpt>
      <trkpt lat="42.93063" lon="0.25679">
        <ele>1405</ele>
        <time>2021-12-12T10:36:03.090Z</time>
      </trkpt>
      <trkpt lat="42.93061" lon="0.25683">
        <ele>1410</ele>
        <time>2021-12-12T10:36:08.094Z</time>
      </trkpt>
      <trkpt lat="42.93058" lon="0.25686">
        <ele>1410</ele>
        <time>2021-12-12T10:36:13.093Z</time>
      </trkpt>
      <trkpt lat="42.93056" lon="0.25688">
        <ele>1410</ele>
        <time>2021-12-12T10:36:18.087Z</time>
      </trkpt>
      <trkpt lat="42.93053" lon="0.25689">
        <ele>1410</ele>
        <time>2021-12-12T10:36:22.119Z</time>
      </trkpt>
      <trkpt lat="42.9305" lon="0.25692">
        <ele>1410</ele>
        <time>2021-12-12T10:36:27.089Z</time>
      </trkpt>
      <trkpt lat="42.93048" lon="0.25696">
        <ele>1410</ele>
        <time>2021-12-12T10:36:32.090Z</time>
      </trkpt>
      <trkpt lat="42.9304" lon="0.25696">
        <ele>1415</ele>
        <time>2021-12-12T10:36:47.086Z</time>
      </trkpt>
      <trkpt lat="42.9304" lon="0.25693">
        <ele>1415</ele>
        <time>2021-12-12T10:36:52.091Z</time>
      </trkpt>
      <trkpt lat="42.93038" lon="0.2569">
        <ele>1415</ele>
        <time>2021-12-12T10:36:57.091Z</time>
      </trkpt>
      <trkpt lat="42.93037" lon="0.25686">
        <ele>1415</ele>
        <time>2021-12-12T10:37:02.090Z</time>
      </trkpt>
      <trkpt lat="42.93035" lon="0.25684">
        <ele>1415</ele>
        <time>2021-12-12T10:37:07.119Z</time>
      </trkpt>
      <trkpt lat="42.93033" lon="0.25682">
        <ele>1415</ele>
        <time>2021-12-12T10:37:12.091Z</time>
      </trkpt>
      <trkpt lat="42.93031" lon="0.25679">
        <ele>1412</ele>
        <time>2021-12-12T10:37:17.090Z</time>
      </trkpt>
      <trkpt lat="42.93029" lon="0.25676">
        <ele>1412</ele>
        <time>2021-12-12T10:37:21.122Z</time>
      </trkpt>
      <trkpt lat="42.93027" lon="0.25672">
        <ele>1412</ele>
        <time>2021-12-12T10:37:26.121Z</time>
      </trkpt>
      <trkpt lat="42.93024" lon="0.25669">
        <ele>1412</ele>
        <time>2021-12-12T10:37:30.122Z</time>
      </trkpt>
      <trkpt lat="42.93021" lon="0.2567">
        <ele>1412</ele>
        <time>2021-12-12T10:37:35.091Z</time>
      </trkpt>
      <trkpt lat="42.93021" lon="0.25671">
        <ele>1412</ele>
        <time>2021-12-12T10:37:40.091Z</time>
      </trkpt>
      <trkpt lat="42.93019" lon="0.25674">
        <ele>1412</ele>
        <time>2021-12-12T10:37:44.089Z</time>
      </trkpt>
      <trkpt lat="42.93017" lon="0.25678">
        <ele>1412</ele>
        <time>2021-12-12T10:37:49.128Z</time>
      </trkpt>
      <trkpt lat="42.93013" lon="0.25685">
        <ele>1421</ele>
        <time>2021-12-12T10:37:59.147Z</time>
      </trkpt>
      <trkpt lat="42.93012" lon="0.25688">
        <ele>1421</ele>
        <time>2021-12-12T10:38:04.147Z</time>
      </trkpt>
      <trkpt lat="42.93012" lon="0.2569">
        <ele>1421</ele>
        <time>2021-12-12T10:38:09.121Z</time>
      </trkpt>
      <trkpt lat="42.93011" lon="0.25691">
        <ele>1421</ele>
        <time>2021-12-12T10:38:14.124Z</time>
      </trkpt>
      <trkpt lat="42.93009" lon="0.25694">
        <ele>1421</ele>
        <time>2021-12-12T10:38:19.094Z</time>
      </trkpt>
      <trkpt lat="42.93001" lon="0.25703">
        <ele>1421</ele>
        <time>2021-12-12T10:38:42.087Z</time>
      </trkpt>
      <trkpt lat="42.93001" lon="0.25703">
        <ele>1421</ele>
        <time>2021-12-12T10:38:46.118Z</time>
      </trkpt>
      <trkpt lat="42.93001" lon="0.25703">
        <ele>1421</ele>
        <time>2021-12-12T10:38:51.120Z</time>
      </trkpt>
      <trkpt lat="42.92999" lon="0.25705">
        <ele>1421</ele>
        <time>2021-12-12T10:38:56.090Z</time>
      </trkpt>
      <trkpt lat="42.92998" lon="0.25707">
        <ele>1421</ele>
        <time>2021-12-12T10:39:00.127Z</time>
      </trkpt>
      <trkpt lat="42.92996" lon="0.25708">
        <ele>1421</ele>
        <time>2021-12-12T10:39:04.146Z</time>
      </trkpt>
      <trkpt lat="42.92992" lon="0.25711">
        <ele>1420</ele>
        <time>2021-12-12T10:39:09.121Z</time>
      </trkpt>
      <trkpt lat="42.92988" lon="0.25714">
        <ele>1420</ele>
        <time>2021-12-12T10:39:14.190Z</time>
      </trkpt>
      <trkpt lat="42.92984" lon="0.25715">
        <ele>1427</ele>
        <time>2021-12-12T10:39:19.119Z</time>
      </trkpt>
      <trkpt lat="42.92983" lon="0.25715">
        <ele>1427</ele>
        <time>2021-12-12T10:39:23.118Z</time>
      </trkpt>
      <trkpt lat="42.9298" lon="0.25718">
        <ele>1427</ele>
        <time>2021-12-12T10:39:28.145Z</time>
      </trkpt>
      <trkpt lat="42.92978" lon="0.25719">
        <ele>1427</ele>
        <time>2021-12-12T10:39:33.131Z</time>
      </trkpt>
      <trkpt lat="42.92975" lon="0.25721">
        <ele>1427</ele>
        <time>2021-12-12T10:39:38.127Z</time>
      </trkpt>
      <trkpt lat="42.92972" lon="0.25721">
        <ele>1427</ele>
        <time>2021-12-12T10:39:43.119Z</time>
      </trkpt>
      <trkpt lat="42.92972" lon="0.25721">
        <ele>1427</ele>
        <time>2021-12-12T10:40:07.117Z</time>
      </trkpt>
      <trkpt lat="42.92972" lon="0.25719">
        <ele>1427</ele>
        <time>2021-12-12T10:40:12.104Z</time>
      </trkpt>
      <trkpt lat="42.92973" lon="0.25716">
        <ele>1427</ele>
        <time>2021-12-12T10:40:17.097Z</time>
      </trkpt>
      <trkpt lat="42.92972" lon="0.25712">
        <ele>1427</ele>
        <time>2021-12-12T10:40:21.157Z</time>
      </trkpt>
      <trkpt lat="42.92972" lon="0.25707">
        <ele>1430</ele>
        <time>2021-12-12T10:40:26.127Z</time>
      </trkpt>
      <trkpt lat="42.92972" lon="0.25702">
        <ele>1430</ele>
        <time>2021-12-12T10:40:31.089Z</time>
      </trkpt>
      <trkpt lat="42.92972" lon="0.25698">
        <ele>1430</ele>
        <time>2021-12-12T10:40:35.107Z</time>
      </trkpt>
      <trkpt lat="42.92973" lon="0.25693">
        <ele>1430</ele>
        <time>2021-12-12T10:40:40.121Z</time>
      </trkpt>
      <trkpt lat="42.92972" lon="0.2569">
        <ele>1430</ele>
        <time>2021-12-12T10:40:44.175Z</time>
      </trkpt>
      <trkpt lat="42.92971" lon="0.25686">
        <ele>1430</ele>
        <time>2021-12-12T10:40:49.114Z</time>
      </trkpt>
      <trkpt lat="42.92971" lon="0.25682">
        <ele>1430</ele>
        <time>2021-12-12T10:40:54.130Z</time>
      </trkpt>
      <trkpt lat="42.92971" lon="0.25678">
        <ele>1433</ele>
        <time>2021-12-12T10:40:59.192Z</time>
      </trkpt>
      <trkpt lat="42.9297" lon="0.25674">
        <ele>1433</ele>
        <time>2021-12-12T10:41:04.087Z</time>
      </trkpt>
      <trkpt lat="42.9297" lon="0.25671">
        <ele>1433</ele>
        <time>2021-12-12T10:41:08.128Z</time>
      </trkpt>
      <trkpt lat="42.92969" lon="0.25665">
        <ele>1433</ele>
        <time>2021-12-12T10:41:13.090Z</time>
      </trkpt>
      <trkpt lat="42.92966" lon="0.25663">
        <ele>1433</ele>
        <time>2021-12-12T10:42:05.089Z</time>
      </trkpt>
      <trkpt lat="42.92964" lon="0.25666">
        <ele>1433</ele>
        <time>2021-12-12T10:42:10.087Z</time>
      </trkpt>
      <trkpt lat="42.92963" lon="0.25667">
        <ele>1433</ele>
        <time>2021-12-12T10:42:15.091Z</time>
      </trkpt>
      <trkpt lat="42.92961" lon="0.25671">
        <ele>1433</ele>
        <time>2021-12-12T10:42:20.122Z</time>
      </trkpt>
      <trkpt lat="42.92958" lon="0.25675">
        <ele>1445</ele>
        <time>2021-12-12T10:42:25.129Z</time>
      </trkpt>
      <trkpt lat="42.92955" lon="0.25677">
        <ele>1445</ele>
        <time>2021-12-12T10:42:30.117Z</time>
      </trkpt>
      <trkpt lat="42.92952" lon="0.25677">
        <ele>1445</ele>
        <time>2021-12-12T10:42:35.091Z</time>
      </trkpt>
      <trkpt lat="42.9295" lon="0.25679">
        <ele>1445</ele>
        <time>2021-12-12T10:42:40.087Z</time>
      </trkpt>
      <trkpt lat="42.92949" lon="0.25682">
        <ele>1443</ele>
        <time>2021-12-12T10:42:45.088Z</time>
      </trkpt>
      <trkpt lat="42.92947" lon="0.25685">
        <ele>1443</ele>
        <time>2021-12-12T10:42:50.189Z</time>
      </trkpt>
      <trkpt lat="42.92947" lon="0.25687">
        <ele>1443</ele>
        <time>2021-12-12T10:43:23.121Z</time>
      </trkpt>
      <trkpt lat="42.92945" lon="0.25687">
        <ele>1443</ele>
        <time>2021-12-12T10:43:28.122Z</time>
      </trkpt>
      <trkpt lat="42.92942" lon="0.2569">
        <ele>1443</ele>
        <time>2021-12-12T10:43:33.091Z</time>
      </trkpt>
      <trkpt lat="42.92939" lon="0.25692">
        <ele>1443</ele>
        <time>2021-12-12T10:43:38.091Z</time>
      </trkpt>
      <trkpt lat="42.92936" lon="0.25694">
        <ele>1443</ele>
        <time>2021-12-12T10:43:43.146Z</time>
      </trkpt>
      <trkpt lat="42.92935" lon="0.25687">
        <ele>1443</ele>
        <time>2021-12-12T10:43:58.087Z</time>
      </trkpt>
      <trkpt lat="42.92935" lon="0.25687">
        <ele>1443</ele>
        <time>2021-12-12T10:44:02.085Z</time>
      </trkpt>
      <trkpt lat="42.92934" lon="0.25687">
        <ele>1443</ele>
        <time>2021-12-12T10:44:07.080Z</time>
      </trkpt>
      <trkpt lat="42.92934" lon="0.25686">
        <ele>1443</ele>
        <time>2021-12-12T10:44:12.095Z</time>
      </trkpt>
      <trkpt lat="42.92935" lon="0.25681">
        <ele>1443</ele>
        <time>2021-12-12T10:44:16.124Z</time>
      </trkpt>
      <trkpt lat="42.92935" lon="0.25677">
        <ele>1445</ele>
        <time>2021-12-12T10:44:21.121Z</time>
      </trkpt>
      <trkpt lat="42.92934" lon="0.25673">
        <ele>1445</ele>
        <time>2021-12-12T10:44:26.087Z</time>
      </trkpt>
      <trkpt lat="42.92935" lon="0.25668">
        <ele>1445</ele>
        <time>2021-12-12T10:44:31.089Z</time>
      </trkpt>
      <trkpt lat="42.92935" lon="0.25666">
        <ele>1445</ele>
        <time>2021-12-12T10:44:35.120Z</time>
      </trkpt>
      <trkpt lat="42.92935" lon="0.25662">
        <ele>1445</ele>
        <time>2021-12-12T10:44:40.118Z</time>
      </trkpt>
      <trkpt lat="42.92936" lon="0.25659">
        <ele>1445</ele>
        <time>2021-12-12T10:45:09.089Z</time>
      </trkpt>
      <trkpt lat="42.92936" lon="0.25654">
        <ele>1445</ele>
        <time>2021-12-12T10:45:14.085Z</time>
      </trkpt>
      <trkpt lat="42.92936" lon="0.25652">
        <ele>1448</ele>
        <time>2021-12-12T10:45:19.085Z</time>
      </trkpt>
      <trkpt lat="42.92935" lon="0.25648">
        <ele>1448</ele>
        <time>2021-12-12T10:45:24.090Z</time>
      </trkpt>
      <trkpt lat="42.92934" lon="0.25645">
        <ele>1448</ele>
        <time>2021-12-12T10:45:29.089Z</time>
      </trkpt>
      <trkpt lat="42.92932" lon="0.25637">
        <ele>1448</ele>
        <time>2021-12-12T10:45:39.091Z</time>
      </trkpt>
      <trkpt lat="42.92932" lon="0.25634">
        <ele>1448</ele>
        <time>2021-12-12T10:45:43.087Z</time>
      </trkpt>
      <trkpt lat="42.92931" lon="0.25632">
        <ele>1448</ele>
        <time>2021-12-12T10:45:48.088Z</time>
      </trkpt>
      <trkpt lat="42.9293" lon="0.25629">
        <ele>1463</ele>
        <time>2021-12-12T10:45:53.090Z</time>
      </trkpt>
      <trkpt lat="42.92929" lon="0.25626">
        <ele>1463</ele>
        <time>2021-12-12T10:45:58.089Z</time>
      </trkpt>
      <trkpt lat="42.92924" lon="0.25622">
        <ele>1464</ele>
        <time>2021-12-12T10:46:41.087Z</time>
      </trkpt>
      <trkpt lat="42.92924" lon="0.25622">
        <ele>1464</ele>
        <time>2021-12-12T10:46:46.088Z</time>
      </trkpt>
      <trkpt lat="42.92922" lon="0.25625">
        <ele>1463</ele>
        <time>2021-12-12T10:46:51.090Z</time>
      </trkpt>
      <trkpt lat="42.92922" lon="0.25629">
        <ele>1463</ele>
        <time>2021-12-12T10:46:56.090Z</time>
      </trkpt>
      <trkpt lat="42.9292" lon="0.25632">
        <ele>1463</ele>
        <time>2021-12-12T10:47:01.091Z</time>
      </trkpt>
      <trkpt lat="42.92917" lon="0.25638">
        <ele>1463</ele>
        <time>2021-12-12T10:47:25.089Z</time>
      </trkpt>
      <trkpt lat="42.92916" lon="0.25639">
        <ele>1463</ele>
        <time>2021-12-12T10:47:29.122Z</time>
      </trkpt>
      <trkpt lat="42.92914" lon="0.25643">
        <ele>1463</ele>
        <time>2021-12-12T10:47:34.091Z</time>
      </trkpt>
      <trkpt lat="42.92912" lon="0.25647">
        <ele>1463</ele>
        <time>2021-12-12T10:47:39.092Z</time>
      </trkpt>
      <trkpt lat="42.9291" lon="0.2565">
        <ele>1463</ele>
        <time>2021-12-12T10:47:44.094Z</time>
      </trkpt>
      <trkpt lat="42.92904" lon="0.25658">
        <ele>1461</ele>
        <time>2021-12-12T10:48:23.113Z</time>
      </trkpt>
      <trkpt lat="42.92902" lon="0.25661">
        <ele>1473</ele>
        <time>2021-12-12T10:48:28.089Z</time>
      </trkpt>
      <trkpt lat="42.929" lon="0.25664">
        <ele>1473</ele>
        <time>2021-12-12T10:48:33.092Z</time>
      </trkpt>
      <trkpt lat="42.92898" lon="0.25666">
        <ele>1473</ele>
        <time>2021-12-12T10:48:38.094Z</time>
      </trkpt>
      <trkpt lat="42.92895" lon="0.25667">
        <ele>1473</ele>
        <time>2021-12-12T10:48:42.093Z</time>
      </trkpt>
      <trkpt lat="42.92891" lon="0.25659">
        <ele>1473</ele>
        <time>2021-12-12T10:49:01.084Z</time>
      </trkpt>
      <trkpt lat="42.92891" lon="0.25659">
        <ele>1473</ele>
        <time>2021-12-12T10:49:06.084Z</time>
      </trkpt>
      <trkpt lat="42.92891" lon="0.25656">
        <ele>1473</ele>
        <time>2021-12-12T10:49:10.087Z</time>
      </trkpt>
      <trkpt lat="42.92891" lon="0.25651">
        <ele>1477</ele>
        <time>2021-12-12T10:49:15.092Z</time>
      </trkpt>
      <trkpt lat="42.92891" lon="0.25647">
        <ele>1477</ele>
        <time>2021-12-12T10:49:20.092Z</time>
      </trkpt>
      <trkpt lat="42.92891" lon="0.25633">
        <ele>1477</ele>
        <time>2021-12-12T10:49:53.091Z</time>
      </trkpt>
      <trkpt lat="42.92891" lon="0.25633">
        <ele>1477</ele>
        <time>2021-12-12T10:49:57.089Z</time>
      </trkpt>
      <trkpt lat="42.92891" lon="0.25633">
        <ele>1477</ele>
        <time>2021-12-12T10:50:02.089Z</time>
      </trkpt>
      <trkpt lat="42.92891" lon="0.25633">
        <ele>1477</ele>
        <time>2021-12-12T10:50:07.091Z</time>
      </trkpt>
      <trkpt lat="42.92891" lon="0.25629">
        <ele>1477</ele>
        <time>2021-12-12T10:50:12.085Z</time>
      </trkpt>
      <trkpt lat="42.92887" lon="0.25623">
        <ele>1479</ele>
        <time>2021-12-12T10:50:42.087Z</time>
      </trkpt>
      <trkpt lat="42.92885" lon="0.25628">
        <ele>1477</ele>
        <time>2021-12-12T10:50:47.086Z</time>
      </trkpt>
      <trkpt lat="42.92883" lon="0.25631">
        <ele>1477</ele>
        <time>2021-12-12T10:50:51.191Z</time>
      </trkpt>
      <trkpt lat="42.9288" lon="0.25636">
        <ele>1477</ele>
        <time>2021-12-12T10:50:56.119Z</time>
      </trkpt>
      <trkpt lat="42.92879" lon="0.25639">
        <ele>1477</ele>
        <time>2021-12-12T10:51:01.092Z</time>
      </trkpt>
      <trkpt lat="42.92872" lon="0.25644">
        <ele>1492</ele>
        <time>2021-12-12T10:51:57.118Z</time>
      </trkpt>
      <trkpt lat="42.92872" lon="0.25644">
        <ele>1492</ele>
        <time>2021-12-12T10:52:02.087Z</time>
      </trkpt>
      <trkpt lat="42.92872" lon="0.25643">
        <ele>1492</ele>
        <time>2021-12-12T10:52:07.086Z</time>
      </trkpt>
      <trkpt lat="42.92873" lon="0.25638">
        <ele>1492</ele>
        <time>2021-12-12T10:52:12.111Z</time>
      </trkpt>
      <trkpt lat="42.92872" lon="0.25629">
        <ele>1492</ele>
        <time>2021-12-12T10:52:17.092Z</time>
      </trkpt>
      <trkpt lat="42.92869" lon="0.25626">
        <ele>1492</ele>
        <time>2021-12-12T10:52:46.086Z</time>
      </trkpt>
      <trkpt lat="42.92869" lon="0.25628">
        <ele>1492</ele>
        <time>2021-12-12T10:52:51.094Z</time>
      </trkpt>
      <trkpt lat="42.92866" lon="0.25632">
        <ele>1492</ele>
        <time>2021-12-12T10:52:56.089Z</time>
      </trkpt>
      <trkpt lat="42.92863" lon="0.25635">
        <ele>1492</ele>
        <time>2021-12-12T10:53:01.089Z</time>
      </trkpt>
      <trkpt lat="42.92861" lon="0.25636">
        <ele>1492</ele>
        <time>2021-12-12T10:53:06.087Z</time>
      </trkpt>
      <trkpt lat="42.92857" lon="0.25637">
        <ele>1492</ele>
        <time>2021-12-12T10:53:40.089Z</time>
      </trkpt>
      <trkpt lat="42.92857" lon="0.25636">
        <ele>1492</ele>
        <time>2021-12-12T10:53:45.088Z</time>
      </trkpt>
      <trkpt lat="42.92858" lon="0.25632">
        <ele>1492</ele>
        <time>2021-12-12T10:53:50.087Z</time>
      </trkpt>
      <trkpt lat="42.92859" lon="0.25628">
        <ele>1492</ele>
        <time>2021-12-12T10:53:55.092Z</time>
      </trkpt>
      <trkpt lat="42.92859" lon="0.25624">
        <ele>1498</ele>
        <time>2021-12-12T10:54:00.089Z</time>
      </trkpt>
      <trkpt lat="42.92857" lon="0.25621">
        <ele>1498</ele>
        <time>2021-12-12T10:54:14.092Z</time>
      </trkpt>
      <trkpt lat="42.92857" lon="0.25621">
        <ele>1498</ele>
        <time>2021-12-12T10:54:19.089Z</time>
      </trkpt>
      <trkpt lat="42.92855" lon="0.25624">
        <ele>1498</ele>
        <time>2021-12-12T10:54:24.130Z</time>
      </trkpt>
      <trkpt lat="42.92853" lon="0.25627">
        <ele>1492</ele>
        <time>2021-12-12T10:54:29.091Z</time>
      </trkpt>
      <trkpt lat="42.9285" lon="0.2563">
        <ele>1492</ele>
        <time>2021-12-12T10:54:34.171Z</time>
      </trkpt>
      <trkpt lat="42.92848" lon="0.25635">
        <ele>1492</ele>
        <time>2021-12-12T10:54:58.089Z</time>
      </trkpt>
      <trkpt lat="42.92846" lon="0.25635">
        <ele>1504</ele>
        <time>2021-12-12T10:55:03.089Z</time>
      </trkpt>
      <trkpt lat="42.92843" lon="0.25633">
        <ele>1504</ele>
        <time>2021-12-12T10:55:08.086Z</time>
      </trkpt>
      <trkpt lat="42.9284" lon="0.25635">
        <ele>1504</ele>
        <time>2021-12-12T10:55:12.089Z</time>
      </trkpt>
      <trkpt lat="42.92838" lon="0.25634">
        <ele>1504</ele>
        <time>2021-12-12T10:55:17.089Z</time>
      </trkpt>
      <trkpt lat="42.9284" lon="0.25632">
        <ele>1504</ele>
        <time>2021-12-12T10:55:37.085Z</time>
      </trkpt>
      <trkpt lat="42.92841" lon="0.2563">
        <ele>1504</ele>
        <time>2021-12-12T10:55:42.088Z</time>
      </trkpt>
      <trkpt lat="42.92841" lon="0.25628">
        <ele>1504</ele>
        <time>2021-12-12T10:55:46.091Z</time>
      </trkpt>
      <trkpt lat="42.92843" lon="0.25624">
        <ele>1513</ele>
        <time>2021-12-12T10:55:51.090Z</time>
      </trkpt>
      <trkpt lat="42.92845" lon="0.25621">
        <ele>1513</ele>
        <time>2021-12-12T10:55:56.089Z</time>
      </trkpt>
      <trkpt lat="42.92844" lon="0.25621">
        <ele>1513</ele>
        <time>2021-12-12T10:56:28.088Z</time>
      </trkpt>
      <trkpt lat="42.92843" lon="0.25622">
        <ele>1513</ele>
        <time>2021-12-12T10:56:33.089Z</time>
      </trkpt>
      <trkpt lat="42.9284" lon="0.25623">
        <ele>1513</ele>
        <time>2021-12-12T10:56:38.090Z</time>
      </trkpt>
      <trkpt lat="42.92837" lon="0.25624">
        <ele>1513</ele>
        <time>2021-12-12T10:56:43.089Z</time>
      </trkpt>
      <trkpt lat="42.92836" lon="0.25627">
        <ele>1504</ele>
        <time>2021-12-12T10:56:47.122Z</time>
      </trkpt>
      <trkpt lat="42.92832" lon="0.2563">
        <ele>1504</ele>
        <time>2021-12-12T10:56:52.110Z</time>
      </trkpt>
      <trkpt lat="42.9283" lon="0.25632">
        <ele>1504</ele>
        <time>2021-12-12T10:56:57.091Z</time>
      </trkpt>
      <trkpt lat="42.92828" lon="0.25631">
        <ele>1504</ele>
        <time>2021-12-12T10:57:01.089Z</time>
      </trkpt>
      <trkpt lat="42.92825" lon="0.2563">
        <ele>1504</ele>
        <time>2021-12-12T10:57:06.154Z</time>
      </trkpt>
      <trkpt lat="42.92823" lon="0.25628">
        <ele>1504</ele>
        <time>2021-12-12T10:57:11.116Z</time>
      </trkpt>
      <trkpt lat="42.92824" lon="0.25624">
        <ele>1513</ele>
        <time>2021-12-12T10:57:36.089Z</time>
      </trkpt>
      <trkpt lat="42.92824" lon="0.25624">
        <ele>1513</ele>
        <time>2021-12-12T10:57:41.117Z</time>
      </trkpt>
      <trkpt lat="42.92826" lon="0.25622">
        <ele>1513</ele>
        <time>2021-12-12T10:57:46.091Z</time>
      </trkpt>
      <trkpt lat="42.92829" lon="0.25618">
        <ele>1513</ele>
        <time>2021-12-12T10:57:51.089Z</time>
      </trkpt>
      <trkpt lat="42.9283" lon="0.25614">
        <ele>1513</ele>
        <time>2021-12-12T10:57:56.089Z</time>
      </trkpt>
      <trkpt lat="42.92833" lon="0.25609">
        <ele>1513</ele>
        <time>2021-12-12T10:59:03.127Z</time>
      </trkpt>
      <trkpt lat="42.9283" lon="0.25609">
        <ele>1513</ele>
        <time>2021-12-12T10:59:08.192Z</time>
      </trkpt>
      <trkpt lat="42.92828" lon="0.25609">
        <ele>1513</ele>
        <time>2021-12-12T10:59:13.090Z</time>
      </trkpt>
      <trkpt lat="42.92825" lon="0.2561">
        <ele>1513</ele>
        <time>2021-12-12T10:59:17.120Z</time>
      </trkpt>
      <trkpt lat="42.92821" lon="0.2561">
        <ele>1513</ele>
        <time>2021-12-12T10:59:22.093Z</time>
      </trkpt>
      <trkpt lat="42.92816" lon="0.25606">
        <ele>1520</ele>
        <time>2021-12-12T11:00:05.091Z</time>
      </trkpt>
      <trkpt lat="42.92817" lon="0.25604">
        <ele>1520</ele>
        <time>2021-12-12T11:00:09.114Z</time>
      </trkpt>
      <trkpt lat="42.92819" lon="0.256">
        <ele>1520</ele>
        <time>2021-12-12T11:00:14.087Z</time>
      </trkpt>
      <trkpt lat="42.92818" lon="0.25595">
        <ele>1528</ele>
        <time>2021-12-12T11:00:19.093Z</time>
      </trkpt>
      <trkpt lat="42.92818" lon="0.25591">
        <ele>1528</ele>
        <time>2021-12-12T11:00:24.092Z</time>
      </trkpt>
      <trkpt lat="42.92812" lon="0.25582">
        <ele>1528</ele>
        <time>2021-12-12T11:05:50.119Z</time>
      </trkpt>
      <trkpt lat="42.92812" lon="0.25582">
        <ele>1528</ele>
        <time>2021-12-12T11:05:55.089Z</time>
      </trkpt>
      <trkpt lat="42.92812" lon="0.25582">
        <ele>1528</ele>
        <time>2021-12-12T11:05:59.090Z</time>
      </trkpt>
      <trkpt lat="42.92809" lon="0.2558">
        <ele>1528</ele>
        <time>2021-12-12T11:06:04.093Z</time>
      </trkpt>
      <trkpt lat="42.92807" lon="0.25581">
        <ele>1528</ele>
        <time>2021-12-12T11:06:08.115Z</time>
      </trkpt>
      <trkpt lat="42.92803" lon="0.25584">
        <ele>1528</ele>
        <time>2021-12-12T11:06:22.092Z</time>
      </trkpt>
      <trkpt lat="42.92802" lon="0.25585">
        <ele>1528</ele>
        <time>2021-12-12T11:06:26.149Z</time>
      </trkpt>
      <trkpt lat="42.928" lon="0.25586">
        <ele>1528</ele>
        <time>2021-12-12T11:06:31.090Z</time>
      </trkpt>
      <trkpt lat="42.92798" lon="0.25585">
        <ele>1528</ele>
        <time>2021-12-12T11:06:36.089Z</time>
      </trkpt>
      <trkpt lat="42.92797" lon="0.25583">
        <ele>1528</ele>
        <time>2021-12-12T11:06:40.092Z</time>
      </trkpt>
      <trkpt lat="42.92796" lon="0.25577">
        <ele>1528</ele>
        <time>2021-12-12T11:06:49.090Z</time>
      </trkpt>
      <trkpt lat="42.92796" lon="0.25574">
        <ele>1528</ele>
        <time>2021-12-12T11:06:54.089Z</time>
      </trkpt>
      <trkpt lat="42.92796" lon="0.25571">
        <ele>1528</ele>
        <time>2021-12-12T11:06:59.088Z</time>
      </trkpt>
      <trkpt lat="42.92795" lon="0.25569">
        <ele>1527</ele>
        <time>2021-12-12T11:07:04.094Z</time>
      </trkpt>
      <trkpt lat="42.92794" lon="0.25566">
        <ele>1527</ele>
        <time>2021-12-12T11:07:09.090Z</time>
      </trkpt>
      <trkpt lat="42.92791" lon="0.25561">
        <ele>1538</ele>
        <time>2021-12-12T11:07:19.088Z</time>
      </trkpt>
      <trkpt lat="42.92791" lon="0.2556">
        <ele>1538</ele>
        <time>2021-12-12T11:07:24.090Z</time>
      </trkpt>
      <trkpt lat="42.92789" lon="0.25559">
        <ele>1538</ele>
        <time>2021-12-12T11:07:28.094Z</time>
      </trkpt>
      <trkpt lat="42.92787" lon="0.25561">
        <ele>1538</ele>
        <time>2021-12-12T11:07:32.123Z</time>
      </trkpt>
      <trkpt lat="42.92784" lon="0.25563">
        <ele>1538</ele>
        <time>2021-12-12T11:07:37.119Z</time>
      </trkpt>
      <trkpt lat="42.92773" lon="0.25563">
        <ele>1538</ele>
        <time>2021-12-12T11:08:19.126Z</time>
      </trkpt>
      <trkpt lat="42.92774" lon="0.25559">
        <ele>1538</ele>
        <time>2021-12-12T11:08:24.088Z</time>
      </trkpt>
      <trkpt lat="42.92774" lon="0.25556">
        <ele>1538</ele>
        <time>2021-12-12T11:08:29.124Z</time>
      </trkpt>
      <trkpt lat="42.92774" lon="0.25553">
        <ele>1538</ele>
        <time>2021-12-12T11:08:34.117Z</time>
      </trkpt>
      <trkpt lat="42.92775" lon="0.2555">
        <ele>1538</ele>
        <time>2021-12-12T11:08:39.100Z</time>
      </trkpt>
      <trkpt lat="42.92766" lon="0.25547">
        <ele>1538</ele>
        <time>2021-12-12T11:13:17.089Z</time>
      </trkpt>
      <trkpt lat="42.92767" lon="0.25543">
        <ele>1538</ele>
        <time>2021-12-12T11:13:22.089Z</time>
      </trkpt>
      <trkpt lat="42.92766" lon="0.25539">
        <ele>1541</ele>
        <time>2021-12-12T11:13:27.089Z</time>
      </trkpt>
      <trkpt lat="42.92766" lon="0.25535">
        <ele>1541</ele>
        <time>2021-12-12T11:13:32.091Z</time>
      </trkpt>
      <trkpt lat="42.92767" lon="0.25533">
        <ele>1541</ele>
        <time>2021-12-12T11:13:36.088Z</time>
      </trkpt>
      <trkpt lat="42.92765" lon="0.25534">
        <ele>1541</ele>
        <time>2021-12-12T11:13:56.090Z</time>
      </trkpt>
      <trkpt lat="42.92763" lon="0.25535">
        <ele>1550</ele>
        <time>2021-12-12T11:14:01.092Z</time>
      </trkpt>
      <trkpt lat="42.92761" lon="0.25536">
        <ele>1550</ele>
        <time>2021-12-12T11:14:05.133Z</time>
      </trkpt>
      <trkpt lat="42.9276" lon="0.25537">
        <ele>1550</ele>
        <time>2021-12-12T11:14:09.088Z</time>
      </trkpt>
      <trkpt lat="42.92758" lon="0.25541">
        <ele>1550</ele>
        <time>2021-12-12T11:14:14.092Z</time>
      </trkpt>
      <trkpt lat="42.92756" lon="0.25544">
        <ele>1544</ele>
        <time>2021-12-12T11:14:44.095Z</time>
      </trkpt>
      <trkpt lat="42.92756" lon="0.2554">
        <ele>1550</ele>
        <time>2021-12-12T11:14:49.093Z</time>
      </trkpt>
      <trkpt lat="42.92757" lon="0.25537">
        <ele>1550</ele>
        <time>2021-12-12T11:14:54.090Z</time>
      </trkpt>
      <trkpt lat="42.92758" lon="0.25534">
        <ele>1550</ele>
        <time>2021-12-12T11:14:59.089Z</time>
      </trkpt>
      <trkpt lat="42.92758" lon="0.25531">
        <ele>1550</ele>
        <time>2021-12-12T11:15:04.116Z</time>
      </trkpt>
      <trkpt lat="42.9275" lon="0.25529">
        <ele>1550</ele>
        <time>2021-12-12T11:16:26.088Z</time>
      </trkpt>
      <trkpt lat="42.92748" lon="0.25531">
        <ele>1550</ele>
        <time>2021-12-12T11:16:30.088Z</time>
      </trkpt>
      <trkpt lat="42.92747" lon="0.25531">
        <ele>1550</ele>
        <time>2021-12-12T11:16:34.148Z</time>
      </trkpt>
      <trkpt lat="42.92745" lon="0.25532">
        <ele>1550</ele>
        <time>2021-12-12T11:16:39.094Z</time>
      </trkpt>
      <trkpt lat="42.92743" lon="0.2553">
        <ele>1550</ele>
        <time>2021-12-12T11:16:44.122Z</time>
      </trkpt>
      <trkpt lat="42.92742" lon="0.25527">
        <ele>1550</ele>
        <time>2021-12-12T11:17:27.091Z</time>
      </trkpt>
      <trkpt lat="42.92741" lon="0.25525">
        <ele>1550</ele>
        <time>2021-12-12T11:17:32.086Z</time>
      </trkpt>
      <trkpt lat="42.92741" lon="0.25522">
        <ele>1550</ele>
        <time>2021-12-12T11:17:36.092Z</time>
      </trkpt>
      <trkpt lat="42.92742" lon="0.2552">
        <ele>1550</ele>
        <time>2021-12-12T11:17:41.089Z</time>
      </trkpt>
      <trkpt lat="42.92741" lon="0.25517">
        <ele>1550</ele>
        <time>2021-12-12T11:17:46.092Z</time>
      </trkpt>
      <trkpt lat="42.9274" lon="0.25514">
        <ele>1550</ele>
        <time>2021-12-12T11:17:51.090Z</time>
      </trkpt>
      <trkpt lat="42.92739" lon="0.25511">
        <ele>1551</ele>
        <time>2021-12-12T11:17:56.093Z</time>
      </trkpt>
      <trkpt lat="42.92738" lon="0.25508">
        <ele>1551</ele>
        <time>2021-12-12T11:18:01.091Z</time>
      </trkpt>
      <trkpt lat="42.92737" lon="0.25505">
        <ele>1551</ele>
        <time>2021-12-12T11:18:06.092Z</time>
      </trkpt>
      <trkpt lat="42.92737" lon="0.25503">
        <ele>1551</ele>
        <time>2021-12-12T11:18:11.089Z</time>
      </trkpt>
      <trkpt lat="42.92733" lon="0.25495">
        <ele>1561</ele>
        <time>2021-12-12T11:18:53.091Z</time>
      </trkpt>
      <trkpt lat="42.92731" lon="0.25497">
        <ele>1561</ele>
        <time>2021-12-12T11:18:58.092Z</time>
      </trkpt>
      <trkpt lat="42.9273" lon="0.25498">
        <ele>1561</ele>
        <time>2021-12-12T11:19:03.087Z</time>
      </trkpt>
      <trkpt lat="42.92729" lon="0.255">
        <ele>1561</ele>
        <time>2021-12-12T11:19:07.091Z</time>
      </trkpt>
      <trkpt lat="42.92727" lon="0.25502">
        <ele>1561</ele>
        <time>2021-12-12T11:19:12.090Z</time>
      </trkpt>
      <trkpt lat="42.9272" lon="0.25509">
        <ele>1561</ele>
        <time>2021-12-12T11:19:50.090Z</time>
      </trkpt>
      <trkpt lat="42.9272" lon="0.25509">
        <ele>1561</ele>
        <time>2021-12-12T11:19:54.100Z</time>
      </trkpt>
      <trkpt lat="42.9272" lon="0.25509">
        <ele>1561</ele>
        <time>2021-12-12T11:19:58.187Z</time>
      </trkpt>
      <trkpt lat="42.9272" lon="0.25509">
        <ele>1561</ele>
        <time>2021-12-12T11:20:03.106Z</time>
      </trkpt>
      <trkpt lat="42.92719" lon="0.25512">
        <ele>1561</ele>
        <time>2021-12-12T11:20:07.190Z</time>
      </trkpt>
      <trkpt lat="42.92712" lon="0.25515">
        <ele>1560</ele>
        <time>2021-12-12T11:20:22.090Z</time>
      </trkpt>
      <trkpt lat="42.92711" lon="0.25513">
        <ele>1561</ele>
        <time>2021-12-12T11:20:27.083Z</time>
      </trkpt>
      <trkpt lat="42.92711" lon="0.25513">
        <ele>1561</ele>
        <time>2021-12-12T11:20:31.089Z</time>
      </trkpt>
      <trkpt lat="42.92709" lon="0.2551">
        <ele>1561</ele>
        <time>2021-12-12T11:20:36.120Z</time>
      </trkpt>
      <trkpt lat="42.92707" lon="0.25507">
        <ele>1574</ele>
        <time>2021-12-12T11:20:40.092Z</time>
      </trkpt>
      <trkpt lat="42.92704" lon="0.25496">
        <ele>1574</ele>
        <time>2021-12-12T11:21:05.090Z</time>
      </trkpt>
      <trkpt lat="42.92704" lon="0.25496">
        <ele>1574</ele>
        <time>2021-12-12T11:21:10.087Z</time>
      </trkpt>
      <trkpt lat="42.92704" lon="0.25495">
        <ele>1574</ele>
        <time>2021-12-12T11:21:14.087Z</time>
      </trkpt>
      <trkpt lat="42.92703" lon="0.25493">
        <ele>1574</ele>
        <time>2021-12-12T11:21:19.086Z</time>
      </trkpt>
      <trkpt lat="42.92703" lon="0.2549">
        <ele>1574</ele>
        <time>2021-12-12T11:21:23.093Z</time>
      </trkpt>
      <trkpt lat="42.92695" lon="0.25482">
        <ele>1576</ele>
        <time>2021-12-12T11:21:48.091Z</time>
      </trkpt>
      <trkpt lat="42.92693" lon="0.25484">
        <ele>1576</ele>
        <time>2021-12-12T11:21:52.087Z</time>
      </trkpt>
      <trkpt lat="42.92692" lon="0.25487">
        <ele>1574</ele>
        <time>2021-12-12T11:21:57.090Z</time>
      </trkpt>
      <trkpt lat="42.9269" lon="0.25491">
        <ele>1574</ele>
        <time>2021-12-12T11:22:02.089Z</time>
      </trkpt>
      <trkpt lat="42.92688" lon="0.25493">
        <ele>1574</ele>
        <time>2021-12-12T11:22:07.089Z</time>
      </trkpt>
      <trkpt lat="42.92686" lon="0.25492">
        <ele>1574</ele>
        <time>2021-12-12T11:22:32.090Z</time>
      </trkpt>
      <trkpt lat="42.92685" lon="0.25489">
        <ele>1574</ele>
        <time>2021-12-12T11:22:37.090Z</time>
      </trkpt>
      <trkpt lat="42.92684" lon="0.25488">
        <ele>1574</ele>
        <time>2021-12-12T11:22:42.089Z</time>
      </trkpt>
      <trkpt lat="42.92683" lon="0.25485">
        <ele>1576</ele>
        <time>2021-12-12T11:22:47.091Z</time>
      </trkpt>
      <trkpt lat="42.92682" lon="0.25483">
        <ele>1576</ele>
        <time>2021-12-12T11:22:52.092Z</time>
      </trkpt>
      <trkpt lat="42.92679" lon="0.25476">
        <ele>1594</ele>
        <time>2021-12-12T11:23:12.087Z</time>
      </trkpt>
      <trkpt lat="42.92678" lon="0.25478">
        <ele>1594</ele>
        <time>2021-12-12T11:23:17.115Z</time>
      </trkpt>
      <trkpt lat="42.92676" lon="0.2548">
        <ele>1594</ele>
        <time>2021-12-12T11:23:22.089Z</time>
      </trkpt>
      <trkpt lat="42.92674" lon="0.25482">
        <ele>1594</ele>
        <time>2021-12-12T11:23:27.089Z</time>
      </trkpt>
      <trkpt lat="42.92672" lon="0.25485">
        <ele>1594</ele>
        <time>2021-12-12T11:23:31.087Z</time>
      </trkpt>
      <trkpt lat="42.92665" lon="0.25487">
        <ele>1587</ele>
        <time>2021-12-12T11:24:20.090Z</time>
      </trkpt>
      <trkpt lat="42.92665" lon="0.25485">
        <ele>1594</ele>
        <time>2021-12-12T11:24:25.094Z</time>
      </trkpt>
      <trkpt lat="42.92665" lon="0.25484">
        <ele>1594</ele>
        <time>2021-12-12T11:24:30.088Z</time>
      </trkpt>
      <trkpt lat="42.92664" lon="0.25481">
        <ele>1594</ele>
        <time>2021-12-12T11:24:35.093Z</time>
      </trkpt>
      <trkpt lat="42.92662" lon="0.25479">
        <ele>1594</ele>
        <time>2021-12-12T11:24:40.091Z</time>
      </trkpt>
      <trkpt lat="42.92658" lon="0.25477">
        <ele>1594</ele>
        <time>2021-12-12T11:25:14.090Z</time>
      </trkpt>
      <trkpt lat="42.92657" lon="0.25474">
        <ele>1594</ele>
        <time>2021-12-12T11:25:19.117Z</time>
      </trkpt>
      <trkpt lat="42.92656" lon="0.25472">
        <ele>1594</ele>
        <time>2021-12-12T11:25:24.092Z</time>
      </trkpt>
      <trkpt lat="42.92654" lon="0.25474">
        <ele>1594</ele>
        <time>2021-12-12T11:25:29.091Z</time>
      </trkpt>
      <trkpt lat="42.92651" lon="0.25475">
        <ele>1599</ele>
        <time>2021-12-12T11:25:34.089Z</time>
      </trkpt>
      <trkpt lat="42.9265" lon="0.25475">
        <ele>1599</ele>
        <time>2021-12-12T11:25:59.089Z</time>
      </trkpt>
      <trkpt lat="42.92648" lon="0.25477">
        <ele>1599</ele>
        <time>2021-12-12T11:26:04.088Z</time>
      </trkpt>
      <trkpt lat="42.92646" lon="0.25479">
        <ele>1599</ele>
        <time>2021-12-12T11:26:09.091Z</time>
      </trkpt>
      <trkpt lat="42.92644" lon="0.25482">
        <ele>1599</ele>
        <time>2021-12-12T11:26:14.090Z</time>
      </trkpt>
      <trkpt lat="42.92641" lon="0.2548">
        <ele>1599</ele>
        <time>2021-12-12T11:26:19.093Z</time>
      </trkpt>
      <trkpt lat="42.92637" lon="0.25472">
        <ele>1599</ele>
        <time>2021-12-12T11:26:33.091Z</time>
      </trkpt>
      <trkpt lat="42.92637" lon="0.25472">
        <ele>1599</ele>
        <time>2021-12-12T11:26:38.088Z</time>
      </trkpt>
      <trkpt lat="42.92637" lon="0.25472">
        <ele>1599</ele>
        <time>2021-12-12T11:26:43.088Z</time>
      </trkpt>
      <trkpt lat="42.92635" lon="0.25469">
        <ele>1599</ele>
        <time>2021-12-12T11:26:48.096Z</time>
      </trkpt>
      <trkpt lat="42.92633" lon="0.25466">
        <ele>1599</ele>
        <time>2021-12-12T11:26:53.094Z</time>
      </trkpt>
      <trkpt lat="42.92629" lon="0.25467">
        <ele>1599</ele>
        <time>2021-12-12T11:27:02.119Z</time>
      </trkpt>
      <trkpt lat="42.92627" lon="0.2547">
        <ele>1599</ele>
        <time>2021-12-12T11:27:07.120Z</time>
      </trkpt>
      <trkpt lat="42.92625" lon="0.25473">
        <ele>1599</ele>
        <time>2021-12-12T11:27:12.126Z</time>
      </trkpt>
      <trkpt lat="42.92625" lon="0.25474">
        <ele>1609</ele>
        <time>2021-12-12T11:27:16.189Z</time>
      </trkpt>
      <trkpt lat="42.92624" lon="0.25474">
        <ele>1609</ele>
        <time>2021-12-12T11:27:21.119Z</time>
      </trkpt>
      <trkpt lat="42.92623" lon="0.25475">
        <ele>1609</ele>
        <time>2021-12-12T11:27:46.103Z</time>
      </trkpt>
      <trkpt lat="42.9262" lon="0.25477">
        <ele>1609</ele>
        <time>2021-12-12T11:27:51.095Z</time>
      </trkpt>
      <trkpt lat="42.92618" lon="0.25476">
        <ele>1609</ele>
        <time>2021-12-12T11:27:55.123Z</time>
      </trkpt>
      <trkpt lat="42.92617" lon="0.25473">
        <ele>1609</ele>
        <time>2021-12-12T11:28:00.122Z</time>
      </trkpt>
      <trkpt lat="42.92615" lon="0.25469">
        <ele>1609</ele>
        <time>2021-12-12T11:28:05.093Z</time>
      </trkpt>
      <trkpt lat="42.92609" lon="0.25469">
        <ele>1609</ele>
        <time>2021-12-12T11:28:24.092Z</time>
      </trkpt>
      <trkpt lat="42.92606" lon="0.25469">
        <ele>1609</ele>
        <time>2021-12-12T11:28:28.089Z</time>
      </trkpt>
      <trkpt lat="42.92604" lon="0.25466">
        <ele>1609</ele>
        <time>2021-12-12T11:28:33.117Z</time>
      </trkpt>
      <trkpt lat="42.92601" lon="0.25463">
        <ele>1609</ele>
        <time>2021-12-12T11:28:38.092Z</time>
      </trkpt>
      <trkpt lat="42.92598" lon="0.25464">
        <ele>1609</ele>
        <time>2021-12-12T11:28:43.091Z</time>
      </trkpt>
      <trkpt lat="42.92593" lon="0.25468">
        <ele>1620</ele>
        <time>2021-12-12T11:34:48.086Z</time>
      </trkpt>
      <trkpt lat="42.92592" lon="0.25467">
        <ele>1620</ele>
        <time>2021-12-12T11:34:53.087Z</time>
      </trkpt>
      <trkpt lat="42.92589" lon="0.25466">
        <ele>1620</ele>
        <time>2021-12-12T11:34:57.091Z</time>
      </trkpt>
      <trkpt lat="42.92589" lon="0.25464">
        <ele>1620</ele>
        <time>2021-12-12T11:35:01.121Z</time>
      </trkpt>
      <trkpt lat="42.92588" lon="0.25462">
        <ele>1620</ele>
        <time>2021-12-12T11:35:06.209Z</time>
      </trkpt>
      <trkpt lat="42.92585" lon="0.25458">
        <ele>1623</ele>
        <time>2021-12-12T11:35:15.089Z</time>
      </trkpt>
      <trkpt lat="42.92584" lon="0.25456">
        <ele>1623</ele>
        <time>2021-12-12T11:35:19.118Z</time>
      </trkpt>
      <trkpt lat="42.92582" lon="0.25454">
        <ele>1623</ele>
        <time>2021-12-12T11:35:23.169Z</time>
      </trkpt>
      <trkpt lat="42.9258" lon="0.25453">
        <ele>1623</ele>
        <time>2021-12-12T11:35:28.091Z</time>
      </trkpt>
      <trkpt lat="42.92577" lon="0.25452">
        <ele>1623</ele>
        <time>2021-12-12T11:35:33.090Z</time>
      </trkpt>
      <trkpt lat="42.92575" lon="0.2545">
        <ele>1623</ele>
        <time>2021-12-12T11:35:38.087Z</time>
      </trkpt>
      <trkpt lat="42.92574" lon="0.25447">
        <ele>1623</ele>
        <time>2021-12-12T11:35:43.091Z</time>
      </trkpt>
      <trkpt lat="42.92573" lon="0.25446">
        <ele>1623</ele>
        <time>2021-12-12T11:35:47.085Z</time>
      </trkpt>
      <trkpt lat="42.92569" lon="0.25445">
        <ele>1630</ele>
        <time>2021-12-12T11:35:51.089Z</time>
      </trkpt>
      <trkpt lat="42.92565" lon="0.25444">
        <ele>1630</ele>
        <time>2021-12-12T11:35:56.095Z</time>
      </trkpt>
      <trkpt lat="42.92562" lon="0.25443">
        <ele>1630</ele>
        <time>2021-12-12T11:36:01.090Z</time>
      </trkpt>
      <trkpt lat="42.9256" lon="0.25442">
        <ele>1630</ele>
        <time>2021-12-12T11:36:05.116Z</time>
      </trkpt>
      <trkpt lat="42.92557" lon="0.2544">
        <ele>1630</ele>
        <time>2021-12-12T11:36:10.090Z</time>
      </trkpt>
      <trkpt lat="42.92554" lon="0.25438">
        <ele>1630</ele>
        <time>2021-12-12T11:36:15.126Z</time>
      </trkpt>
      <trkpt lat="42.92552" lon="0.25437">
        <ele>1630</ele>
        <time>2021-12-12T11:36:20.090Z</time>
      </trkpt>
      <trkpt lat="42.9255" lon="0.25436">
        <ele>1630</ele>
        <time>2021-12-12T11:36:25.088Z</time>
      </trkpt>
      <trkpt lat="42.92547" lon="0.25436">
        <ele>1630</ele>
        <time>2021-12-12T11:36:30.089Z</time>
      </trkpt>
      <trkpt lat="42.92545" lon="0.25434">
        <ele>1630</ele>
        <time>2021-12-12T11:36:35.090Z</time>
      </trkpt>
      <trkpt lat="42.92542" lon="0.25433">
        <ele>1630</ele>
        <time>2021-12-12T11:36:40.090Z</time>
      </trkpt>
      <trkpt lat="42.9254" lon="0.25431">
        <ele>1635</ele>
        <time>2021-12-12T11:36:45.088Z</time>
      </trkpt>
      <trkpt lat="42.92534" lon="0.2543">
        <ele>1634</ele>
        <time>2021-12-12T11:37:17.120Z</time>
      </trkpt>
      <trkpt lat="42.92534" lon="0.2543">
        <ele>1634</ele>
        <time>2021-12-12T11:37:22.093Z</time>
      </trkpt>
      <trkpt lat="42.9253" lon="0.25431">
        <ele>1635</ele>
        <time>2021-12-12T11:37:27.089Z</time>
      </trkpt>
      <trkpt lat="42.92528" lon="0.25433">
        <ele>1635</ele>
        <time>2021-12-12T11:37:32.093Z</time>
      </trkpt>
      <trkpt lat="42.92525" lon="0.25435">
        <ele>1635</ele>
        <time>2021-12-12T11:37:37.088Z</time>
      </trkpt>
      <trkpt lat="42.92518" lon="0.25443">
        <ele>1635</ele>
        <time>2021-12-12T11:38:11.203Z</time>
      </trkpt>
      <trkpt lat="42.92518" lon="0.25443">
        <ele>1635</ele>
        <time>2021-12-12T11:38:16.105Z</time>
      </trkpt>
      <trkpt lat="42.92518" lon="0.25443">
        <ele>1635</ele>
        <time>2021-12-12T11:38:21.091Z</time>
      </trkpt>
      <trkpt lat="42.92517" lon="0.25443">
        <ele>1635</ele>
        <time>2021-12-12T11:38:25.118Z</time>
      </trkpt>
      <trkpt lat="42.92515" lon="0.25445">
        <ele>1635</ele>
        <time>2021-12-12T11:38:30.126Z</time>
      </trkpt>
      <trkpt lat="42.92513" lon="0.25448">
        <ele>1640</ele>
        <time>2021-12-12T11:38:35.087Z</time>
      </trkpt>
      <trkpt lat="42.9251" lon="0.25452">
        <ele>1640</ele>
        <time>2021-12-12T11:38:40.121Z</time>
      </trkpt>
      <trkpt lat="42.92508" lon="0.25454">
        <ele>1640</ele>
        <time>2021-12-12T11:38:45.114Z</time>
      </trkpt>
      <trkpt lat="42.92505" lon="0.25456">
        <ele>1640</ele>
        <time>2021-12-12T11:38:50.119Z</time>
      </trkpt>
      <trkpt lat="42.92503" lon="0.25459">
        <ele>1637</ele>
        <time>2021-12-12T11:38:54.174Z</time>
      </trkpt>
      <trkpt lat="42.925" lon="0.25461">
        <ele>1637</ele>
        <time>2021-12-12T11:38:59.097Z</time>
      </trkpt>
      <trkpt lat="42.92499" lon="0.25464">
        <ele>1637</ele>
        <time>2021-12-12T11:39:03.117Z</time>
      </trkpt>
      <trkpt lat="42.92496" lon="0.25466">
        <ele>1637</ele>
        <time>2021-12-12T11:39:08.176Z</time>
      </trkpt>
      <trkpt lat="42.92496" lon="0.25466">
        <ele>1637</ele>
        <time>2021-12-12T11:39:38.089Z</time>
      </trkpt>
      <trkpt lat="42.92493" lon="0.25468">
        <ele>1637</ele>
        <time>2021-12-12T11:39:43.087Z</time>
      </trkpt>
      <trkpt lat="42.9249" lon="0.2547">
        <ele>1637</ele>
        <time>2021-12-12T11:39:48.101Z</time>
      </trkpt>
      <trkpt lat="42.92488" lon="0.25473">
        <ele>1637</ele>
        <time>2021-12-12T11:39:52.127Z</time>
      </trkpt>
      <trkpt lat="42.92486" lon="0.25476">
        <ele>1644</ele>
        <time>2021-12-12T11:39:57.119Z</time>
      </trkpt>
      <trkpt lat="42.92483" lon="0.2548">
        <ele>1644</ele>
        <time>2021-12-12T11:40:02.117Z</time>
      </trkpt>
      <trkpt lat="42.9248" lon="0.25484">
        <ele>1644</ele>
        <time>2021-12-12T11:40:07.119Z</time>
      </trkpt>
      <trkpt lat="42.92477" lon="0.25488">
        <ele>1644</ele>
        <time>2021-12-12T11:40:12.129Z</time>
      </trkpt>
      <trkpt lat="42.92474" lon="0.25491">
        <ele>1644</ele>
        <time>2021-12-12T11:40:17.100Z</time>
      </trkpt>
      <trkpt lat="42.92475" lon="0.25494">
        <ele>1644</ele>
        <time>2021-12-12T11:40:55.193Z</time>
      </trkpt>
      <trkpt lat="42.92471" lon="0.25494">
        <ele>1644</ele>
        <time>2021-12-12T11:41:00.098Z</time>
      </trkpt>
      <trkpt lat="42.92468" lon="0.25494">
        <ele>1644</ele>
        <time>2021-12-12T11:41:04.123Z</time>
      </trkpt>
      <trkpt lat="42.92465" lon="0.25494">
        <ele>1644</ele>
        <time>2021-12-12T11:41:09.088Z</time>
      </trkpt>
      <trkpt lat="42.92461" lon="0.25495">
        <ele>1644</ele>
        <time>2021-12-12T11:41:13.091Z</time>
      </trkpt>
      <trkpt lat="42.9245" lon="0.25499">
        <ele>1653</ele>
        <time>2021-12-12T11:41:33.087Z</time>
      </trkpt>
      <trkpt lat="42.9245" lon="0.25499">
        <ele>1653</ele>
        <time>2021-12-12T11:41:38.091Z</time>
      </trkpt>
      <trkpt lat="42.9245" lon="0.25499">
        <ele>1653</ele>
        <time>2021-12-12T11:41:43.089Z</time>
      </trkpt>
      <trkpt lat="42.9245" lon="0.25499">
        <ele>1653</ele>
        <time>2021-12-12T11:41:48.091Z</time>
      </trkpt>
      <trkpt lat="42.92448" lon="0.255">
        <ele>1653</ele>
        <time>2021-12-12T11:41:53.089Z</time>
      </trkpt>
      <trkpt lat="42.92445" lon="0.25503">
        <ele>1653</ele>
        <time>2021-12-12T11:41:58.123Z</time>
      </trkpt>
      <trkpt lat="42.92442" lon="0.25505">
        <ele>1653</ele>
        <time>2021-12-12T11:42:02.200Z</time>
      </trkpt>
      <trkpt lat="42.92439" lon="0.25508">
        <ele>1653</ele>
        <time>2021-12-12T11:42:07.097Z</time>
      </trkpt>
      <trkpt lat="42.92435" lon="0.25511">
        <ele>1653</ele>
        <time>2021-12-12T11:42:12.090Z</time>
      </trkpt>
      <trkpt lat="42.9243" lon="0.25515">
        <ele>1663</ele>
        <time>2021-12-12T11:43:05.086Z</time>
      </trkpt>
      <trkpt lat="42.92429" lon="0.25515">
        <ele>1663</ele>
        <time>2021-12-12T11:43:10.085Z</time>
      </trkpt>
      <trkpt lat="42.92428" lon="0.25515">
        <ele>1663</ele>
        <time>2021-12-12T11:43:15.115Z</time>
      </trkpt>
      <trkpt lat="42.92424" lon="0.25516">
        <ele>1663</ele>
        <time>2021-12-12T11:43:20.087Z</time>
      </trkpt>
      <trkpt lat="42.92421" lon="0.25516">
        <ele>1663</ele>
        <time>2021-12-12T11:43:25.108Z</time>
      </trkpt>
      <trkpt lat="42.92418" lon="0.25517">
        <ele>1663</ele>
        <time>2021-12-12T11:43:29.157Z</time>
      </trkpt>
      <trkpt lat="42.92414" lon="0.25521">
        <ele>1663</ele>
        <time>2021-12-12T11:43:34.094Z</time>
      </trkpt>
      <trkpt lat="42.92411" lon="0.25525">
        <ele>1663</ele>
        <time>2021-12-12T11:43:39.088Z</time>
      </trkpt>
      <trkpt lat="42.92409" lon="0.25529">
        <ele>1663</ele>
        <time>2021-12-12T11:43:44.089Z</time>
      </trkpt>
      <trkpt lat="42.92407" lon="0.25531">
        <ele>1663</ele>
        <time>2021-12-12T11:43:58.088Z</time>
      </trkpt>
      <trkpt lat="42.92406" lon="0.25534">
        <ele>1663</ele>
        <time>2021-12-12T11:44:03.087Z</time>
      </trkpt>
      <trkpt lat="42.92409" lon="0.25537">
        <ele>1663</ele>
        <time>2021-12-12T11:44:08.089Z</time>
      </trkpt>
      <trkpt lat="42.92411" lon="0.25541">
        <ele>1663</ele>
        <time>2021-12-12T11:44:13.088Z</time>
      </trkpt>
      <trkpt lat="42.92409" lon="0.25545">
        <ele>1663</ele>
        <time>2021-12-12T11:44:18.123Z</time>
      </trkpt>
      <trkpt lat="42.92409" lon="0.25548">
        <ele>1663</ele>
        <time>2021-12-12T11:44:48.091Z</time>
      </trkpt>
      <trkpt lat="42.92413" lon="0.2555">
        <ele>1663</ele>
        <time>2021-12-12T11:44:53.090Z</time>
      </trkpt>
      <trkpt lat="42.92414" lon="0.25554">
        <ele>1663</ele>
        <time>2021-12-12T11:44:58.090Z</time>
      </trkpt>
      <trkpt lat="42.92412" lon="0.25557">
        <ele>1663</ele>
        <time>2021-12-12T11:45:03.091Z</time>
      </trkpt>
      <trkpt lat="42.9241" lon="0.25561">
        <ele>1663</ele>
        <time>2021-12-12T11:45:08.088Z</time>
      </trkpt>
      <trkpt lat="42.92404" lon="0.25568">
        <ele>1663</ele>
        <time>2021-12-12T11:45:36.123Z</time>
      </trkpt>
      <trkpt lat="42.92404" lon="0.25568">
        <ele>1663</ele>
        <time>2021-12-12T11:45:41.117Z</time>
      </trkpt>
      <trkpt lat="42.92404" lon="0.25568">
        <ele>1663</ele>
        <time>2021-12-12T11:45:46.119Z</time>
      </trkpt>
      <trkpt lat="42.92401" lon="0.25569">
        <ele>1669</ele>
        <time>2021-12-12T11:45:51.116Z</time>
      </trkpt>
      <trkpt lat="42.92398" lon="0.25572">
        <ele>1667</ele>
        <time>2021-12-12T11:45:56.116Z</time>
      </trkpt>
      <trkpt lat="42.92396" lon="0.25575">
        <ele>1667</ele>
        <time>2021-12-12T11:46:01.088Z</time>
      </trkpt>
      <trkpt lat="42.92393" lon="0.25578">
        <ele>1667</ele>
        <time>2021-12-12T11:46:06.115Z</time>
      </trkpt>
      <trkpt lat="42.92391" lon="0.25581">
        <ele>1667</ele>
        <time>2021-12-12T11:46:10.144Z</time>
      </trkpt>
      <trkpt lat="42.92389" lon="0.25583">
        <ele>1667</ele>
        <time>2021-12-12T11:46:14.177Z</time>
      </trkpt>
      <trkpt lat="42.92387" lon="0.25584">
        <ele>1667</ele>
        <time>2021-12-12T11:46:18.191Z</time>
      </trkpt>
      <trkpt lat="42.92383" lon="0.25587">
        <ele>1667</ele>
        <time>2021-12-12T11:46:23.122Z</time>
      </trkpt>
      <trkpt lat="42.9238" lon="0.2559">
        <ele>1667</ele>
        <time>2021-12-12T11:46:27.147Z</time>
      </trkpt>
      <trkpt lat="42.9238" lon="0.25593">
        <ele>1667</ele>
        <time>2021-12-12T11:46:32.090Z</time>
      </trkpt>
      <trkpt lat="42.9238" lon="0.25591">
        <ele>1667</ele>
        <time>2021-12-12T11:47:04.095Z</time>
      </trkpt>
      <trkpt lat="42.9238" lon="0.25591">
        <ele>1667</ele>
        <time>2021-12-12T11:47:09.090Z</time>
      </trkpt>
      <trkpt lat="42.92378" lon="0.25593">
        <ele>1667</ele>
        <time>2021-12-12T11:47:14.095Z</time>
      </trkpt>
      <trkpt lat="42.92375" lon="0.25596">
        <ele>1667</ele>
        <time>2021-12-12T11:47:18.098Z</time>
      </trkpt>
      <trkpt lat="42.92373" lon="0.25598">
        <ele>1665</ele>
        <time>2021-12-12T11:47:22.135Z</time>
      </trkpt>
      <trkpt lat="42.9237" lon="0.25601">
        <ele>1665</ele>
        <time>2021-12-12T11:47:27.094Z</time>
      </trkpt>
      <trkpt lat="42.92368" lon="0.25601">
        <ele>1665</ele>
        <time>2021-12-12T11:47:31.200Z</time>
      </trkpt>
      <trkpt lat="42.92367" lon="0.25596">
        <ele>1673</ele>
        <time>2021-12-12T11:47:36.096Z</time>
      </trkpt>
      <trkpt lat="42.92366" lon="0.25593">
        <ele>1673</ele>
        <time>2021-12-12T11:47:41.097Z</time>
      </trkpt>
      <trkpt lat="42.92365" lon="0.2559">
        <ele>1673</ele>
        <time>2021-12-12T11:47:46.097Z</time>
      </trkpt>
      <trkpt lat="42.92363" lon="0.25589">
        <ele>1673</ele>
        <time>2021-12-12T11:48:00.096Z</time>
      </trkpt>
      <trkpt lat="42.92362" lon="0.25589">
        <ele>1673</ele>
        <time>2021-12-12T11:48:04.099Z</time>
      </trkpt>
      <trkpt lat="42.9236" lon="0.25591">
        <ele>1673</ele>
        <time>2021-12-12T11:48:08.190Z</time>
      </trkpt>
      <trkpt lat="42.92358" lon="0.25595">
        <ele>1673</ele>
        <time>2021-12-12T11:48:13.081Z</time>
      </trkpt>
      <trkpt lat="42.92355" lon="0.25598">
        <ele>1665</ele>
        <time>2021-12-12T11:48:18.124Z</time>
      </trkpt>
      <trkpt lat="42.92355" lon="0.25599">
        <ele>1665</ele>
        <time>2021-12-12T11:48:28.094Z</time>
      </trkpt>
      <trkpt lat="42.92355" lon="0.25599">
        <ele>1665</ele>
        <time>2021-12-12T11:48:33.094Z</time>
      </trkpt>
      <trkpt lat="42.92352" lon="0.256">
        <ele>1665</ele>
        <time>2021-12-12T11:48:37.100Z</time>
      </trkpt>
      <trkpt lat="42.92349" lon="0.25603">
        <ele>1665</ele>
        <time>2021-12-12T11:48:42.133Z</time>
      </trkpt>
      <trkpt lat="42.92346" lon="0.25604">
        <ele>1676</ele>
        <time>2021-12-12T11:48:47.096Z</time>
      </trkpt>
      <trkpt lat="42.92347" lon="0.25603">
        <ele>1676</ele>
        <time>2021-12-12T12:23:33.086Z</time>
      </trkpt>
      <trkpt lat="42.92347" lon="0.25603">
        <ele>1676</ele>
        <time>2021-12-12T12:23:38.083Z</time>
      </trkpt>
      <trkpt lat="42.92347" lon="0.25605">
        <ele>1676</ele>
        <time>2021-12-12T12:23:43.087Z</time>
      </trkpt>
      <trkpt lat="42.92348" lon="0.25611">
        <ele>1665</ele>
        <time>2021-12-12T12:23:48.087Z</time>
      </trkpt>
      <trkpt lat="42.92351" lon="0.25615">
        <ele>1665</ele>
        <time>2021-12-12T12:23:53.087Z</time>
      </trkpt>
      <trkpt lat="42.92353" lon="0.25617">
        <ele>1665</ele>
        <time>2021-12-12T12:24:59.087Z</time>
      </trkpt>
      <trkpt lat="42.92354" lon="0.25615">
        <ele>1665</ele>
        <time>2021-12-12T12:25:04.094Z</time>
      </trkpt>
      <trkpt lat="42.92359" lon="0.2561">
        <ele>1665</ele>
        <time>2021-12-12T12:25:09.089Z</time>
      </trkpt>
      <trkpt lat="42.92361" lon="0.25615">
        <ele>1665</ele>
        <time>2021-12-12T12:25:13.087Z</time>
      </trkpt>
      <trkpt lat="42.92364" lon="0.25612">
        <ele>1665</ele>
        <time>2021-12-12T12:25:18.093Z</time>
      </trkpt>
      <trkpt lat="42.92376" lon="0.25602">
        <ele>1659</ele>
        <time>2021-12-12T12:25:23.086Z</time>
      </trkpt>
      <trkpt lat="42.92384" lon="0.25588">
        <ele>1667</ele>
        <time>2021-12-12T12:25:28.088Z</time>
      </trkpt>
      <trkpt lat="42.92393" lon="0.25584">
        <ele>1667</ele>
        <time>2021-12-12T12:25:33.089Z</time>
      </trkpt>
      <trkpt lat="42.92402" lon="0.25586">
        <ele>1667</ele>
        <time>2021-12-12T12:25:38.085Z</time>
      </trkpt>
      <trkpt lat="42.9241" lon="0.25572">
        <ele>1659</ele>
        <time>2021-12-12T12:26:02.086Z</time>
      </trkpt>
      <trkpt lat="42.9241" lon="0.25572">
        <ele>1659</ele>
        <time>2021-12-12T12:26:06.086Z</time>
      </trkpt>
      <trkpt lat="42.92412" lon="0.25571">
        <ele>1659</ele>
        <time>2021-12-12T12:26:11.091Z</time>
      </trkpt>
      <trkpt lat="42.92415" lon="0.25564">
        <ele>1663</ele>
        <time>2021-12-12T12:26:16.090Z</time>
      </trkpt>
      <trkpt lat="42.92417" lon="0.25561">
        <ele>1663</ele>
        <time>2021-12-12T12:26:21.086Z</time>
      </trkpt>
      <trkpt lat="42.92415" lon="0.25553">
        <ele>1663</ele>
        <time>2021-12-12T12:26:40.085Z</time>
      </trkpt>
      <trkpt lat="42.92414" lon="0.2555">
        <ele>1663</ele>
        <time>2021-12-12T12:26:45.089Z</time>
      </trkpt>
      <trkpt lat="42.92414" lon="0.25549">
        <ele>1663</ele>
        <time>2021-12-12T12:26:50.092Z</time>
      </trkpt>
      <trkpt lat="42.92413" lon="0.25548">
        <ele>1663</ele>
        <time>2021-12-12T12:26:55.094Z</time>
      </trkpt>
      <trkpt lat="42.92413" lon="0.25538">
        <ele>1663</ele>
        <time>2021-12-12T12:26:59.089Z</time>
      </trkpt>
      <trkpt lat="42.9241" lon="0.25521">
        <ele>1663</ele>
        <time>2021-12-12T12:27:04.093Z</time>
      </trkpt>
      <trkpt lat="42.92414" lon="0.25517">
        <ele>1663</ele>
        <time>2021-12-12T12:27:09.089Z</time>
      </trkpt>
      <trkpt lat="42.92426" lon="0.25518">
        <ele>1663</ele>
        <time>2021-12-12T12:27:14.089Z</time>
      </trkpt>
      <trkpt lat="42.92431" lon="0.25516">
        <ele>1651</ele>
        <time>2021-12-12T12:27:18.089Z</time>
      </trkpt>
      <trkpt lat="42.92432" lon="0.25512">
        <ele>1653</ele>
        <time>2021-12-12T12:27:26.119Z</time>
      </trkpt>
      <trkpt lat="42.92433" lon="0.25511">
        <ele>1653</ele>
        <time>2021-12-12T12:27:30.144Z</time>
      </trkpt>
      <trkpt lat="42.92433" lon="0.2551">
        <ele>1653</ele>
        <time>2021-12-12T12:27:35.129Z</time>
      </trkpt>
      <trkpt lat="42.92437" lon="0.25504">
        <ele>1653</ele>
        <time>2021-12-12T12:27:40.088Z</time>
      </trkpt>
      <trkpt lat="42.92442" lon="0.25507">
        <ele>1653</ele>
        <time>2021-12-12T12:27:44.090Z</time>
      </trkpt>
      <trkpt lat="42.92446" lon="0.25496">
        <ele>1653</ele>
        <time>2021-12-12T12:27:49.086Z</time>
      </trkpt>
      <trkpt lat="42.92456" lon="0.25501">
        <ele>1653</ele>
        <time>2021-12-12T12:27:54.086Z</time>
      </trkpt>
      <trkpt lat="42.92456" lon="0.25486">
        <ele>1653</ele>
        <time>2021-12-12T12:27:59.086Z</time>
      </trkpt>
      <trkpt lat="42.92463" lon="0.25483">
        <ele>1644</ele>
        <time>2021-12-12T12:28:04.087Z</time>
      </trkpt>
      <trkpt lat="42.9247" lon="0.25487">
        <ele>1644</ele>
        <time>2021-12-12T12:28:09.120Z</time>
      </trkpt>
      <trkpt lat="42.92477" lon="0.25476">
        <ele>1644</ele>
        <time>2021-12-12T12:28:14.086Z</time>
      </trkpt>
      <trkpt lat="42.92486" lon="0.25477">
        <ele>1644</ele>
        <time>2021-12-12T12:28:19.092Z</time>
      </trkpt>
      <trkpt lat="42.92493" lon="0.25468">
        <ele>1637</ele>
        <time>2021-12-12T12:28:24.090Z</time>
      </trkpt>
      <trkpt lat="42.92505" lon="0.25436">
        <ele>1640</ele>
        <time>2021-12-12T12:28:42.089Z</time>
      </trkpt>
      <trkpt lat="42.92518" lon="0.25436">
        <ele>1635</ele>
        <time>2021-12-12T12:28:47.084Z</time>
      </trkpt>
      <trkpt lat="42.92523" lon="0.25435">
        <ele>1635</ele>
        <time>2021-12-12T12:28:51.090Z</time>
      </trkpt>
      <trkpt lat="42.92525" lon="0.25435">
        <ele>1635</ele>
        <time>2021-12-12T12:28:56.091Z</time>
      </trkpt>
      <trkpt lat="42.92524" lon="0.25425">
        <ele>1634</ele>
        <time>2021-12-12T12:29:01.087Z</time>
      </trkpt>
      <trkpt lat="42.9253" lon="0.25418">
        <ele>1634</ele>
        <time>2021-12-12T12:29:06.087Z</time>
      </trkpt>
      <trkpt lat="42.92537" lon="0.25424">
        <ele>1634</ele>
        <time>2021-12-12T12:29:11.087Z</time>
      </trkpt>
      <trkpt lat="42.92544" lon="0.25433">
        <ele>1630</ele>
        <time>2021-12-12T12:29:16.093Z</time>
      </trkpt>
      <trkpt lat="42.92548" lon="0.25442">
        <ele>1630</ele>
        <time>2021-12-12T12:29:20.086Z</time>
      </trkpt>
      <trkpt lat="42.92555" lon="0.25455">
        <ele>1630</ele>
        <time>2021-12-12T12:29:24.089Z</time>
      </trkpt>
      <trkpt lat="42.92562" lon="0.25444">
        <ele>1630</ele>
        <time>2021-12-12T12:29:29.089Z</time>
      </trkpt>
      <trkpt lat="42.92562" lon="0.25425">
        <ele>1629</ele>
        <time>2021-12-12T12:29:33.091Z</time>
      </trkpt>
      <trkpt lat="42.92579" lon="0.2544">
        <ele>1623</ele>
        <time>2021-12-12T12:29:38.089Z</time>
      </trkpt>
      <trkpt lat="42.92595" lon="0.25474">
        <ele>1620</ele>
        <time>2021-12-12T12:30:02.088Z</time>
      </trkpt>
      <trkpt lat="42.92595" lon="0.25474">
        <ele>1620</ele>
        <time>2021-12-12T12:30:07.072Z</time>
      </trkpt>
      <trkpt lat="42.92595" lon="0.25474">
        <ele>1620</ele>
        <time>2021-12-12T12:30:12.086Z</time>
      </trkpt>
      <trkpt lat="42.92597" lon="0.25471">
        <ele>1609</ele>
        <time>2021-12-12T12:30:16.115Z</time>
      </trkpt>
      <trkpt lat="42.92603" lon="0.25465">
        <ele>1609</ele>
        <time>2021-12-12T12:30:21.081Z</time>
      </trkpt>
      <trkpt lat="42.92608" lon="0.25477">
        <ele>1609</ele>
        <time>2021-12-12T12:30:25.118Z</time>
      </trkpt>
      <trkpt lat="42.92611" lon="0.2548">
        <ele>1609</ele>
        <time>2021-12-12T12:30:30.085Z</time>
      </trkpt>
      <trkpt lat="42.92617" lon="0.25483">
        <ele>1609</ele>
        <time>2021-12-12T12:30:35.091Z</time>
      </trkpt>
      <trkpt lat="42.92618" lon="0.25491">
        <ele>1599</ele>
        <time>2021-12-12T12:30:39.104Z</time>
      </trkpt>
      <trkpt lat="42.92627" lon="0.25476">
        <ele>1599</ele>
        <time>2021-12-12T12:30:44.076Z</time>
      </trkpt>
      <trkpt lat="42.92634" lon="0.2548">
        <ele>1599</ele>
        <time>2021-12-12T12:30:49.082Z</time>
      </trkpt>
      <trkpt lat="42.92644" lon="0.25477">
        <ele>1599</ele>
        <time>2021-12-12T12:30:54.082Z</time>
      </trkpt>
      <trkpt lat="42.92652" lon="0.25472">
        <ele>1599</ele>
        <time>2021-12-12T12:30:59.083Z</time>
      </trkpt>
      <trkpt lat="42.92669" lon="0.25479">
        <ele>1594</ele>
        <time>2021-12-12T12:31:17.088Z</time>
      </trkpt>
      <trkpt lat="42.92669" lon="0.25492">
        <ele>1587</ele>
        <time>2021-12-12T12:31:22.078Z</time>
      </trkpt>
      <trkpt lat="42.92677" lon="0.2549">
        <ele>1587</ele>
        <time>2021-12-12T12:31:27.094Z</time>
      </trkpt>
      <trkpt lat="42.92685" lon="0.25498">
        <ele>1574</ele>
        <time>2021-12-12T12:31:32.089Z</time>
      </trkpt>
      <trkpt lat="42.92689" lon="0.25509">
        <ele>1574</ele>
        <time>2021-12-12T12:31:37.120Z</time>
      </trkpt>
      <trkpt lat="42.92697" lon="0.25514">
        <ele>1570</ele>
        <time>2021-12-12T12:31:42.073Z</time>
      </trkpt>
      <trkpt lat="42.92698" lon="0.2552">
        <ele>1570</ele>
        <time>2021-12-12T12:31:46.080Z</time>
      </trkpt>
      <trkpt lat="42.92705" lon="0.25506">
        <ele>1574</ele>
        <time>2021-12-12T12:31:51.097Z</time>
      </trkpt>
      <trkpt lat="42.9271" lon="0.25517">
        <ele>1560</ele>
        <time>2021-12-12T12:31:56.079Z</time>
      </trkpt>
      <trkpt lat="42.92738" lon="0.2552">
        <ele>1550</ele>
        <time>2021-12-12T12:32:45.093Z</time>
      </trkpt>
      <trkpt lat="42.92739" lon="0.25526">
        <ele>1550</ele>
        <time>2021-12-12T12:32:49.117Z</time>
      </trkpt>
      <trkpt lat="42.92739" lon="0.25526">
        <ele>1550</ele>
        <time>2021-12-12T12:32:54.082Z</time>
      </trkpt>
      <trkpt lat="42.92739" lon="0.25527">
        <ele>1550</ele>
        <time>2021-12-12T12:32:59.082Z</time>
      </trkpt>
      <trkpt lat="42.92746" lon="0.25526">
        <ele>1550</ele>
        <time>2021-12-12T12:33:04.088Z</time>
      </trkpt>
      <trkpt lat="42.92753" lon="0.25525">
        <ele>1550</ele>
        <time>2021-12-12T12:33:09.090Z</time>
      </trkpt>
      <trkpt lat="42.92761" lon="0.25523">
        <ele>1550</ele>
        <time>2021-12-12T12:33:14.082Z</time>
      </trkpt>
      <trkpt lat="42.92761" lon="0.25536">
        <ele>1550</ele>
        <time>2021-12-12T12:33:18.080Z</time>
      </trkpt>
      <trkpt lat="42.92759" lon="0.25552">
        <ele>1544</ele>
        <time>2021-12-12T12:33:23.081Z</time>
      </trkpt>
      <trkpt lat="42.92764" lon="0.25547">
        <ele>1538</ele>
        <time>2021-12-12T12:33:28.086Z</time>
      </trkpt>
      <trkpt lat="42.92764" lon="0.25545">
        <ele>1538</ele>
        <time>2021-12-12T12:33:33.145Z</time>
      </trkpt>
      <trkpt lat="42.92765" lon="0.25543">
        <ele>1538</ele>
        <time>2021-12-12T12:33:38.088Z</time>
      </trkpt>
      <trkpt lat="42.92774" lon="0.2553">
        <ele>1541</ele>
        <time>2021-12-12T12:33:43.083Z</time>
      </trkpt>
      <trkpt lat="42.92781" lon="0.25533">
        <ele>1541</ele>
        <time>2021-12-12T12:33:47.085Z</time>
      </trkpt>
      <trkpt lat="42.92778" lon="0.25553">
        <ele>1538</ele>
        <time>2021-12-12T12:33:52.088Z</time>
      </trkpt>
      <trkpt lat="42.92786" lon="0.25555">
        <ele>1538</ele>
        <time>2021-12-12T12:33:57.085Z</time>
      </trkpt>
      <trkpt lat="42.92791" lon="0.25565">
        <ele>1538</ele>
        <time>2021-12-12T12:34:02.083Z</time>
      </trkpt>
      <trkpt lat="42.92808" lon="0.25584">
        <ele>1528</ele>
        <time>2021-12-12T12:34:22.083Z</time>
      </trkpt>
      <trkpt lat="42.92809" lon="0.25584">
        <ele>1528</ele>
        <time>2021-12-12T12:34:27.086Z</time>
      </trkpt>
      <trkpt lat="42.92816" lon="0.25572">
        <ele>1528</ele>
        <time>2021-12-12T12:34:32.084Z</time>
      </trkpt>
      <trkpt lat="42.92825" lon="0.25581">
        <ele>1513</ele>
        <time>2021-12-12T12:34:37.109Z</time>
      </trkpt>
      <trkpt lat="42.92827" lon="0.25597">
        <ele>1513</ele>
        <time>2021-12-12T12:34:42.121Z</time>
      </trkpt>
      <trkpt lat="42.92838" lon="0.25593">
        <ele>1513</ele>
        <time>2021-12-12T12:35:43.091Z</time>
      </trkpt>
      <trkpt lat="42.92838" lon="0.25593">
        <ele>1513</ele>
        <time>2021-12-12T12:35:48.114Z</time>
      </trkpt>
      <trkpt lat="42.92837" lon="0.25596">
        <ele>1513</ele>
        <time>2021-12-12T12:35:53.080Z</time>
      </trkpt>
      <trkpt lat="42.92836" lon="0.25597">
        <ele>1513</ele>
        <time>2021-12-12T12:35:58.083Z</time>
      </trkpt>
      <trkpt lat="42.92833" lon="0.25601">
        <ele>1513</ele>
        <time>2021-12-12T12:36:03.089Z</time>
      </trkpt>
      <trkpt lat="42.9283" lon="0.25606">
        <ele>1513</ele>
        <time>2021-12-12T12:36:07.126Z</time>
      </trkpt>
      <trkpt lat="42.92831" lon="0.25613">
        <ele>1513</ele>
        <time>2021-12-12T12:36:12.086Z</time>
      </trkpt>
      <trkpt lat="42.92843" lon="0.2561">
        <ele>1513</ele>
        <time>2021-12-12T12:36:17.086Z</time>
      </trkpt>
      <trkpt lat="42.92848" lon="0.25608">
        <ele>1498</ele>
        <time>2021-12-12T12:36:22.083Z</time>
      </trkpt>
      <trkpt lat="42.92848" lon="0.25608">
        <ele>1498</ele>
        <time>2021-12-12T12:36:27.084Z</time>
      </trkpt>
      <trkpt lat="42.92848" lon="0.25608">
        <ele>1498</ele>
        <time>2021-12-12T12:36:31.126Z</time>
      </trkpt>
      <trkpt lat="42.92852" lon="0.25608">
        <ele>1498</ele>
        <time>2021-12-12T12:36:36.116Z</time>
      </trkpt>
      <trkpt lat="42.9286" lon="0.2561">
        <ele>1498</ele>
        <time>2021-12-12T12:36:41.087Z</time>
      </trkpt>
      <trkpt lat="42.92862" lon="0.25617">
        <ele>1498</ele>
        <time>2021-12-12T12:37:00.082Z</time>
      </trkpt>
      <trkpt lat="42.92864" lon="0.2562">
        <ele>1498</ele>
        <time>2021-12-12T12:37:05.090Z</time>
      </trkpt>
      <trkpt lat="42.92863" lon="0.2563">
        <ele>1492</ele>
        <time>2021-12-12T12:37:09.087Z</time>
      </trkpt>
      <trkpt lat="42.92867" lon="0.25632">
        <ele>1492</ele>
        <time>2021-12-12T12:37:13.080Z</time>
      </trkpt>
      <trkpt lat="42.92876" lon="0.25623">
        <ele>1479</ele>
        <time>2021-12-12T12:37:18.088Z</time>
      </trkpt>
      <trkpt lat="42.92876" lon="0.25634">
        <ele>1477</ele>
        <time>2021-12-12T12:37:23.085Z</time>
      </trkpt>
      <trkpt lat="42.92879" lon="0.25642">
        <ele>1477</ele>
        <time>2021-12-12T12:37:28.084Z</time>
      </trkpt>
      <trkpt lat="42.92886" lon="0.25635">
        <ele>1477</ele>
        <time>2021-12-12T12:37:33.116Z</time>
      </trkpt>
      <trkpt lat="42.92891" lon="0.25626">
        <ele>1477</ele>
        <time>2021-12-12T12:37:38.085Z</time>
      </trkpt>
      <trkpt lat="42.92913" lon="0.25654">
        <ele>1461</ele>
        <time>2021-12-12T12:38:09.132Z</time>
      </trkpt>
      <trkpt lat="42.92913" lon="0.25654">
        <ele>1461</ele>
        <time>2021-12-12T12:38:14.082Z</time>
      </trkpt>
      <trkpt lat="42.92913" lon="0.25654">
        <ele>1461</ele>
        <time>2021-12-12T12:38:18.084Z</time>
      </trkpt>
      <trkpt lat="42.92913" lon="0.25654">
        <ele>1461</ele>
        <time>2021-12-12T12:38:23.087Z</time>
      </trkpt>
      <trkpt lat="42.92914" lon="0.25654">
        <ele>1461</ele>
        <time>2021-12-12T12:38:28.086Z</time>
      </trkpt>
      <trkpt lat="42.92914" lon="0.25654">
        <ele>1461</ele>
        <time>2021-12-12T12:38:47.087Z</time>
      </trkpt>
      <trkpt lat="42.92919" lon="0.25663">
        <ele>1461</ele>
        <time>2021-12-12T12:38:52.087Z</time>
      </trkpt>
      <trkpt lat="42.92916" lon="0.2567">
        <ele>1461</ele>
        <time>2021-12-12T12:38:56.124Z</time>
      </trkpt>
      <trkpt lat="42.92924" lon="0.25673">
        <ele>1461</ele>
        <time>2021-12-12T12:39:01.094Z</time>
      </trkpt>
      <trkpt lat="42.9293" lon="0.25663">
        <ele>1461</ele>
        <time>2021-12-12T12:39:06.090Z</time>
      </trkpt>
      <trkpt lat="42.92935" lon="0.25654">
        <ele>1445</ele>
        <time>2021-12-12T12:39:11.084Z</time>
      </trkpt>
      <trkpt lat="42.9294" lon="0.25648">
        <ele>1448</ele>
        <time>2021-12-12T12:39:16.092Z</time>
      </trkpt>
      <trkpt lat="42.92944" lon="0.25659">
        <ele>1445</ele>
        <time>2021-12-12T12:39:20.129Z</time>
      </trkpt>
      <trkpt lat="42.9294" lon="0.25668">
        <ele>1445</ele>
        <time>2021-12-12T12:39:24.150Z</time>
      </trkpt>
      <trkpt lat="42.92957" lon="0.2567">
        <ele>1445</ele>
        <time>2021-12-12T12:40:08.083Z</time>
      </trkpt>
      <trkpt lat="42.92959" lon="0.25668">
        <ele>1433</ele>
        <time>2021-12-12T12:40:13.084Z</time>
      </trkpt>
      <trkpt lat="42.92964" lon="0.25659">
        <ele>1433</ele>
        <time>2021-12-12T12:40:17.084Z</time>
      </trkpt>
      <trkpt lat="42.92972" lon="0.25668">
        <ele>1433</ele>
        <time>2021-12-12T12:40:22.086Z</time>
      </trkpt>
      <trkpt lat="42.92974" lon="0.25684">
        <ele>1430</ele>
        <time>2021-12-12T12:40:27.089Z</time>
      </trkpt>
      <trkpt lat="42.92973" lon="0.25698">
        <ele>1430</ele>
        <time>2021-12-12T12:40:32.088Z</time>
      </trkpt>
      <trkpt lat="42.92978" lon="0.25705">
        <ele>1430</ele>
        <time>2021-12-12T12:40:37.089Z</time>
      </trkpt>
      <trkpt lat="42.92983" lon="0.25695">
        <ele>1430</ele>
        <time>2021-12-12T12:40:41.085Z</time>
      </trkpt>
      <trkpt lat="42.92987" lon="0.25699">
        <ele>1421</ele>
        <time>2021-12-12T12:40:46.090Z</time>
      </trkpt>
      <trkpt lat="42.92995" lon="0.2569">
        <ele>1421</ele>
        <time>2021-12-12T12:40:51.086Z</time>
      </trkpt>
      <trkpt lat="42.93001" lon="0.25693">
        <ele>1421</ele>
        <time>2021-12-12T12:40:55.123Z</time>
      </trkpt>
      <trkpt lat="42.9301" lon="0.25695">
        <ele>1421</ele>
        <time>2021-12-12T12:41:00.101Z</time>
      </trkpt>
      <trkpt lat="42.9302" lon="0.25691">
        <ele>1415</ele>
        <time>2021-12-12T12:41:05.138Z</time>
      </trkpt>
      <trkpt lat="42.93032" lon="0.25683">
        <ele>1415</ele>
        <time>2021-12-12T12:41:10.089Z</time>
      </trkpt>
      <trkpt lat="42.93046" lon="0.25691">
        <ele>1410</ele>
        <time>2021-12-12T12:41:15.091Z</time>
      </trkpt>
      <trkpt lat="42.93052" lon="0.25674">
        <ele>1405</ele>
        <time>2021-12-12T12:41:20.088Z</time>
      </trkpt>
      <trkpt lat="42.93066" lon="0.25685">
        <ele>1410</ele>
        <time>2021-12-12T12:41:25.088Z</time>
      </trkpt>
      <trkpt lat="42.93075" lon="0.25679">
        <ele>1401</ele>
        <time>2021-12-12T12:45:20.083Z</time>
      </trkpt>
      <trkpt lat="42.93075" lon="0.25679">
        <ele>1401</ele>
        <time>2021-12-12T12:45:25.087Z</time>
      </trkpt>
      <trkpt lat="42.93075" lon="0.25679">
        <ele>1401</ele>
        <time>2021-12-12T12:45:30.087Z</time>
      </trkpt>
      <trkpt lat="42.93076" lon="0.25676">
        <ele>1401</ele>
        <time>2021-12-12T12:45:35.091Z</time>
      </trkpt>
      <trkpt lat="42.93086" lon="0.25677">
        <ele>1401</ele>
        <time>2021-12-12T12:45:40.078Z</time>
      </trkpt>
      <trkpt lat="42.9309" lon="0.25668">
        <ele>1401</ele>
        <time>2021-12-12T12:45:44.083Z</time>
      </trkpt>
      <trkpt lat="42.93101" lon="0.25665">
        <ele>1394</ele>
        <time>2021-12-12T12:45:49.088Z</time>
      </trkpt>
      <trkpt lat="42.9311" lon="0.25667">
        <ele>1394</ele>
        <time>2021-12-12T12:45:54.073Z</time>
      </trkpt>
      <trkpt lat="42.93116" lon="0.25662">
        <ele>1394</ele>
        <time>2021-12-12T12:45:58.083Z</time>
      </trkpt>
      <trkpt lat="42.93119" lon="0.25668">
        <ele>1394</ele>
        <time>2021-12-12T12:46:03.080Z</time>
      </trkpt>
      <trkpt lat="42.93118" lon="0.2567">
        <ele>1394</ele>
        <time>2021-12-12T12:46:08.113Z</time>
      </trkpt>
      <trkpt lat="42.93119" lon="0.2567">
        <ele>1394</ele>
        <time>2021-12-12T12:46:13.085Z</time>
      </trkpt>
      <trkpt lat="42.93125" lon="0.25678">
        <ele>1394</ele>
        <time>2021-12-12T12:46:18.086Z</time>
      </trkpt>
      <trkpt lat="42.93134" lon="0.25689">
        <ele>1388</ele>
        <time>2021-12-12T12:46:23.086Z</time>
      </trkpt>
      <trkpt lat="42.93151" lon="0.25702">
        <ele>1388</ele>
        <time>2021-12-12T12:46:28.090Z</time>
      </trkpt>
      <trkpt lat="42.93168" lon="0.25709">
        <ele>1384</ele>
        <time>2021-12-12T12:46:33.094Z</time>
      </trkpt>
      <trkpt lat="42.9318" lon="0.25711">
        <ele>1384</ele>
        <time>2021-12-12T12:46:38.123Z</time>
      </trkpt>
      <trkpt lat="42.93183" lon="0.25715">
        <ele>1379</ele>
        <time>2021-12-12T12:46:43.089Z</time>
      </trkpt>
      <trkpt lat="42.93187" lon="0.25719">
        <ele>1379</ele>
        <time>2021-12-12T12:46:47.118Z</time>
      </trkpt>
      <trkpt lat="42.93194" lon="0.2572">
        <ele>1379</ele>
        <time>2021-12-12T12:46:51.150Z</time>
      </trkpt>
      <trkpt lat="42.93201" lon="0.25724">
        <ele>1379</ele>
        <time>2021-12-12T12:46:56.074Z</time>
      </trkpt>
      <trkpt lat="42.93208" lon="0.25723">
        <ele>1379</ele>
        <time>2021-12-12T12:47:00.116Z</time>
      </trkpt>
      <trkpt lat="42.93214" lon="0.25719">
        <ele>1371</ele>
        <time>2021-12-12T12:47:05.083Z</time>
      </trkpt>
      <trkpt lat="42.93222" lon="0.2572">
        <ele>1371</ele>
        <time>2021-12-12T12:47:10.082Z</time>
      </trkpt>
      <trkpt lat="42.93233" lon="0.25725">
        <ele>1371</ele>
        <time>2021-12-12T12:47:14.080Z</time>
      </trkpt>
      <trkpt lat="42.93253" lon="0.25732">
        <ele>1364</ele>
        <time>2021-12-12T12:47:43.112Z</time>
      </trkpt>
      <trkpt lat="42.93252" lon="0.25732">
        <ele>1364</ele>
        <time>2021-12-12T12:47:47.139Z</time>
      </trkpt>
      <trkpt lat="42.93256" lon="0.25732">
        <ele>1364</ele>
        <time>2021-12-12T12:47:52.115Z</time>
      </trkpt>
      <trkpt lat="42.93268" lon="0.25737">
        <ele>1363</ele>
        <time>2021-12-12T12:47:57.079Z</time>
      </trkpt>
      <trkpt lat="42.93292" lon="0.2575">
        <ele>1364</ele>
        <time>2021-12-12T12:48:02.088Z</time>
      </trkpt>
      <trkpt lat="42.93318" lon="0.25761">
        <ele>1364</ele>
        <time>2021-12-12T12:48:07.089Z</time>
      </trkpt>
      <trkpt lat="42.93322" lon="0.2576">
        <ele>1360</ele>
        <time>2021-12-12T12:48:11.108Z</time>
      </trkpt>
      <trkpt lat="42.93325" lon="0.25757">
        <ele>1360</ele>
        <time>2021-12-12T12:48:16.080Z</time>
      </trkpt>
      <trkpt lat="42.93326" lon="0.25759">
        <ele>1360</ele>
        <time>2021-12-12T12:48:21.074Z</time>
      </trkpt>
      <trkpt lat="42.9333" lon="0.25757">
        <ele>1360</ele>
        <time>2021-12-12T12:48:25.089Z</time>
      </trkpt>
      <trkpt lat="42.93337" lon="0.25752">
        <ele>1360</ele>
        <time>2021-12-12T12:48:30.077Z</time>
      </trkpt>
      <trkpt lat="42.93338" lon="0.25752">
        <ele>1360</ele>
        <time>2021-12-12T12:48:34.080Z</time>
      </trkpt>
      <trkpt lat="42.93347" lon="0.25744">
        <ele>1359</ele>
        <time>2021-12-12T12:48:39.087Z</time>
      </trkpt>
      <trkpt lat="42.93358" lon="0.25738">
        <ele>1359</ele>
        <time>2021-12-12T12:48:44.078Z</time>
      </trkpt>
      <trkpt lat="42.93359" lon="0.25737">
        <ele>1359</ele>
        <time>2021-12-12T12:48:49.086Z</time>
      </trkpt>
      <trkpt lat="42.93359" lon="0.25735">
        <ele>1357</ele>
        <time>2021-12-12T12:48:54.090Z</time>
      </trkpt>
      <trkpt lat="42.93363" lon="0.25732">
        <ele>1357</ele>
        <time>2021-12-12T12:48:59.083Z</time>
      </trkpt>
      <trkpt lat="42.93372" lon="0.25727">
        <ele>1357</ele>
        <time>2021-12-12T12:49:04.084Z</time>
      </trkpt>
      <trkpt lat="42.93383" lon="0.25723">
        <ele>1359</ele>
        <time>2021-12-12T12:49:09.118Z</time>
      </trkpt>
      <trkpt lat="42.93391" lon="0.25722">
        <ele>1359</ele>
        <time>2021-12-12T12:49:14.187Z</time>
      </trkpt>
      <trkpt lat="42.93398" lon="0.25722">
        <ele>1359</ele>
        <time>2021-12-12T12:49:19.082Z</time>
      </trkpt>
      <trkpt lat="42.93408" lon="0.25722">
        <ele>1357</ele>
        <time>2021-12-12T12:49:24.114Z</time>
      </trkpt>
      <trkpt lat="42.9342" lon="0.25722">
        <ele>1357</ele>
        <time>2021-12-12T12:49:29.086Z</time>
      </trkpt>
      <trkpt lat="42.93434" lon="0.25724">
        <ele>1355</ele>
        <time>2021-12-12T12:49:34.084Z</time>
      </trkpt>
      <trkpt lat="42.93452" lon="0.25728">
        <ele>1355</ele>
        <time>2021-12-12T12:49:39.069Z</time>
      </trkpt>
      <trkpt lat="42.93472" lon="0.2573">
        <ele>1353</ele>
        <time>2021-12-12T12:49:43.087Z</time>
      </trkpt>
      <trkpt lat="42.93489" lon="0.25729">
        <ele>1352</ele>
        <time>2021-12-12T12:49:48.094Z</time>
      </trkpt>
      <trkpt lat="42.93492" lon="0.25731">
        <ele>1352</ele>
        <time>2021-12-12T12:49:53.116Z</time>
      </trkpt>
      <trkpt lat="42.93492" lon="0.25731">
        <ele>1352</ele>
        <time>2021-12-12T12:49:58.083Z</time>
      </trkpt>
      <trkpt lat="42.93499" lon="0.25727">
        <ele>1352</ele>
        <time>2021-12-12T12:50:03.084Z</time>
      </trkpt>
      <trkpt lat="42.93508" lon="0.25726">
        <ele>1352</ele>
        <time>2021-12-12T12:50:08.081Z</time>
      </trkpt>
      <trkpt lat="42.93516" lon="0.25725">
        <ele>1351</ele>
        <time>2021-12-12T12:50:13.085Z</time>
      </trkpt>
      <trkpt lat="42.93523" lon="0.25726">
        <ele>1351</ele>
        <time>2021-12-12T12:50:18.099Z</time>
      </trkpt>
      <trkpt lat="42.93536" lon="0.25724">
        <ele>1351</ele>
        <time>2021-12-12T12:50:23.086Z</time>
      </trkpt>
      <trkpt lat="42.93571" lon="0.2572">
        <ele>1343</ele>
        <time>2021-12-12T12:51:08.094Z</time>
      </trkpt>
      <trkpt lat="42.93574" lon="0.25723">
        <ele>1343</ele>
        <time>2021-12-12T12:51:13.080Z</time>
      </trkpt>
      <trkpt lat="42.93576" lon="0.25725">
        <ele>1343</ele>
        <time>2021-12-12T12:51:18.095Z</time>
      </trkpt>
      <trkpt lat="42.9358" lon="0.25726">
        <ele>1343</ele>
        <time>2021-12-12T12:51:23.096Z</time>
      </trkpt>
      <trkpt lat="42.93589" lon="0.25721">
        <ele>1343</ele>
        <time>2021-12-12T12:51:28.094Z</time>
      </trkpt>
      <trkpt lat="42.93596" lon="0.25708">
        <ele>1332</ele>
        <time>2021-12-12T12:51:47.081Z</time>
      </trkpt>
      <trkpt lat="42.93597" lon="0.25709">
        <ele>1336</ele>
        <time>2021-12-12T12:51:52.091Z</time>
      </trkpt>
      <trkpt lat="42.93598" lon="0.25708">
        <ele>1322</ele>
        <time>2021-12-12T12:51:57.081Z</time>
      </trkpt>
      <trkpt lat="42.93598" lon="0.25708">
        <ele>1336</ele>
        <time>2021-12-12T12:52:02.077Z</time>
      </trkpt>
      <trkpt lat="42.93598" lon="0.25708">
        <ele>1336</ele>
        <time>2021-12-12T12:52:07.075Z</time>
      </trkpt>
      <trkpt lat="42.93598" lon="0.25708">
        <ele>1336</ele>
        <time>2021-12-12T12:52:12.094Z</time>
      </trkpt>
      <trkpt lat="42.936" lon="0.25708">
        <ele>1336</ele>
        <time>2021-12-12T12:52:17.085Z</time>
      </trkpt>
      <trkpt lat="42.9361" lon="0.25712">
        <ele>1336</ele>
        <time>2021-12-12T12:52:22.079Z</time>
      </trkpt>
      <trkpt lat="42.93614" lon="0.25713">
        <ele>1336</ele>
        <time>2021-12-12T12:52:26.087Z</time>
      </trkpt>
      <trkpt lat="42.93633" lon="0.25716">
        <ele>1326</ele>
        <time>2021-12-12T12:53:33.097Z</time>
      </trkpt>
      <trkpt lat="42.93633" lon="0.25716">
        <ele>1326</ele>
        <time>2021-12-12T12:53:38.076Z</time>
      </trkpt>
      <trkpt lat="42.93633" lon="0.25714">
        <ele>1326</ele>
        <time>2021-12-12T12:53:43.082Z</time>
      </trkpt>
      <trkpt lat="42.93634" lon="0.2571">
        <ele>1326</ele>
        <time>2021-12-12T12:53:48.089Z</time>
      </trkpt>
      <trkpt lat="42.93635" lon="0.25692">
        <ele>1308</ele>
        <time>2021-12-12T12:53:53.085Z</time>
      </trkpt>
      <trkpt lat="42.9363" lon="0.25695">
        <ele>1308</ele>
        <time>2021-12-12T12:54:07.088Z</time>
      </trkpt>
      <trkpt lat="42.93627" lon="0.25692">
        <ele>1308</ele>
        <time>2021-12-12T12:54:12.087Z</time>
      </trkpt>
      <trkpt lat="42.93623" lon="0.25684">
        <ele>1322</ele>
        <time>2021-12-12T12:54:16.085Z</time>
      </trkpt>
      <trkpt lat="42.9362" lon="0.25681">
        <ele>1307</ele>
        <time>2021-12-12T12:54:21.083Z</time>
      </trkpt>
      <trkpt lat="42.9362" lon="0.25681">
        <ele>1322</ele>
        <time>2021-12-12T12:54:26.088Z</time>
      </trkpt>
      <trkpt lat="42.9362" lon="0.25681">
        <ele>1322</ele>
        <time>2021-12-12T12:54:31.085Z</time>
      </trkpt>
      <trkpt lat="42.93616" lon="0.25672">
        <ele>1307</ele>
        <time>2021-12-12T12:54:36.090Z</time>
      </trkpt>
      <trkpt lat="42.93614" lon="0.25666">
        <ele>1307</ele>
        <time>2021-12-12T12:54:41.087Z</time>
      </trkpt>
      <trkpt lat="42.93609" lon="0.25652">
        <ele>1299</ele>
        <time>2021-12-12T12:54:45.084Z</time>
      </trkpt>
      <trkpt lat="42.93612" lon="0.25642">
        <ele>1299</ele>
        <time>2021-12-12T12:55:10.088Z</time>
      </trkpt>
      <trkpt lat="42.93618" lon="0.25649">
        <ele>1299</ele>
        <time>2021-12-12T12:55:14.087Z</time>
      </trkpt>
      <trkpt lat="42.93625" lon="0.25652">
        <ele>1299</ele>
        <time>2021-12-12T12:55:19.083Z</time>
      </trkpt>
      <trkpt lat="42.93629" lon="0.25639">
        <ele>1290</ele>
        <time>2021-12-12T12:55:24.083Z</time>
      </trkpt>
      <trkpt lat="42.93625" lon="0.25624">
        <ele>1292</ele>
        <time>2021-12-12T12:55:29.085Z</time>
      </trkpt>
      <trkpt lat="42.93622" lon="0.25606">
        <ele>1292</ele>
        <time>2021-12-12T12:56:33.090Z</time>
      </trkpt>
      <trkpt lat="42.93626" lon="0.25609">
        <ele>1282</ele>
        <time>2021-12-12T12:56:37.086Z</time>
      </trkpt>
      <trkpt lat="42.93633" lon="0.25614">
        <ele>1282</ele>
        <time>2021-12-12T12:56:42.086Z</time>
      </trkpt>
      <trkpt lat="42.9364" lon="0.25621">
        <ele>1282</ele>
        <time>2021-12-12T12:56:47.113Z</time>
      </trkpt>
      <trkpt lat="42.93646" lon="0.25627">
        <ele>1290</ele>
        <time>2021-12-12T12:56:52.089Z</time>
      </trkpt>
      <trkpt lat="42.93654" lon="0.25631">
        <ele>1279</ele>
        <time>2021-12-12T12:56:57.092Z</time>
      </trkpt>
      <trkpt lat="42.93653" lon="0.25622">
        <ele>1282</ele>
        <time>2021-12-12T12:57:02.088Z</time>
      </trkpt>
      <trkpt lat="42.93654" lon="0.25616">
        <ele>1271</ele>
        <time>2021-12-12T12:57:07.088Z</time>
      </trkpt>
      <trkpt lat="42.93651" lon="0.25608">
        <ele>1282</ele>
        <time>2021-12-12T12:57:11.101Z</time>
      </trkpt>
      <trkpt lat="42.93649" lon="0.25608">
        <ele>1282</ele>
        <time>2021-12-12T12:57:15.085Z</time>
      </trkpt>
      <trkpt lat="42.93654" lon="0.25611">
        <ele>1271</ele>
        <time>2021-12-12T12:57:20.093Z</time>
      </trkpt>
      <trkpt lat="42.93661" lon="0.25622">
        <ele>1271</ele>
        <time>2021-12-12T12:57:25.090Z</time>
      </trkpt>
      <trkpt lat="42.93669" lon="0.25632">
        <ele>1279</ele>
        <time>2021-12-12T12:57:30.090Z</time>
      </trkpt>
      <trkpt lat="42.93673" lon="0.25638">
        <ele>1279</ele>
        <time>2021-12-12T12:57:44.111Z</time>
      </trkpt>
      <trkpt lat="42.93675" lon="0.2564">
        <ele>1279</ele>
        <time>2021-12-12T12:57:49.085Z</time>
      </trkpt>
      <trkpt lat="42.93678" lon="0.25645">
        <ele>1279</ele>
        <time>2021-12-12T12:57:54.085Z</time>
      </trkpt>
      <trkpt lat="42.93685" lon="0.25655">
        <ele>1276</ele>
        <time>2021-12-12T12:57:59.087Z</time>
      </trkpt>
      <trkpt lat="42.93692" lon="0.25668">
        <ele>1276</ele>
        <time>2021-12-12T12:58:04.090Z</time>
      </trkpt>
      <trkpt lat="42.93696" lon="0.25677">
        <ele>1276</ele>
        <time>2021-12-12T12:58:08.088Z</time>
      </trkpt>
      <trkpt lat="42.93705" lon="0.25693">
        <ele>1288</ele>
        <time>2021-12-12T12:58:13.089Z</time>
      </trkpt>
      <trkpt lat="42.93716" lon="0.25704">
        <ele>1267</ele>
        <time>2021-12-12T12:58:18.090Z</time>
      </trkpt>
      <trkpt lat="42.93735" lon="0.25724">
        <ele>1273</ele>
        <time>2021-12-12T12:58:23.078Z</time>
      </trkpt>
      <trkpt lat="42.93739" lon="0.25731">
        <ele>1257</ele>
        <time>2021-12-12T12:58:28.083Z</time>
      </trkpt>
      <trkpt lat="42.93738" lon="0.25731">
        <ele>1257</ele>
        <time>2021-12-12T12:58:32.085Z</time>
      </trkpt>
      <trkpt lat="42.9374" lon="0.25735">
        <ele>1257</ele>
        <time>2021-12-12T12:58:37.085Z</time>
      </trkpt>
      <trkpt lat="42.93743" lon="0.25743">
        <ele>1261</ele>
        <time>2021-12-12T12:58:41.090Z</time>
      </trkpt>
      <trkpt lat="42.93745" lon="0.25748">
        <ele>1261</ele>
        <time>2021-12-12T12:58:46.089Z</time>
      </trkpt>
      <trkpt lat="42.93746" lon="0.25754">
        <ele>1261</ele>
        <time>2021-12-12T12:58:50.110Z</time>
      </trkpt>
      <trkpt lat="42.93746" lon="0.2576">
        <ele>1261</ele>
        <time>2021-12-12T12:58:55.087Z</time>
      </trkpt>
      <trkpt lat="42.93748" lon="0.25761">
        <ele>1261</ele>
        <time>2021-12-12T12:59:00.086Z</time>
      </trkpt>
      <trkpt lat="42.93749" lon="0.25761">
        <ele>1261</ele>
        <time>2021-12-12T12:59:05.087Z</time>
      </trkpt>
      <trkpt lat="42.93754" lon="0.25763">
        <ele>1261</ele>
        <time>2021-12-12T12:59:10.088Z</time>
      </trkpt>
      <trkpt lat="42.93757" lon="0.25766">
        <ele>1268</ele>
        <time>2021-12-12T12:59:15.084Z</time>
      </trkpt>
      <trkpt lat="42.93763" lon="0.25779">
        <ele>1268</ele>
        <time>2021-12-12T12:59:20.087Z</time>
      </trkpt>
      <trkpt lat="42.93771" lon="0.25791">
        <ele>1251</ele>
        <time>2021-12-12T12:59:24.086Z</time>
      </trkpt>
      <trkpt lat="42.93774" lon="0.25799">
        <ele>1255</ele>
        <time>2021-12-12T12:59:29.087Z</time>
      </trkpt>
      <trkpt lat="42.93778" lon="0.25811">
        <ele>1255</ele>
        <time>2021-12-12T12:59:34.095Z</time>
      </trkpt>
      <trkpt lat="42.93778" lon="0.25818">
        <ele>1255</ele>
        <time>2021-12-12T12:59:39.083Z</time>
      </trkpt>
      <trkpt lat="42.93777" lon="0.25819">
        <ele>1255</ele>
        <time>2021-12-12T12:59:44.086Z</time>
      </trkpt>
      <trkpt lat="42.93778" lon="0.25821">
        <ele>1258</ele>
        <time>2021-12-12T12:59:48.087Z</time>
      </trkpt>
      <trkpt lat="42.93782" lon="0.25832">
        <ele>1258</ele>
        <time>2021-12-12T12:59:53.113Z</time>
      </trkpt>
      <trkpt lat="42.93784" lon="0.25846">
        <ele>1258</ele>
        <time>2021-12-12T12:59:58.086Z</time>
      </trkpt>
      <trkpt lat="42.93785" lon="0.25857">
        <ele>1264</ele>
        <time>2021-12-12T13:00:03.088Z</time>
      </trkpt>
      <trkpt lat="42.93791" lon="0.25878">
        <ele>1263</ele>
        <time>2021-12-12T13:00:08.084Z</time>
      </trkpt>
      <trkpt lat="42.93804" lon="0.25893">
        <ele>1249</ele>
        <time>2021-12-12T13:00:13.087Z</time>
      </trkpt>
      <trkpt lat="42.93813" lon="0.25905">
        <ele>1250</ele>
        <time>2021-12-12T13:00:17.091Z</time>
      </trkpt>
      <trkpt lat="42.93828" lon="0.25917">
        <ele>1242</ele>
        <time>2021-12-12T13:00:22.085Z</time>
      </trkpt>
      <trkpt lat="42.93842" lon="0.25926">
        <ele>1242</ele>
        <time>2021-12-12T13:00:27.088Z</time>
      </trkpt>
      <trkpt lat="42.93849" lon="0.25933">
        <ele>1240</ele>
        <time>2021-12-12T13:00:31.115Z</time>
      </trkpt>
      <trkpt lat="42.93858" lon="0.25942">
        <ele>1240</ele>
        <time>2021-12-12T13:00:36.086Z</time>
      </trkpt>
      <trkpt lat="42.93871" lon="0.25953">
        <ele>1240</ele>
        <time>2021-12-12T13:00:41.089Z</time>
      </trkpt>
      <trkpt lat="42.93882" lon="0.25969">
        <ele>1235</ele>
        <time>2021-12-12T13:00:46.086Z</time>
      </trkpt>
      <trkpt lat="42.93889" lon="0.25984">
        <ele>1235</ele>
        <time>2021-12-12T13:00:51.091Z</time>
      </trkpt>
      <trkpt lat="42.93895" lon="0.25991">
        <ele>1236</ele>
        <time>2021-12-12T13:00:56.093Z</time>
      </trkpt>
      <trkpt lat="42.93897" lon="0.25992">
        <ele>1236</ele>
        <time>2021-12-12T13:01:11.092Z</time>
      </trkpt>
      <trkpt lat="42.93896" lon="0.26002">
        <ele>1236</ele>
        <time>2021-12-12T13:01:16.126Z</time>
      </trkpt>
      <trkpt lat="42.93895" lon="0.26024">
        <ele>1236</ele>
        <time>2021-12-12T13:01:21.095Z</time>
      </trkpt>
      <trkpt lat="42.93892" lon="0.26043">
        <ele>1234</ele>
        <time>2021-12-12T13:01:26.086Z</time>
      </trkpt>
      <trkpt lat="42.93892" lon="0.26053">
        <ele>1234</ele>
        <time>2021-12-12T13:01:31.081Z</time>
      </trkpt>
      <trkpt lat="42.93893" lon="0.26064">
        <ele>1234</ele>
        <time>2021-12-12T13:01:36.095Z</time>
      </trkpt>
      <trkpt lat="42.93893" lon="0.26076">
        <ele>1235</ele>
        <time>2021-12-12T13:01:41.087Z</time>
      </trkpt>
      <trkpt lat="42.93892" lon="0.26087">
        <ele>1235</ele>
        <time>2021-12-12T13:01:46.116Z</time>
      </trkpt>
      <trkpt lat="42.93892" lon="0.26096">
        <ele>1235</ele>
        <time>2021-12-12T13:01:51.085Z</time>
      </trkpt>
      <trkpt lat="42.93892" lon="0.26107">
        <ele>1236</ele>
        <time>2021-12-12T13:02:11.092Z</time>
      </trkpt>
      <trkpt lat="42.93891" lon="0.26109">
        <ele>1236</ele>
        <time>2021-12-12T13:02:15.110Z</time>
      </trkpt>
      <trkpt lat="42.9389" lon="0.2611">
        <ele>1236</ele>
        <time>2021-12-12T13:02:20.094Z</time>
      </trkpt>
      <trkpt lat="42.9389" lon="0.26111">
        <ele>1236</ele>
        <time>2021-12-12T13:02:25.092Z</time>
      </trkpt>
      <trkpt lat="42.9389" lon="0.26117">
        <ele>1236</ele>
        <time>2021-12-12T13:02:30.091Z</time>
      </trkpt>
      <trkpt lat="42.93891" lon="0.26119">
        <ele>1236</ele>
        <time>2021-12-12T13:02:34.094Z</time>
      </trkpt>
      <trkpt lat="42.93889" lon="0.26125">
        <ele>1236</ele>
        <time>2021-12-12T13:02:39.100Z</time>
      </trkpt>
      <trkpt lat="42.93888" lon="0.26128">
        <ele>1234</ele>
        <time>2021-12-12T13:02:44.086Z</time>
      </trkpt>
      <trkpt lat="42.93884" lon="0.26133">
        <ele>1234</ele>
        <time>2021-12-12T13:02:48.094Z</time>
      </trkpt>
      <trkpt lat="42.93877" lon="0.26143">
        <ele>1234</ele>
        <time>2021-12-12T13:02:53.078Z</time>
      </trkpt>
      <trkpt lat="42.93869" lon="0.26164">
        <ele>1234</ele>
        <time>2021-12-12T13:02:58.087Z</time>
      </trkpt>
      <trkpt lat="42.93865" lon="0.26177">
        <ele>1234</ele>
        <time>2021-12-12T13:03:02.110Z</time>
      </trkpt>
      <trkpt lat="42.93856" lon="0.26191">
        <ele>1232</ele>
        <time>2021-12-12T13:03:07.088Z</time>
      </trkpt>
      <trkpt lat="42.93845" lon="0.26201">
        <ele>1235</ele>
        <time>2021-12-12T13:03:12.083Z</time>
      </trkpt>
      <trkpt lat="42.93836" lon="0.26223">
        <ele>1231</ele>
        <time>2021-12-12T13:03:17.086Z</time>
      </trkpt>
      <trkpt lat="42.93821" lon="0.26264">
        <ele>1227</ele>
        <time>2021-12-12T13:03:22.094Z</time>
      </trkpt>
      <trkpt lat="42.93816" lon="0.26273">
        <ele>1236</ele>
        <time>2021-12-12T13:03:27.085Z</time>
      </trkpt>
      <trkpt lat="42.93815" lon="0.26284">
        <ele>1236</ele>
        <time>2021-12-12T13:03:57.084Z</time>
      </trkpt>
      <trkpt lat="42.93813" lon="0.26289">
        <ele>1236</ele>
        <time>2021-12-12T13:04:01.087Z</time>
      </trkpt>
      <trkpt lat="42.93813" lon="0.26296">
        <ele>1234</ele>
        <time>2021-12-12T13:04:06.088Z</time>
      </trkpt>
      <trkpt lat="42.93812" lon="0.26308">
        <ele>1234</ele>
        <time>2021-12-12T13:04:11.087Z</time>
      </trkpt>
      <trkpt lat="42.93812" lon="0.26316">
        <ele>1234</ele>
        <time>2021-12-12T13:04:16.087Z</time>
      </trkpt>
      <trkpt lat="42.93816" lon="0.26326">
        <ele>1233</ele>
        <time>2021-12-12T13:04:21.086Z</time>
      </trkpt>
      <trkpt lat="42.93821" lon="0.26335">
        <ele>1215</ele>
        <time>2021-12-12T13:04:25.086Z</time>
      </trkpt>
      <trkpt lat="42.93823" lon="0.26349">
        <ele>1214</ele>
        <time>2021-12-12T13:04:30.085Z</time>
      </trkpt>
      <trkpt lat="42.93826" lon="0.26362">
        <ele>1214</ele>
        <time>2021-12-12T13:04:35.089Z</time>
      </trkpt>
      <trkpt lat="42.93826" lon="0.26381">
        <ele>1210</ele>
        <time>2021-12-12T13:04:40.090Z</time>
      </trkpt>
      <trkpt lat="42.93825" lon="0.26399">
        <ele>1210</ele>
        <time>2021-12-12T13:04:45.085Z</time>
      </trkpt>
      <trkpt lat="42.93825" lon="0.26404">
        <ele>1209</ele>
        <time>2021-12-12T13:04:50.088Z</time>
      </trkpt>
      <trkpt lat="42.93823" lon="0.26413">
        <ele>1209</ele>
        <time>2021-12-12T13:04:54.086Z</time>
      </trkpt>
      <trkpt lat="42.93825" lon="0.26428">
        <ele>1209</ele>
        <time>2021-12-12T13:04:59.087Z</time>
      </trkpt>
      <trkpt lat="42.93829" lon="0.26443">
        <ele>1207</ele>
        <time>2021-12-12T13:05:04.086Z</time>
      </trkpt>
      <trkpt lat="42.93826" lon="0.26461">
        <ele>1201</ele>
        <time>2021-12-12T13:05:09.084Z</time>
      </trkpt>
      <trkpt lat="42.93822" lon="0.26473">
        <ele>1201</ele>
        <time>2021-12-12T13:05:13.082Z</time>
      </trkpt>
      <trkpt lat="42.93818" lon="0.26483">
        <ele>1217</ele>
        <time>2021-12-12T13:05:18.088Z</time>
      </trkpt>
      <trkpt lat="42.93813" lon="0.26499">
        <ele>1210</ele>
        <time>2021-12-12T13:05:23.085Z</time>
      </trkpt>
      <trkpt lat="42.93811" lon="0.26526">
        <ele>1202</ele>
        <time>2021-12-12T13:05:28.083Z</time>
      </trkpt>
      <trkpt lat="42.93807" lon="0.26555">
        <ele>1195</ele>
        <time>2021-12-12T13:05:33.086Z</time>
      </trkpt>
      <trkpt lat="42.93805" lon="0.26567">
        <ele>1195</ele>
        <time>2021-12-12T13:05:38.087Z</time>
      </trkpt>
      <trkpt lat="42.93801" lon="0.26584">
        <ele>1192</ele>
        <time>2021-12-12T13:05:43.084Z</time>
      </trkpt>
      <trkpt lat="42.93799" lon="0.26597">
        <ele>1191</ele>
        <time>2021-12-12T13:05:48.086Z</time>
      </trkpt>
      <trkpt lat="42.93799" lon="0.266">
        <ele>1191</ele>
        <time>2021-12-12T13:05:53.086Z</time>
      </trkpt>
      <trkpt lat="42.93799" lon="0.266">
        <ele>1191</ele>
        <time>2021-12-12T13:05:58.114Z</time>
      </trkpt>
      <trkpt lat="42.93799" lon="0.266">
        <ele>1191</ele>
        <time>2021-12-12T13:06:03.090Z</time>
      </trkpt>
      <trkpt lat="42.93796" lon="0.26609">
        <ele>1191</ele>
        <time>2021-12-12T13:06:08.089Z</time>
      </trkpt>
      <trkpt lat="42.93792" lon="0.26617">
        <ele>1196</ele>
        <time>2021-12-12T13:06:13.090Z</time>
      </trkpt>
      <trkpt lat="42.93792" lon="0.26628">
        <ele>1189</ele>
        <time>2021-12-12T13:06:28.092Z</time>
      </trkpt>
      <trkpt lat="42.93784" lon="0.26628">
        <ele>1193</ele>
        <time>2021-12-12T13:06:33.085Z</time>
      </trkpt>
      <trkpt lat="42.93771" lon="0.26633">
        <ele>1193</ele>
        <time>2021-12-12T13:06:38.088Z</time>
      </trkpt>
      <trkpt lat="42.93768" lon="0.26635">
        <ele>1193</ele>
        <time>2021-12-12T13:06:43.086Z</time>
      </trkpt>
      <trkpt lat="42.93755" lon="0.26649">
        <ele>1191</ele>
        <time>2021-12-12T13:06:48.091Z</time>
      </trkpt>
      <trkpt lat="42.93739" lon="0.26688">
        <ele>1182</ele>
        <time>2021-12-12T13:06:53.072Z</time>
      </trkpt>
      <trkpt lat="42.93728" lon="0.2673">
        <ele>1176</ele>
        <time>2021-12-12T13:06:58.087Z</time>
      </trkpt>
      <trkpt lat="42.93722" lon="0.26761">
        <ele>1175</ele>
        <time>2021-12-12T13:07:02.112Z</time>
      </trkpt>
      <trkpt lat="42.93715" lon="0.26794">
        <ele>1172</ele>
        <time>2021-12-12T13:07:07.091Z</time>
      </trkpt>
      <trkpt lat="42.93711" lon="0.26813">
        <ele>1172</ele>
        <time>2021-12-12T13:07:12.085Z</time>
      </trkpt>
      <trkpt lat="42.93706" lon="0.26843">
        <ele>1169</ele>
        <time>2021-12-12T13:07:17.077Z</time>
      </trkpt>
      <trkpt lat="42.93704" lon="0.26862">
        <ele>1168</ele>
        <time>2021-12-12T13:07:22.091Z</time>
      </trkpt>
      <trkpt lat="42.93701" lon="0.26876">
        <ele>1168</ele>
        <time>2021-12-12T13:07:27.093Z</time>
      </trkpt>
      <trkpt lat="42.937" lon="0.26889">
        <ele>1168</ele>
        <time>2021-12-12T13:08:11.077Z</time>
      </trkpt>
      <trkpt lat="42.937" lon="0.26889">
        <ele>1168</ele>
        <time>2021-12-12T13:08:15.095Z</time>
      </trkpt>
      <trkpt lat="42.937" lon="0.26889">
        <ele>1168</ele>
        <time>2021-12-12T13:08:20.081Z</time>
      </trkpt>
      <trkpt lat="42.937" lon="0.26891">
        <ele>1168</ele>
        <time>2021-12-12T13:08:24.114Z</time>
      </trkpt>
      <trkpt lat="42.93699" lon="0.26898">
        <ele>1168</ele>
        <time>2021-12-12T13:08:29.097Z</time>
      </trkpt>
      <trkpt lat="42.93697" lon="0.26904">
        <ele>1170</ele>
        <time>2021-12-12T13:08:34.086Z</time>
      </trkpt>
      <trkpt lat="42.93693" lon="0.26913">
        <ele>1170</ele>
        <time>2021-12-12T13:08:39.176Z</time>
      </trkpt>
      <trkpt lat="42.93689" lon="0.26925">
        <ele>1170</ele>
        <time>2021-12-12T13:08:44.096Z</time>
      </trkpt>
      <trkpt lat="42.93687" lon="0.26934">
        <ele>1171</ele>
        <time>2021-12-12T13:08:48.115Z</time>
      </trkpt>
      <trkpt lat="42.93685" lon="0.26944">
        <ele>1171</ele>
        <time>2021-12-12T13:08:53.089Z</time>
      </trkpt>
      <trkpt lat="42.93683" lon="0.26957">
        <ele>1171</ele>
        <time>2021-12-12T13:08:58.095Z</time>
      </trkpt>
      <trkpt lat="42.93682" lon="0.26971">
        <ele>1170</ele>
        <time>2021-12-12T13:09:03.086Z</time>
      </trkpt>
      <trkpt lat="42.93682" lon="0.26984">
        <ele>1170</ele>
        <time>2021-12-12T13:09:08.099Z</time>
      </trkpt>
      <trkpt lat="42.93685" lon="0.26991">
        <ele>1168</ele>
        <time>2021-12-12T13:09:13.092Z</time>
      </trkpt>
      <trkpt lat="42.93687" lon="0.26997">
        <ele>1168</ele>
        <time>2021-12-12T13:09:17.120Z</time>
      </trkpt>
      <trkpt lat="42.9369" lon="0.27007">
        <ele>1168</ele>
        <time>2021-12-12T13:09:22.099Z</time>
      </trkpt>
      <trkpt lat="42.93694" lon="0.27013">
        <ele>1168</ele>
        <time>2021-12-12T13:09:27.082Z</time>
      </trkpt>
      <trkpt lat="42.937" lon="0.27022">
        <ele>1166</ele>
        <time>2021-12-12T13:09:32.092Z</time>
      </trkpt>
      <trkpt lat="42.93703" lon="0.27027">
        <ele>1166</ele>
        <time>2021-12-12T13:09:37.094Z</time>
      </trkpt>
      <trkpt lat="42.93704" lon="0.27032">
        <ele>1166</ele>
        <time>2021-12-12T13:09:42.101Z</time>
      </trkpt>
      <trkpt lat="42.93706" lon="0.27039">
        <ele>1166</ele>
        <time>2021-12-12T13:09:47.088Z</time>
      </trkpt>
      <trkpt lat="42.93708" lon="0.27045">
        <ele>1164</ele>
        <time>2021-12-12T13:09:52.114Z</time>
      </trkpt>
      <trkpt lat="42.93708" lon="0.2705">
        <ele>1164</ele>
        <time>2021-12-12T13:09:57.085Z</time>
      </trkpt>
      <trkpt lat="42.93708" lon="0.27054">
        <ele>1164</ele>
        <time>2021-12-12T13:10:02.088Z</time>
      </trkpt>
      <trkpt lat="42.9371" lon="0.2706">
        <ele>1168</ele>
        <time>2021-12-12T13:10:07.085Z</time>
      </trkpt>
      <trkpt lat="42.93714" lon="0.27068">
        <ele>1168</ele>
        <time>2021-12-12T13:10:12.088Z</time>
      </trkpt>
      <trkpt lat="42.93719" lon="0.27076">
        <ele>1168</ele>
        <time>2021-12-12T13:10:17.086Z</time>
      </trkpt>
      <trkpt lat="42.93723" lon="0.27082">
        <ele>1168</ele>
        <time>2021-12-12T13:10:21.087Z</time>
      </trkpt>
      <trkpt lat="42.93727" lon="0.27088">
        <ele>1168</ele>
        <time>2021-12-12T13:10:26.087Z</time>
      </trkpt>
      <trkpt lat="42.93729" lon="0.27095">
        <ele>1168</ele>
        <time>2021-12-12T13:10:31.088Z</time>
      </trkpt>
      <trkpt lat="42.93733" lon="0.27101">
        <ele>1167</ele>
        <time>2021-12-12T13:10:36.087Z</time>
      </trkpt>
      <trkpt lat="42.93737" lon="0.27105">
        <ele>1168</ele>
        <time>2021-12-12T13:10:41.088Z</time>
      </trkpt>
      <trkpt lat="42.93739" lon="0.2711">
        <ele>1168</ele>
        <time>2021-12-12T13:10:45.085Z</time>
      </trkpt>
      <trkpt lat="42.93742" lon="0.27117">
        <ele>1168</ele>
        <time>2021-12-12T13:10:50.087Z</time>
      </trkpt>
      <trkpt lat="42.93746" lon="0.27122">
        <ele>1168</ele>
        <time>2021-12-12T13:10:55.086Z</time>
      </trkpt>
      <trkpt lat="42.9375" lon="0.27126">
        <ele>1165</ele>
        <time>2021-12-12T13:11:00.084Z</time>
      </trkpt>
      <trkpt lat="42.93753" lon="0.27131">
        <ele>1165</ele>
        <time>2021-12-12T13:11:05.088Z</time>
      </trkpt>
      <trkpt lat="42.93755" lon="0.27134">
        <ele>1165</ele>
        <time>2021-12-12T13:11:10.085Z</time>
      </trkpt>
      <trkpt lat="42.93758" lon="0.2714">
        <ele>1165</ele>
        <time>2021-12-12T13:11:14.151Z</time>
      </trkpt>
      <trkpt lat="42.93763" lon="0.27149">
        <ele>1165</ele>
        <time>2021-12-12T13:11:19.085Z</time>
      </trkpt>
      <trkpt lat="42.93769" lon="0.27156">
        <ele>1164</ele>
        <time>2021-12-12T13:11:24.083Z</time>
      </trkpt>
      <trkpt lat="42.93776" lon="0.27164">
        <ele>1164</ele>
        <time>2021-12-12T13:11:29.083Z</time>
      </trkpt>
      <trkpt lat="42.93784" lon="0.2717">
        <ele>1164</ele>
        <time>2021-12-12T13:11:34.087Z</time>
      </trkpt>
      <trkpt lat="42.93789" lon="0.27177">
        <ele>1164</ele>
        <time>2021-12-12T13:11:39.088Z</time>
      </trkpt>
      <trkpt lat="42.93794" lon="0.2718">
        <ele>1164</ele>
        <time>2021-12-12T13:11:44.086Z</time>
      </trkpt>
      <trkpt lat="42.93799" lon="0.27186">
        <ele>1164</ele>
        <time>2021-12-12T13:11:49.084Z</time>
      </trkpt>
      <trkpt lat="42.93807" lon="0.27194">
        <ele>1164</ele>
        <time>2021-12-12T13:11:54.086Z</time>
      </trkpt>
      <trkpt lat="42.93816" lon="0.272">
        <ele>1164</ele>
        <time>2021-12-12T13:11:59.089Z</time>
      </trkpt>
      <trkpt lat="42.93823" lon="0.27206">
        <ele>1162</ele>
        <time>2021-12-12T13:12:04.092Z</time>
      </trkpt>
      <trkpt lat="42.93831" lon="0.2721">
        <ele>1163</ele>
        <time>2021-12-12T13:12:09.088Z</time>
      </trkpt>
      <trkpt lat="42.93842" lon="0.27214">
        <ele>1163</ele>
        <time>2021-12-12T13:12:14.088Z</time>
      </trkpt>
      <trkpt lat="42.93857" lon="0.27223">
        <ele>1160</ele>
        <time>2021-12-12T13:12:19.086Z</time>
      </trkpt>
      <trkpt lat="42.93871" lon="0.27228">
        <ele>1160</ele>
        <time>2021-12-12T13:12:24.082Z</time>
      </trkpt>
      <trkpt lat="42.93886" lon="0.27233">
        <ele>1159</ele>
        <time>2021-12-12T13:12:29.113Z</time>
      </trkpt>
      <trkpt lat="42.93898" lon="0.27236">
        <ele>1159</ele>
        <time>2021-12-12T13:12:34.086Z</time>
      </trkpt>
      <trkpt lat="42.93907" lon="0.27239">
        <ele>1156</ele>
        <time>2021-12-12T13:12:38.088Z</time>
      </trkpt>
      <trkpt lat="42.93919" lon="0.2724">
        <ele>1156</ele>
        <time>2021-12-12T13:12:43.084Z</time>
      </trkpt>
      <trkpt lat="42.93929" lon="0.27239">
        <ele>1156</ele>
        <time>2021-12-12T13:12:47.109Z</time>
      </trkpt>
      <trkpt lat="42.93942" lon="0.27239">
        <ele>1153</ele>
        <time>2021-12-12T13:12:52.090Z</time>
      </trkpt>
      <trkpt lat="42.93954" lon="0.27238">
        <ele>1153</ele>
        <time>2021-12-12T13:12:57.086Z</time>
      </trkpt>
      <trkpt lat="42.93965" lon="0.27239">
        <ele>1148</ele>
        <time>2021-12-12T13:13:02.090Z</time>
      </trkpt>
      <trkpt lat="42.93973" lon="0.27243">
        <ele>1148</ele>
        <time>2021-12-12T13:13:07.087Z</time>
      </trkpt>
      <trkpt lat="42.93981" lon="0.27246">
        <ele>1148</ele>
        <time>2021-12-12T13:13:11.152Z</time>
      </trkpt>
      <trkpt lat="42.93999" lon="0.27252">
        <ele>1140</ele>
        <time>2021-12-12T13:13:16.095Z</time>
      </trkpt>
      <trkpt lat="42.94021" lon="0.27262">
        <ele>1139</ele>
        <time>2021-12-12T13:13:21.078Z</time>
      </trkpt>
      <trkpt lat="42.94028" lon="0.27268">
        <ele>1135</ele>
        <time>2021-12-12T13:13:25.095Z</time>
      </trkpt>
      <trkpt lat="42.94036" lon="0.27277">
        <ele>1135</ele>
        <time>2021-12-12T13:13:30.085Z</time>
      </trkpt>
      <trkpt lat="42.94037" lon="0.27276">
        <ele>1135</ele>
        <time>2021-12-12T13:13:34.095Z</time>
      </trkpt>
      <trkpt lat="42.94038" lon="0.27275">
        <ele>1135</ele>
        <time>2021-12-12T13:13:39.079Z</time>
      </trkpt>
      <trkpt lat="42.94041" lon="0.27277">
        <ele>1135</ele>
        <time>2021-12-12T13:13:44.096Z</time>
      </trkpt>
      <trkpt lat="42.94048" lon="0.27285">
        <ele>1132</ele>
        <time>2021-12-12T13:13:49.095Z</time>
      </trkpt>
      <trkpt lat="42.94052" lon="0.27291">
        <ele>1132</ele>
        <time>2021-12-12T13:13:54.092Z</time>
      </trkpt>
      <trkpt lat="42.9406" lon="0.27299">
        <ele>1130</ele>
        <time>2021-12-12T13:13:59.124Z</time>
      </trkpt>
      <trkpt lat="42.94067" lon="0.27301">
        <ele>1130</ele>
        <time>2021-12-12T13:14:04.102Z</time>
      </trkpt>
      <trkpt lat="42.94071" lon="0.27306">
        <ele>1128</ele>
        <time>2021-12-12T13:14:09.089Z</time>
      </trkpt>
      <trkpt lat="42.94083" lon="0.27328">
        <ele>1125</ele>
        <time>2021-12-12T13:14:14.090Z</time>
      </trkpt>
      <trkpt lat="42.94084" lon="0.2734">
        <ele>1125</ele>
        <time>2021-12-12T13:14:18.078Z</time>
      </trkpt>
      <trkpt lat="42.94085" lon="0.27351">
        <ele>1121</ele>
        <time>2021-12-12T13:14:23.080Z</time>
      </trkpt>
      <trkpt lat="42.94089" lon="0.27356">
        <ele>1121</ele>
        <time>2021-12-12T13:14:28.112Z</time>
      </trkpt>
      <trkpt lat="42.94091" lon="0.27357">
        <ele>1121</ele>
        <time>2021-12-12T13:14:33.100Z</time>
      </trkpt>
      <trkpt lat="42.9409" lon="0.27358">
        <ele>1121</ele>
        <time>2021-12-12T13:14:38.094Z</time>
      </trkpt>
      <trkpt lat="42.94092" lon="0.27359">
        <ele>1121</ele>
        <time>2021-12-12T13:14:43.083Z</time>
      </trkpt>
      <trkpt lat="42.94092" lon="0.27362">
        <ele>1121</ele>
        <time>2021-12-12T13:14:47.096Z</time>
      </trkpt>
      <trkpt lat="42.94095" lon="0.27369">
        <ele>1121</ele>
        <time>2021-12-12T13:14:52.124Z</time>
      </trkpt>
      <trkpt lat="42.94102" lon="0.27377">
        <ele>1120</ele>
        <time>2021-12-12T13:14:57.081Z</time>
      </trkpt>
      <trkpt lat="42.94107" lon="0.27383">
        <ele>1120</ele>
        <time>2021-12-12T13:15:01.096Z</time>
      </trkpt>
      <trkpt lat="42.9411" lon="0.27392">
        <ele>1120</ele>
        <time>2021-12-12T13:15:05.090Z</time>
      </trkpt>
      <trkpt lat="42.94127" lon="0.27414">
        <ele>1118</ele>
        <time>2021-12-12T13:15:10.089Z</time>
      </trkpt>
      <trkpt lat="42.94141" lon="0.27436">
        <ele>1116</ele>
        <time>2021-12-12T13:15:15.084Z</time>
      </trkpt>
      <trkpt lat="42.94147" lon="0.27449">
        <ele>1116</ele>
        <time>2021-12-12T13:15:20.086Z</time>
      </trkpt>
      <trkpt lat="42.94156" lon="0.27464">
        <ele>1109</ele>
        <time>2021-12-12T13:15:25.084Z</time>
      </trkpt>
      <trkpt lat="42.94162" lon="0.27476">
        <ele>1109</ele>
        <time>2021-12-12T13:15:29.085Z</time>
      </trkpt>
      <trkpt lat="42.94171" lon="0.27493">
        <ele>1107</ele>
        <time>2021-12-12T13:15:34.086Z</time>
      </trkpt>
      <trkpt lat="42.94184" lon="0.27514">
        <ele>1106</ele>
        <time>2021-12-12T13:15:39.078Z</time>
      </trkpt>
      <trkpt lat="42.94195" lon="0.27531">
        <ele>1106</ele>
        <time>2021-12-12T13:15:44.086Z</time>
      </trkpt>
      <trkpt lat="42.94201" lon="0.27552">
        <ele>1104</ele>
        <time>2021-12-12T13:15:49.085Z</time>
      </trkpt>
      <trkpt lat="42.94207" lon="0.27572">
        <ele>1102</ele>
        <time>2021-12-12T13:15:54.091Z</time>
      </trkpt>
      <trkpt lat="42.94207" lon="0.2758">
        <ele>1102</ele>
        <time>2021-12-12T13:15:59.084Z</time>
      </trkpt>
      <trkpt lat="42.94212" lon="0.27588">
        <ele>1101</ele>
        <time>2021-12-12T13:16:03.089Z</time>
      </trkpt>
      <trkpt lat="42.94219" lon="0.276">
        <ele>1100</ele>
        <time>2021-12-12T13:16:07.085Z</time>
      </trkpt>
      <trkpt lat="42.94225" lon="0.27613">
        <ele>1100</ele>
        <time>2021-12-12T13:16:12.084Z</time>
      </trkpt>
      <trkpt lat="42.9423" lon="0.27623">
        <ele>1100</ele>
        <time>2021-12-12T13:16:16.082Z</time>
      </trkpt>
      <trkpt lat="42.94234" lon="0.27634">
        <ele>1099</ele>
        <time>2021-12-12T13:16:21.083Z</time>
      </trkpt>
      <trkpt lat="42.9424" lon="0.27652">
        <ele>1101</ele>
        <time>2021-12-12T13:16:26.081Z</time>
      </trkpt>
      <trkpt lat="42.94247" lon="0.27671">
        <ele>1099</ele>
        <time>2021-12-12T13:16:31.085Z</time>
      </trkpt>
      <trkpt lat="42.94256" lon="0.27685">
        <ele>1097</ele>
        <time>2021-12-12T13:16:36.087Z</time>
      </trkpt>
      <trkpt lat="42.94274" lon="0.2769">
        <ele>1094</ele>
        <time>2021-12-12T13:17:00.083Z</time>
      </trkpt>
      <trkpt lat="42.94275" lon="0.27687">
        <ele>1094</ele>
        <time>2021-12-12T13:17:05.084Z</time>
      </trkpt>
      <trkpt lat="42.94283" lon="0.27699">
        <ele>1094</ele>
        <time>2021-12-12T13:17:10.085Z</time>
      </trkpt>
      <trkpt lat="42.94292" lon="0.27713">
        <ele>1089</ele>
        <time>2021-12-12T13:17:15.084Z</time>
      </trkpt>
      <trkpt lat="42.94295" lon="0.2773">
        <ele>1089</ele>
        <time>2021-12-12T13:17:20.086Z</time>
      </trkpt>
      <trkpt lat="42.94299" lon="0.27748">
        <ele>1087</ele>
        <time>2021-12-12T13:17:25.113Z</time>
      </trkpt>
      <trkpt lat="42.9431" lon="0.27756">
        <ele>1087</ele>
        <time>2021-12-12T13:17:30.087Z</time>
      </trkpt>
      <trkpt lat="42.9432" lon="0.27766">
        <ele>1085</ele>
        <time>2021-12-12T13:17:35.085Z</time>
      </trkpt>
      <trkpt lat="42.94325" lon="0.2777">
        <ele>1085</ele>
        <time>2021-12-12T13:17:40.087Z</time>
      </trkpt>
      <trkpt lat="42.94331" lon="0.2778">
        <ele>1085</ele>
        <time>2021-12-12T13:19:04.087Z</time>
      </trkpt>
      <trkpt lat="42.94331" lon="0.27781">
        <ele>1085</ele>
        <time>2021-12-12T13:19:09.115Z</time>
      </trkpt>
      <trkpt lat="42.94334" lon="0.27786">
        <ele>1085</ele>
        <time>2021-12-12T13:19:14.086Z</time>
      </trkpt>
      <trkpt lat="42.94333" lon="0.27793">
        <ele>1086</ele>
        <time>2021-12-12T13:19:19.087Z</time>
      </trkpt>
      <trkpt lat="42.94334" lon="0.27798">
        <ele>1086</ele>
        <time>2021-12-12T13:19:24.088Z</time>
      </trkpt>
      <trkpt lat="42.94335" lon="0.27803">
        <ele>1086</ele>
        <time>2021-12-12T13:19:29.090Z</time>
      </trkpt>
      <trkpt lat="42.94336" lon="0.27808">
        <ele>1086</ele>
        <time>2021-12-12T13:19:34.089Z</time>
      </trkpt>
      <trkpt lat="42.94335" lon="0.27812">
        <ele>1086</ele>
        <time>2021-12-12T13:19:39.090Z</time>
      </trkpt>
      <trkpt lat="42.94332" lon="0.27813">
        <ele>1086</ele>
        <time>2021-12-12T13:19:44.088Z</time>
      </trkpt>
      <trkpt lat="42.9433" lon="0.27816">
        <ele>1086</ele>
        <time>2021-12-12T13:19:49.086Z</time>
      </trkpt>
      <trkpt lat="42.94328" lon="0.27819">
        <ele>1086</ele>
        <time>2021-12-12T13:19:54.088Z</time>
      </trkpt>
      <trkpt lat="42.94326" lon="0.27824">
        <ele>1086</ele>
        <time>2021-12-12T13:19:59.091Z</time>
      </trkpt>
      <trkpt lat="42.94323" lon="0.27829">
        <ele>1086</ele>
        <time>2021-12-12T13:20:04.087Z</time>
      </trkpt>
      <trkpt lat="42.94319" lon="0.27833">
        <ele>1089</ele>
        <time>2021-12-12T13:20:09.089Z</time>
      </trkpt>
      <trkpt lat="42.94315" lon="0.27834">
        <ele>1089</ele>
        <time>2021-12-12T13:20:14.088Z</time>
      </trkpt>
      <trkpt lat="42.94311" lon="0.27839">
        <ele>1089</ele>
        <time>2021-12-12T13:20:19.091Z</time>
      </trkpt>
      <trkpt lat="42.94307" lon="0.27842">
        <ele>1089</ele>
        <time>2021-12-12T13:20:24.090Z</time>
      </trkpt>
      <trkpt lat="42.94303" lon="0.27847">
        <ele>1089</ele>
        <time>2021-12-12T13:20:29.087Z</time>
      </trkpt>
      <trkpt lat="42.94301" lon="0.27859">
        <ele>1086</ele>
        <time>2021-12-12T13:20:39.086Z</time>
      </trkpt>
      <trkpt lat="42.94301" lon="0.27859">
        <ele>1086</ele>
        <time>2021-12-12T13:20:44.112Z</time>
      </trkpt>
      <trkpt lat="42.94301" lon="0.27861">
        <ele>1086</ele>
        <time>2021-12-12T13:20:49.084Z</time>
      </trkpt>
      <trkpt lat="42.943" lon="0.27863">
        <ele>1086</ele>
        <time>2021-12-12T13:20:54.090Z</time>
      </trkpt>
      <trkpt lat="42.94298" lon="0.27869">
        <ele>1086</ele>
        <time>2021-12-12T13:20:59.085Z</time>
      </trkpt>
      <trkpt lat="42.94296" lon="0.27877">
        <ele>1086</ele>
        <time>2021-12-12T13:21:04.089Z</time>
      </trkpt>
      <trkpt lat="42.94293" lon="0.27885">
        <ele>1086</ele>
        <time>2021-12-12T13:21:09.089Z</time>
      </trkpt>
      <trkpt lat="42.94291" lon="0.2789">
        <ele>1089</ele>
        <time>2021-12-12T13:21:13.111Z</time>
      </trkpt>
      <trkpt lat="42.94289" lon="0.27896">
        <ele>1089</ele>
        <time>2021-12-12T13:21:18.087Z</time>
      </trkpt>
      <trkpt lat="42.94287" lon="0.27902">
        <ele>1089</ele>
        <time>2021-12-12T13:21:23.086Z</time>
      </trkpt>
      <trkpt lat="42.94285" lon="0.27907">
        <ele>1090</ele>
        <time>2021-12-12T13:21:28.087Z</time>
      </trkpt>
      <trkpt lat="42.94282" lon="0.27911">
        <ele>1090</ele>
        <time>2021-12-12T13:21:33.087Z</time>
      </trkpt>
      <trkpt lat="42.94278" lon="0.27918">
        <ele>1090</ele>
        <time>2021-12-12T13:21:38.090Z</time>
      </trkpt>
      <trkpt lat="42.94275" lon="0.27924">
        <ele>1090</ele>
        <time>2021-12-12T13:21:43.088Z</time>
      </trkpt>
      <trkpt lat="42.94272" lon="0.27929">
        <ele>1090</ele>
        <time>2021-12-12T13:21:48.084Z</time>
      </trkpt>
      <trkpt lat="42.94269" lon="0.27933">
        <ele>1091</ele>
        <time>2021-12-12T13:21:53.083Z</time>
      </trkpt>
      <trkpt lat="42.94266" lon="0.2794">
        <ele>1091</ele>
        <time>2021-12-12T13:21:58.089Z</time>
      </trkpt>
    </trkseg>
  </trk>
</gpx>